<?xml version="1.0" encoding="UTF-8" standalone="no" ?>
<gpx xmlns="http://www.topografix.com/GPX/1/1" xmlns:xsi="http://www.w3.org/2001/XMLSchema-instance" xsi:schemaLocation="http://www.topografix.com/GPX/1/1 http://www.topografix.com/GPX/1/1/gpx.xsd" version="1.1" creator="VisuGPX - https://www.visugpx.com">
  <metadata>
    <name>100 km AUDAX de l\'UCT</name>
    <desc><![CDATA[Voilà un tour cool avec une équipe bien sympa.]]></desc>
  </metadata>
  <trk>
    <name><![CDATA[29-SEP-13 14:53:40]]></name>
    <trkseg>
      <trkpt lat="47.39663" lon="0.62273">
        <ele>170.77</ele>
        <time>2013-09-29T04:18:35Z</time>
      </trkpt>
      <trkpt lat="47.3966" lon="0.62288">
        <ele>170.77</ele>
        <time>2013-09-29T04:18:37Z</time>
      </trkpt>
      <trkpt lat="47.39655" lon="0.62312">
        <ele>167.41</ele>
        <time>2013-09-29T04:18:40Z</time>
      </trkpt>
      <trkpt lat="47.39654" lon="0.6232">
        <ele>164.04</ele>
        <time>2013-09-29T04:18:41Z</time>
      </trkpt>
      <trkpt lat="47.3965" lon="0.62336">
        <ele>158.27</ele>
        <time>2013-09-29T04:18:43Z</time>
      </trkpt>
      <trkpt lat="47.39649" lon="0.62344">
        <ele>155.39</ele>
        <time>2013-09-29T04:18:44Z</time>
      </trkpt>
      <trkpt lat="47.39645" lon="0.62361">
        <ele>150.1</ele>
        <time>2013-09-29T04:18:46Z</time>
      </trkpt>
      <trkpt lat="47.39642" lon="0.62379">
        <ele>144.82</ele>
        <time>2013-09-29T04:18:48Z</time>
      </trkpt>
      <trkpt lat="47.39638" lon="0.62397">
        <ele>140.01</ele>
        <time>2013-09-29T04:18:50Z</time>
      </trkpt>
      <trkpt lat="47.39634" lon="0.62418">
        <ele>135.2</ele>
        <time>2013-09-29T04:18:52Z</time>
      </trkpt>
      <trkpt lat="47.39631" lon="0.62437">
        <ele>130.88</ele>
        <time>2013-09-29T04:18:54Z</time>
      </trkpt>
      <trkpt lat="47.39628" lon="0.62454">
        <ele>127.51</ele>
        <time>2013-09-29T04:18:56Z</time>
      </trkpt>
      <trkpt lat="47.39624" lon="0.62471">
        <ele>124.15</ele>
        <time>2013-09-29T04:18:58Z</time>
      </trkpt>
      <trkpt lat="47.39621" lon="0.62488">
        <ele>120.3</ele>
        <time>2013-09-29T04:19:00Z</time>
      </trkpt>
      <trkpt lat="47.39616" lon="0.62514">
        <ele>116.46</ele>
        <time>2013-09-29T04:19:03Z</time>
      </trkpt>
      <trkpt lat="47.39622" lon="0.62545">
        <ele>111.65</ele>
        <time>2013-09-29T04:19:08Z</time>
      </trkpt>
      <trkpt lat="47.39635" lon="0.62557">
        <ele>111.65</ele>
        <time>2013-09-29T04:19:10Z</time>
      </trkpt>
      <trkpt lat="47.39656" lon="0.62569">
        <ele>107.32</ele>
        <time>2013-09-29T04:19:15Z</time>
      </trkpt>
      <trkpt lat="47.39664" lon="0.62572">
        <ele>105.88</ele>
        <time>2013-09-29T04:19:17Z</time>
      </trkpt>
      <trkpt lat="47.39673" lon="0.62574">
        <ele>104.44</ele>
        <time>2013-09-29T04:19:19Z</time>
      </trkpt>
      <trkpt lat="47.39685" lon="0.62576">
        <ele>102.52</ele>
        <time>2013-09-29T04:19:22Z</time>
      </trkpt>
      <trkpt lat="47.39701" lon="0.62597">
        <ele>99.63</ele>
        <time>2013-09-29T04:19:27Z</time>
      </trkpt>
      <trkpt lat="47.39703" lon="0.62604">
        <ele>98.67</ele>
        <time>2013-09-29T04:19:28Z</time>
      </trkpt>
      <trkpt lat="47.39705" lon="0.6262">
        <ele>97.71</ele>
        <time>2013-09-29T04:19:30Z</time>
      </trkpt>
      <trkpt lat="47.39712" lon="0.6266">
        <ele>94.83</ele>
        <time>2013-09-29T04:19:35Z</time>
      </trkpt>
      <trkpt lat="47.39718" lon="0.62689">
        <ele>92.9</ele>
        <time>2013-09-29T04:19:39Z</time>
      </trkpt>
      <trkpt lat="47.3972" lon="0.62702">
        <ele>93.87</ele>
        <time>2013-09-29T04:19:41Z</time>
      </trkpt>
      <trkpt lat="47.39739" lon="0.62816">
        <ele>91.46</ele>
        <time>2013-09-29T04:19:59Z</time>
      </trkpt>
      <trkpt lat="47.39742" lon="0.62835">
        <ele>90.98</ele>
        <time>2013-09-29T04:20:02Z</time>
      </trkpt>
      <trkpt lat="47.39733" lon="0.62938">
        <ele>90.5</ele>
        <time>2013-09-29T04:20:18Z</time>
      </trkpt>
      <trkpt lat="47.39731" lon="0.62965">
        <ele>90.02</ele>
        <time>2013-09-29T04:20:22Z</time>
      </trkpt>
      <trkpt lat="47.39733" lon="0.62986">
        <ele>90.02</ele>
        <time>2013-09-29T04:20:25Z</time>
      </trkpt>
      <trkpt lat="47.3974" lon="0.63027">
        <ele>89.54</ele>
        <time>2013-09-29T04:20:31Z</time>
      </trkpt>
      <trkpt lat="47.39751" lon="0.6306">
        <ele>89.06</ele>
        <time>2013-09-29T04:20:36Z</time>
      </trkpt>
      <trkpt lat="47.39771" lon="0.63093">
        <ele>88.58</ele>
        <time>2013-09-29T04:20:42Z</time>
      </trkpt>
      <trkpt lat="47.39837" lon="0.63189">
        <ele>87.62</ele>
        <time>2013-09-29T04:21:00Z</time>
      </trkpt>
      <trkpt lat="47.39898" lon="0.63302">
        <ele>86.18</ele>
        <time>2013-09-29T04:21:16Z</time>
      </trkpt>
      <trkpt lat="47.39932" lon="0.63365">
        <ele>87.62</ele>
        <time>2013-09-29T04:21:26Z</time>
      </trkpt>
      <trkpt lat="47.39941" lon="0.63388">
        <ele>88.1</ele>
        <time>2013-09-29T04:21:30Z</time>
      </trkpt>
      <trkpt lat="47.39945" lon="0.63407">
        <ele>89.06</ele>
        <time>2013-09-29T04:21:33Z</time>
      </trkpt>
      <trkpt lat="47.3995" lon="0.63453">
        <ele>89.54</ele>
        <time>2013-09-29T04:21:40Z</time>
      </trkpt>
      <trkpt lat="47.39962" lon="0.63476">
        <ele>89.54</ele>
        <time>2013-09-29T04:21:44Z</time>
      </trkpt>
      <trkpt lat="47.40012" lon="0.63608">
        <ele>91.94</ele>
        <time>2013-09-29T04:22:04Z</time>
      </trkpt>
      <trkpt lat="47.40053" lon="0.63726">
        <ele>91.94</ele>
        <time>2013-09-29T04:22:21Z</time>
      </trkpt>
      <trkpt lat="47.40063" lon="0.63803">
        <ele>91.46</ele>
        <time>2013-09-29T04:22:30Z</time>
      </trkpt>
      <trkpt lat="47.40035" lon="0.63921">
        <ele>90.5</ele>
        <time>2013-09-29T04:22:44Z</time>
      </trkpt>
      <trkpt lat="47.39965" lon="0.64026">
        <ele>87.14</ele>
        <time>2013-09-29T04:22:58Z</time>
      </trkpt>
      <trkpt lat="47.39933" lon="0.64071">
        <ele>83.77</ele>
        <time>2013-09-29T04:23:03Z</time>
      </trkpt>
      <trkpt lat="47.39902" lon="0.64121">
        <ele>80.89</ele>
        <time>2013-09-29T04:23:08Z</time>
      </trkpt>
      <trkpt lat="47.39892" lon="0.64172">
        <ele>78.97</ele>
        <time>2013-09-29T04:23:12Z</time>
      </trkpt>
      <trkpt lat="47.39897" lon="0.64214">
        <ele>76.56</ele>
        <time>2013-09-29T04:23:15Z</time>
      </trkpt>
      <trkpt lat="47.39928" lon="0.64293">
        <ele>73.2</ele>
        <time>2013-09-29T04:23:21Z</time>
      </trkpt>
      <trkpt lat="47.39951" lon="0.64347">
        <ele>69.83</ele>
        <time>2013-09-29T04:23:25Z</time>
      </trkpt>
      <trkpt lat="47.3996" lon="0.64374">
        <ele>67.91</ele>
        <time>2013-09-29T04:23:27Z</time>
      </trkpt>
      <trkpt lat="47.3995" lon="0.64458">
        <ele>64.07</ele>
        <time>2013-09-29T04:23:33Z</time>
      </trkpt>
      <trkpt lat="47.39917" lon="0.64496">
        <ele>60.7</ele>
        <time>2013-09-29T04:23:37Z</time>
      </trkpt>
      <trkpt lat="47.39856" lon="0.64536">
        <ele>56.86</ele>
        <time>2013-09-29T04:23:43Z</time>
      </trkpt>
      <trkpt lat="47.39816" lon="0.64562">
        <ele>53.97</ele>
        <time>2013-09-29T04:23:47Z</time>
      </trkpt>
      <trkpt lat="47.39763" lon="0.64568">
        <ele>52.05</ele>
        <time>2013-09-29T04:23:52Z</time>
      </trkpt>
      <trkpt lat="47.39653" lon="0.64532">
        <ele>48.68</ele>
        <time>2013-09-29T04:24:04Z</time>
      </trkpt>
      <trkpt lat="47.39616" lon="0.64529">
        <ele>49.16</ele>
        <time>2013-09-29T04:24:09Z</time>
      </trkpt>
      <trkpt lat="47.39597" lon="0.64534">
        <ele>50.13</ele>
        <time>2013-09-29T04:24:12Z</time>
      </trkpt>
      <trkpt lat="47.39579" lon="0.64535">
        <ele>50.13</ele>
        <time>2013-09-29T04:24:15Z</time>
      </trkpt>
      <trkpt lat="47.39537" lon="0.64538">
        <ele>50.13</ele>
        <time>2013-09-29T04:24:22Z</time>
      </trkpt>
      <trkpt lat="47.39513" lon="0.64547">
        <ele>50.13</ele>
        <time>2013-09-29T04:24:26Z</time>
      </trkpt>
      <trkpt lat="47.39404" lon="0.6463">
        <ele>51.57</ele>
        <time>2013-09-29T04:24:46Z</time>
      </trkpt>
      <trkpt lat="47.3934" lon="0.6468">
        <ele>49.65</ele>
        <time>2013-09-29T04:24:59Z</time>
      </trkpt>
      <trkpt lat="47.39333" lon="0.6469">
        <ele>49.65</ele>
        <time>2013-09-29T04:25:02Z</time>
      </trkpt>
      <trkpt lat="47.39334" lon="0.64721">
        <ele>49.16</ele>
        <time>2013-09-29T04:25:07Z</time>
      </trkpt>
      <trkpt lat="47.39359" lon="0.64815">
        <ele>49.16</ele>
        <time>2013-09-29T04:25:18Z</time>
      </trkpt>
      <trkpt lat="47.39397" lon="0.6497">
        <ele>50.61</ele>
        <time>2013-09-29T04:25:36Z</time>
      </trkpt>
      <trkpt lat="47.39419" lon="0.65059">
        <ele>51.09</ele>
        <time>2013-09-29T04:25:46Z</time>
      </trkpt>
      <trkpt lat="47.39449" lon="0.65193">
        <ele>50.61</ele>
        <time>2013-09-29T04:26:01Z</time>
      </trkpt>
      <trkpt lat="47.39485" lon="0.65356">
        <ele>50.61</ele>
        <time>2013-09-29T04:26:19Z</time>
      </trkpt>
      <trkpt lat="47.39513" lon="0.65505">
        <ele>51.09</ele>
        <time>2013-09-29T04:26:35Z</time>
      </trkpt>
      <trkpt lat="47.39527" lon="0.65573">
        <ele>50.61</ele>
        <time>2013-09-29T04:26:43Z</time>
      </trkpt>
      <trkpt lat="47.39568" lon="0.65707">
        <ele>51.09</ele>
        <time>2013-09-29T04:26:59Z</time>
      </trkpt>
      <trkpt lat="47.39594" lon="0.65784">
        <ele>51.57</ele>
        <time>2013-09-29T04:27:08Z</time>
      </trkpt>
      <trkpt lat="47.39608" lon="0.65837">
        <ele>51.57</ele>
        <time>2013-09-29T04:27:14Z</time>
      </trkpt>
      <trkpt lat="47.3963" lon="0.65981">
        <ele>53.49</ele>
        <time>2013-09-29T04:27:31Z</time>
      </trkpt>
      <trkpt lat="47.39647" lon="0.66113">
        <ele>53.01</ele>
        <time>2013-09-29T04:27:47Z</time>
      </trkpt>
      <trkpt lat="47.39676" lon="0.66258">
        <ele>51.57</ele>
        <time>2013-09-29T04:28:03Z</time>
      </trkpt>
      <trkpt lat="47.39699" lon="0.66384">
        <ele>50.61</ele>
        <time>2013-09-29T04:28:17Z</time>
      </trkpt>
      <trkpt lat="47.39719" lon="0.6652">
        <ele>51.09</ele>
        <time>2013-09-29T04:28:32Z</time>
      </trkpt>
      <trkpt lat="47.39742" lon="0.6668">
        <ele>50.61</ele>
        <time>2013-09-29T04:28:50Z</time>
      </trkpt>
      <trkpt lat="47.39762" lon="0.66812">
        <ele>51.09</ele>
        <time>2013-09-29T04:29:05Z</time>
      </trkpt>
      <trkpt lat="47.39784" lon="0.6693">
        <ele>51.09</ele>
        <time>2013-09-29T04:29:19Z</time>
      </trkpt>
      <trkpt lat="47.39792" lon="0.66964">
        <ele>51.57</ele>
        <time>2013-09-29T04:29:23Z</time>
      </trkpt>
      <trkpt lat="47.39832" lon="0.67071">
        <ele>50.61</ele>
        <time>2013-09-29T04:29:36Z</time>
      </trkpt>
      <trkpt lat="47.39863" lon="0.67201">
        <ele>51.09</ele>
        <time>2013-09-29T04:29:51Z</time>
      </trkpt>
      <trkpt lat="47.39871" lon="0.67226">
        <ele>51.09</ele>
        <time>2013-09-29T04:29:54Z</time>
      </trkpt>
      <trkpt lat="47.39908" lon="0.67344">
        <ele>51.57</ele>
        <time>2013-09-29T04:30:09Z</time>
      </trkpt>
      <trkpt lat="47.39922" lon="0.67398">
        <ele>51.57</ele>
        <time>2013-09-29T04:30:18Z</time>
      </trkpt>
      <trkpt lat="47.39933" lon="0.67412">
        <ele>52.53</ele>
        <time>2013-09-29T04:30:24Z</time>
      </trkpt>
      <trkpt lat="47.39957" lon="0.67493">
        <ele>53.01</ele>
        <time>2013-09-29T04:30:37Z</time>
      </trkpt>
      <trkpt lat="47.39944" lon="0.67525">
        <ele>53.49</ele>
        <time>2013-09-29T04:30:44Z</time>
      </trkpt>
      <trkpt lat="47.39848" lon="0.67574">
        <ele>54.45</ele>
        <time>2013-09-29T04:31:04Z</time>
      </trkpt>
      <trkpt lat="47.39759" lon="0.67619">
        <ele>54.45</ele>
        <time>2013-09-29T04:31:21Z</time>
      </trkpt>
      <trkpt lat="47.39659" lon="0.6767">
        <ele>53.97</ele>
        <time>2013-09-29T04:31:40Z</time>
      </trkpt>
      <trkpt lat="47.39613" lon="0.67693">
        <ele>52.05</ele>
        <time>2013-09-29T04:31:48Z</time>
      </trkpt>
      <trkpt lat="47.39602" lon="0.67696">
        <ele>51.57</ele>
        <time>2013-09-29T04:31:50Z</time>
      </trkpt>
      <trkpt lat="47.39552" lon="0.67723">
        <ele>49.65</ele>
        <time>2013-09-29T04:32:01Z</time>
      </trkpt>
      <trkpt lat="47.39531" lon="0.67731">
        <ele>50.13</ele>
        <time>2013-09-29T04:32:06Z</time>
      </trkpt>
      <trkpt lat="47.39518" lon="0.67741">
        <ele>50.13</ele>
        <time>2013-09-29T04:32:09Z</time>
      </trkpt>
      <trkpt lat="47.39486" lon="0.67758">
        <ele>50.13</ele>
        <time>2013-09-29T04:32:15Z</time>
      </trkpt>
      <trkpt lat="47.39414" lon="0.67796">
        <ele>50.61</ele>
        <time>2013-09-29T04:32:29Z</time>
      </trkpt>
      <trkpt lat="47.39391" lon="0.67807">
        <ele>51.09</ele>
        <time>2013-09-29T04:32:39Z</time>
      </trkpt>
      <trkpt lat="47.39381" lon="0.67819">
        <ele>51.09</ele>
        <time>2013-09-29T04:32:43Z</time>
      </trkpt>
      <trkpt lat="47.39364" lon="0.67834">
        <ele>50.13</ele>
        <time>2013-09-29T04:32:47Z</time>
      </trkpt>
      <trkpt lat="47.39298" lon="0.67857">
        <ele>49.65</ele>
        <time>2013-09-29T04:32:58Z</time>
      </trkpt>
      <trkpt lat="47.39275" lon="0.67871">
        <ele>49.65</ele>
        <time>2013-09-29T04:33:02Z</time>
      </trkpt>
      <trkpt lat="47.39238" lon="0.67946">
        <ele>49.65</ele>
        <time>2013-09-29T04:33:13Z</time>
      </trkpt>
      <trkpt lat="47.39214" lon="0.67995">
        <ele>50.13</ele>
        <time>2013-09-29T04:33:20Z</time>
      </trkpt>
      <trkpt lat="47.39188" lon="0.68028">
        <ele>49.65</ele>
        <time>2013-09-29T04:33:26Z</time>
      </trkpt>
      <trkpt lat="47.39175" lon="0.68045">
        <ele>50.13</ele>
        <time>2013-09-29T04:33:29Z</time>
      </trkpt>
      <trkpt lat="47.39162" lon="0.68065">
        <ele>49.65</ele>
        <time>2013-09-29T04:33:32Z</time>
      </trkpt>
      <trkpt lat="47.39073" lon="0.68138">
        <ele>49.16</ele>
        <time>2013-09-29T04:33:48Z</time>
      </trkpt>
      <trkpt lat="47.39057" lon="0.68178">
        <ele>49.65</ele>
        <time>2013-09-29T04:33:54Z</time>
      </trkpt>
      <trkpt lat="47.39056" lon="0.68201">
        <ele>49.65</ele>
        <time>2013-09-29T04:33:57Z</time>
      </trkpt>
      <trkpt lat="47.39046" lon="0.68225">
        <ele>49.16</ele>
        <time>2013-09-29T04:34:01Z</time>
      </trkpt>
      <trkpt lat="47.38955" lon="0.68274">
        <ele>47.24</ele>
        <time>2013-09-29T04:34:15Z</time>
      </trkpt>
      <trkpt lat="47.38868" lon="0.68315">
        <ele>46.28</ele>
        <time>2013-09-29T04:34:29Z</time>
      </trkpt>
      <trkpt lat="47.388" lon="0.68353">
        <ele>46.76</ele>
        <time>2013-09-29T04:34:40Z</time>
      </trkpt>
      <trkpt lat="47.38771" lon="0.68377">
        <ele>46.28</ele>
        <time>2013-09-29T04:34:45Z</time>
      </trkpt>
      <trkpt lat="47.38718" lon="0.684">
        <ele>45.8</ele>
        <time>2013-09-29T04:34:56Z</time>
      </trkpt>
      <trkpt lat="47.38658" lon="0.68405">
        <ele>45.8</ele>
        <time>2013-09-29T04:35:08Z</time>
      </trkpt>
      <trkpt lat="47.38643" lon="0.68407">
        <ele>45.8</ele>
        <time>2013-09-29T04:35:11Z</time>
      </trkpt>
      <trkpt lat="47.38594" lon="0.68412">
        <ele>45.8</ele>
        <time>2013-09-29T04:35:22Z</time>
      </trkpt>
      <trkpt lat="47.38581" lon="0.68415">
        <ele>45.32</ele>
        <time>2013-09-29T04:35:27Z</time>
      </trkpt>
      <trkpt lat="47.38579" lon="0.68428">
        <ele>45.8</ele>
        <time>2013-09-29T04:35:31Z</time>
      </trkpt>
      <trkpt lat="47.38581" lon="0.68486">
        <ele>45.32</ele>
        <time>2013-09-29T04:35:41Z</time>
      </trkpt>
      <trkpt lat="47.38583" lon="0.68531">
        <ele>45.32</ele>
        <time>2013-09-29T04:35:47Z</time>
      </trkpt>
      <trkpt lat="47.38589" lon="0.68598">
        <ele>45.32</ele>
        <time>2013-09-29T04:35:56Z</time>
      </trkpt>
      <trkpt lat="47.38591" lon="0.68625">
        <ele>45.32</ele>
        <time>2013-09-29T04:36:00Z</time>
      </trkpt>
      <trkpt lat="47.38594" lon="0.68647">
        <ele>45.32</ele>
        <time>2013-09-29T04:36:03Z</time>
      </trkpt>
      <trkpt lat="47.38596" lon="0.68671">
        <ele>45.32</ele>
        <time>2013-09-29T04:36:06Z</time>
      </trkpt>
      <trkpt lat="47.38598" lon="0.68708">
        <ele>45.32</ele>
        <time>2013-09-29T04:36:11Z</time>
      </trkpt>
      <trkpt lat="47.38601" lon="0.68783">
        <ele>45.32</ele>
        <time>2013-09-29T04:36:22Z</time>
      </trkpt>
      <trkpt lat="47.38588" lon="0.68793">
        <ele>45.32</ele>
        <time>2013-09-29T04:36:26Z</time>
      </trkpt>
      <trkpt lat="47.38509" lon="0.68809">
        <ele>45.8</ele>
        <time>2013-09-29T04:36:40Z</time>
      </trkpt>
      <trkpt lat="47.38425" lon="0.6882">
        <ele>44.84</ele>
        <time>2013-09-29T04:36:55Z</time>
      </trkpt>
      <trkpt lat="47.38421" lon="0.68821">
        <ele>44.84</ele>
        <time>2013-09-29T04:36:56Z</time>
      </trkpt>
      <trkpt lat="47.38414" lon="0.68868">
        <ele>45.32</ele>
        <time>2013-09-29T04:37:05Z</time>
      </trkpt>
      <trkpt lat="47.38414" lon="0.68882">
        <ele>45.32</ele>
        <time>2013-09-29T04:37:07Z</time>
      </trkpt>
      <trkpt lat="47.38413" lon="0.68965">
        <ele>46.76</ele>
        <time>2013-09-29T04:37:19Z</time>
      </trkpt>
      <trkpt lat="47.38412" lon="0.68979">
        <ele>46.76</ele>
        <time>2013-09-29T04:37:21Z</time>
      </trkpt>
      <trkpt lat="47.3841" lon="0.69006">
        <ele>47.24</ele>
        <time>2013-09-29T04:37:25Z</time>
      </trkpt>
      <trkpt lat="47.38408" lon="0.69031">
        <ele>47.24</ele>
        <time>2013-09-29T04:37:29Z</time>
      </trkpt>
      <trkpt lat="47.38404" lon="0.69104">
        <ele>48.68</ele>
        <time>2013-09-29T04:37:42Z</time>
      </trkpt>
      <trkpt lat="47.38402" lon="0.69126">
        <ele>49.16</ele>
        <time>2013-09-29T04:37:49Z</time>
      </trkpt>
      <trkpt lat="47.38401" lon="0.6916">
        <ele>48.2</ele>
        <time>2013-09-29T04:37:59Z</time>
      </trkpt>
      <trkpt lat="47.38393" lon="0.69201">
        <ele>47.24</ele>
        <time>2013-09-29T04:38:07Z</time>
      </trkpt>
      <trkpt lat="47.38383" lon="0.69367">
        <ele>45.8</ele>
        <time>2013-09-29T04:38:22Z</time>
      </trkpt>
      <trkpt lat="47.38368" lon="0.69506">
        <ele>45.8</ele>
        <time>2013-09-29T04:38:38Z</time>
      </trkpt>
      <trkpt lat="47.38356" lon="0.69599">
        <ele>46.28</ele>
        <time>2013-09-29T04:38:50Z</time>
      </trkpt>
      <trkpt lat="47.38341" lon="0.69617">
        <ele>46.28</ele>
        <time>2013-09-29T04:38:54Z</time>
      </trkpt>
      <trkpt lat="47.38321" lon="0.69626">
        <ele>46.28</ele>
        <time>2013-09-29T04:38:59Z</time>
      </trkpt>
      <trkpt lat="47.38318" lon="0.69627">
        <ele>45.8</ele>
        <time>2013-09-29T04:39:01Z</time>
      </trkpt>
      <trkpt lat="47.38316" lon="0.69618">
        <ele>46.28</ele>
        <time>2013-09-29T04:39:05Z</time>
      </trkpt>
      <trkpt lat="47.38326" lon="0.696">
        <ele>46.28</ele>
        <time>2013-09-29T04:39:11Z</time>
      </trkpt>
      <trkpt lat="47.38328" lon="0.69588">
        <ele>46.76</ele>
        <time>2013-09-29T04:39:19Z</time>
      </trkpt>
      <trkpt lat="47.38318" lon="0.69599">
        <ele>46.28</ele>
        <time>2013-09-29T04:39:28Z</time>
      </trkpt>
      <trkpt lat="47.38312" lon="0.69604">
        <ele>46.28</ele>
        <time>2013-09-29T04:39:41Z</time>
      </trkpt>
      <trkpt lat="47.38312" lon="0.69604">
        <ele>46.28</ele>
        <time>2013-09-29T04:40:06Z</time>
      </trkpt>
      <trkpt lat="47.38311" lon="0.69605">
        <ele>45.8</ele>
        <time>2013-09-29T04:40:14Z</time>
      </trkpt>
      <trkpt lat="47.38292" lon="0.69662">
        <ele>45.32</ele>
        <time>2013-09-29T05:10:40Z</time>
      </trkpt>
      <trkpt lat="47.38297" lon="0.69657">
        <ele>45.32</ele>
        <time>2013-09-29T05:10:41Z</time>
      </trkpt>
      <trkpt lat="47.38309" lon="0.69648">
        <ele>48.68</ele>
        <time>2013-09-29T05:10:47Z</time>
      </trkpt>
      <trkpt lat="47.38311" lon="0.69643">
        <ele>52.05</ele>
        <time>2013-09-29T05:10:50Z</time>
      </trkpt>
      <trkpt lat="47.38313" lon="0.69633">
        <ele>55.41</ele>
        <time>2013-09-29T05:10:55Z</time>
      </trkpt>
      <trkpt lat="47.38312" lon="0.69633">
        <ele>58.78</ele>
        <time>2013-09-29T05:11:02Z</time>
      </trkpt>
      <trkpt lat="47.38311" lon="0.69636">
        <ele>60.7</ele>
        <time>2013-09-29T05:11:08Z</time>
      </trkpt>
      <trkpt lat="47.38313" lon="0.69635">
        <ele>64.07</ele>
        <time>2013-09-29T05:11:17Z</time>
      </trkpt>
      <trkpt lat="47.38314" lon="0.6963">
        <ele>66.95</ele>
        <time>2013-09-29T05:11:32Z</time>
      </trkpt>
      <trkpt lat="47.38318" lon="0.69621">
        <ele>67.91</ele>
        <time>2013-09-29T05:11:59Z</time>
      </trkpt>
      <trkpt lat="47.3832" lon="0.6962">
        <ele>67.91</ele>
        <time>2013-09-29T05:12:15Z</time>
      </trkpt>
      <trkpt lat="47.38319" lon="0.69619">
        <ele>67.91</ele>
        <time>2013-09-29T05:12:42Z</time>
      </trkpt>
      <trkpt lat="47.3832" lon="0.69619">
        <ele>67.43</ele>
        <time>2013-09-29T05:13:12Z</time>
      </trkpt>
      <trkpt lat="47.3832" lon="0.69618">
        <ele>67.91</ele>
        <time>2013-09-29T05:13:43Z</time>
      </trkpt>
      <trkpt lat="47.3832" lon="0.69618">
        <ele>67.91</ele>
        <time>2013-09-29T05:14:04Z</time>
      </trkpt>
      <trkpt lat="47.3832" lon="0.69617">
        <ele>67.91</ele>
        <time>2013-09-29T05:14:37Z</time>
      </trkpt>
      <trkpt lat="47.3832" lon="0.69616">
        <ele>67.91</ele>
        <time>2013-09-29T05:15:08Z</time>
      </trkpt>
      <trkpt lat="47.3832" lon="0.69616">
        <ele>67.91</ele>
        <time>2013-09-29T05:15:32Z</time>
      </trkpt>
      <trkpt lat="47.3832" lon="0.69616">
        <ele>67.91</ele>
        <time>2013-09-29T05:16:04Z</time>
      </trkpt>
      <trkpt lat="47.3832" lon="0.69615">
        <ele>67.43</ele>
        <time>2013-09-29T05:16:30Z</time>
      </trkpt>
      <trkpt lat="47.3832" lon="0.69615">
        <ele>67.43</ele>
        <time>2013-09-29T05:16:53Z</time>
      </trkpt>
      <trkpt lat="47.3832" lon="0.69614">
        <ele>67.43</ele>
        <time>2013-09-29T05:17:20Z</time>
      </trkpt>
      <trkpt lat="47.38319" lon="0.69614">
        <ele>67.43</ele>
        <time>2013-09-29T05:17:44Z</time>
      </trkpt>
      <trkpt lat="47.38319" lon="0.69614">
        <ele>66.95</ele>
        <time>2013-09-29T05:18:10Z</time>
      </trkpt>
      <trkpt lat="47.3832" lon="0.69613">
        <ele>67.43</ele>
        <time>2013-09-29T05:18:32Z</time>
      </trkpt>
      <trkpt lat="47.3832" lon="0.69613">
        <ele>67.43</ele>
        <time>2013-09-29T05:18:51Z</time>
      </trkpt>
      <trkpt lat="47.3832" lon="0.69613">
        <ele>66.95</ele>
        <time>2013-09-29T05:19:16Z</time>
      </trkpt>
      <trkpt lat="47.38318" lon="0.69613">
        <ele>66.95</ele>
        <time>2013-09-29T05:19:36Z</time>
      </trkpt>
      <trkpt lat="47.38293" lon="0.69618">
        <ele>66.47</ele>
        <time>2013-09-29T05:19:51Z</time>
      </trkpt>
      <trkpt lat="47.38293" lon="0.69618">
        <ele>66.47</ele>
        <time>2013-09-29T05:20:03Z</time>
      </trkpt>
      <trkpt lat="47.38295" lon="0.69626">
        <ele>66.47</ele>
        <time>2013-09-29T05:20:07Z</time>
      </trkpt>
      <trkpt lat="47.38293" lon="0.69636">
        <ele>66.95</ele>
        <time>2013-09-29T05:20:10Z</time>
      </trkpt>
      <trkpt lat="47.38239" lon="0.69662">
        <ele>67.43</ele>
        <time>2013-09-29T05:20:23Z</time>
      </trkpt>
      <trkpt lat="47.38142" lon="0.69703">
        <ele>66.95</ele>
        <time>2013-09-29T05:20:43Z</time>
      </trkpt>
      <trkpt lat="47.38084" lon="0.69731">
        <ele>66.47</ele>
        <time>2013-09-29T05:20:58Z</time>
      </trkpt>
      <trkpt lat="47.38075" lon="0.69734">
        <ele>66.47</ele>
        <time>2013-09-29T05:21:07Z</time>
      </trkpt>
      <trkpt lat="47.38066" lon="0.69738">
        <ele>66.47</ele>
        <time>2013-09-29T05:21:12Z</time>
      </trkpt>
      <trkpt lat="47.38044" lon="0.69745">
        <ele>66.95</ele>
        <time>2013-09-29T05:21:19Z</time>
      </trkpt>
      <trkpt lat="47.38037" lon="0.69725">
        <ele>66.95</ele>
        <time>2013-09-29T05:21:23Z</time>
      </trkpt>
      <trkpt lat="47.38018" lon="0.69595">
        <ele>67.91</ele>
        <time>2013-09-29T05:21:43Z</time>
      </trkpt>
      <trkpt lat="47.37996" lon="0.69469">
        <ele>68.87</ele>
        <time>2013-09-29T05:22:03Z</time>
      </trkpt>
      <trkpt lat="47.37981" lon="0.69374">
        <ele>68.39</ele>
        <time>2013-09-29T05:22:19Z</time>
      </trkpt>
      <trkpt lat="47.37977" lon="0.69351">
        <ele>68.39</ele>
        <time>2013-09-29T05:22:31Z</time>
      </trkpt>
      <trkpt lat="47.37977" lon="0.69349">
        <ele>68.39</ele>
        <time>2013-09-29T05:22:33Z</time>
      </trkpt>
      <trkpt lat="47.37979" lon="0.69337">
        <ele>68.39</ele>
        <time>2013-09-29T05:22:37Z</time>
      </trkpt>
      <trkpt lat="47.37985" lon="0.69286">
        <ele>68.39</ele>
        <time>2013-09-29T05:22:49Z</time>
      </trkpt>
      <trkpt lat="47.37974" lon="0.69271">
        <ele>68.39</ele>
        <time>2013-09-29T05:23:02Z</time>
      </trkpt>
      <trkpt lat="47.37974" lon="0.69271">
        <ele>67.91</ele>
        <time>2013-09-29T05:23:30Z</time>
      </trkpt>
      <trkpt lat="47.37974" lon="0.69272">
        <ele>67.43</ele>
        <time>2013-09-29T05:23:52Z</time>
      </trkpt>
      <trkpt lat="47.37974" lon="0.69272">
        <ele>66.95</ele>
        <time>2013-09-29T05:24:08Z</time>
      </trkpt>
      <trkpt lat="47.37943" lon="0.69218">
        <ele>65.99</ele>
        <time>2013-09-29T05:24:19Z</time>
      </trkpt>
      <trkpt lat="47.37893" lon="0.69127">
        <ele>65.03</ele>
        <time>2013-09-29T05:24:33Z</time>
      </trkpt>
      <trkpt lat="47.37831" lon="0.69013">
        <ele>64.07</ele>
        <time>2013-09-29T05:24:51Z</time>
      </trkpt>
      <trkpt lat="47.37817" lon="0.68989">
        <ele>64.55</ele>
        <time>2013-09-29T05:24:55Z</time>
      </trkpt>
      <trkpt lat="47.37767" lon="0.68903">
        <ele>64.07</ele>
        <time>2013-09-29T05:25:09Z</time>
      </trkpt>
      <trkpt lat="47.37708" lon="0.68806">
        <ele>64.07</ele>
        <time>2013-09-29T05:25:25Z</time>
      </trkpt>
      <trkpt lat="47.37672" lon="0.68743">
        <ele>64.07</ele>
        <time>2013-09-29T05:25:35Z</time>
      </trkpt>
      <trkpt lat="47.37606" lon="0.68632">
        <ele>63.58</ele>
        <time>2013-09-29T05:25:52Z</time>
      </trkpt>
      <trkpt lat="47.3759" lon="0.68606">
        <ele>63.58</ele>
        <time>2013-09-29T05:25:56Z</time>
      </trkpt>
      <trkpt lat="47.37566" lon="0.68565">
        <ele>63.1</ele>
        <time>2013-09-29T05:26:03Z</time>
      </trkpt>
      <trkpt lat="47.37557" lon="0.68532">
        <ele>63.1</ele>
        <time>2013-09-29T05:26:09Z</time>
      </trkpt>
      <trkpt lat="47.37544" lon="0.68426">
        <ele>63.1</ele>
        <time>2013-09-29T05:26:23Z</time>
      </trkpt>
      <trkpt lat="47.37536" lon="0.6836">
        <ele>63.1</ele>
        <time>2013-09-29T05:26:31Z</time>
      </trkpt>
      <trkpt lat="47.37532" lon="0.68312">
        <ele>62.62</ele>
        <time>2013-09-29T05:26:37Z</time>
      </trkpt>
      <trkpt lat="47.3754" lon="0.68184">
        <ele>62.14</ele>
        <time>2013-09-29T05:26:52Z</time>
      </trkpt>
      <trkpt lat="47.37545" lon="0.68126">
        <ele>62.62</ele>
        <time>2013-09-29T05:26:59Z</time>
      </trkpt>
      <trkpt lat="47.37549" lon="0.68094">
        <ele>62.62</ele>
        <time>2013-09-29T05:27:03Z</time>
      </trkpt>
      <trkpt lat="47.37565" lon="0.67994">
        <ele>65.03</ele>
        <time>2013-09-29T05:27:17Z</time>
      </trkpt>
      <trkpt lat="47.37574" lon="0.67939">
        <ele>67.43</ele>
        <time>2013-09-29T05:27:29Z</time>
      </trkpt>
      <trkpt lat="47.37575" lon="0.67937">
        <ele>67.43</ele>
        <time>2013-09-29T05:27:44Z</time>
      </trkpt>
      <trkpt lat="47.37576" lon="0.67932">
        <ele>66.95</ele>
        <time>2013-09-29T05:28:08Z</time>
      </trkpt>
      <trkpt lat="47.37558" lon="0.67904">
        <ele>68.87</ele>
        <time>2013-09-29T05:28:18Z</time>
      </trkpt>
      <trkpt lat="47.37486" lon="0.67885">
        <ele>65.51</ele>
        <time>2013-09-29T05:28:31Z</time>
      </trkpt>
      <trkpt lat="47.37447" lon="0.67876">
        <ele>64.07</ele>
        <time>2013-09-29T05:28:36Z</time>
      </trkpt>
      <trkpt lat="47.37384" lon="0.67849">
        <ele>65.03</ele>
        <time>2013-09-29T05:28:46Z</time>
      </trkpt>
      <trkpt lat="47.37363" lon="0.67848">
        <ele>65.51</ele>
        <time>2013-09-29T05:28:50Z</time>
      </trkpt>
      <trkpt lat="47.37351" lon="0.6785">
        <ele>65.51</ele>
        <time>2013-09-29T05:28:52Z</time>
      </trkpt>
      <trkpt lat="47.37277" lon="0.67822">
        <ele>66.47</ele>
        <time>2013-09-29T05:29:06Z</time>
      </trkpt>
      <trkpt lat="47.37211" lon="0.67793">
        <ele>66.47</ele>
        <time>2013-09-29T05:29:22Z</time>
      </trkpt>
      <trkpt lat="47.37159" lon="0.67768">
        <ele>65.03</ele>
        <time>2013-09-29T05:29:34Z</time>
      </trkpt>
      <trkpt lat="47.37067" lon="0.6773">
        <ele>62.62</ele>
        <time>2013-09-29T05:29:49Z</time>
      </trkpt>
      <trkpt lat="47.37049" lon="0.67713">
        <ele>62.62</ele>
        <time>2013-09-29T05:29:53Z</time>
      </trkpt>
      <trkpt lat="47.3703" lon="0.67705">
        <ele>62.62</ele>
        <time>2013-09-29T05:29:57Z</time>
      </trkpt>
      <trkpt lat="47.37003" lon="0.67703">
        <ele>62.14</ele>
        <time>2013-09-29T05:30:02Z</time>
      </trkpt>
      <trkpt lat="47.36977" lon="0.6769">
        <ele>62.14</ele>
        <time>2013-09-29T05:30:07Z</time>
      </trkpt>
      <trkpt lat="47.36959" lon="0.6768">
        <ele>61.66</ele>
        <time>2013-09-29T05:30:11Z</time>
      </trkpt>
      <trkpt lat="47.36882" lon="0.67644">
        <ele>61.66</ele>
        <time>2013-09-29T05:30:25Z</time>
      </trkpt>
      <trkpt lat="47.36805" lon="0.6761">
        <ele>62.14</ele>
        <time>2013-09-29T05:30:39Z</time>
      </trkpt>
      <trkpt lat="47.36768" lon="0.67605">
        <ele>62.14</ele>
        <time>2013-09-29T05:30:46Z</time>
      </trkpt>
      <trkpt lat="47.36688" lon="0.67573">
        <ele>61.66</ele>
        <time>2013-09-29T05:31:02Z</time>
      </trkpt>
      <trkpt lat="47.36582" lon="0.67527">
        <ele>62.14</ele>
        <time>2013-09-29T05:31:21Z</time>
      </trkpt>
      <trkpt lat="47.36549" lon="0.6751">
        <ele>62.62</ele>
        <time>2013-09-29T05:31:27Z</time>
      </trkpt>
      <trkpt lat="47.3654" lon="0.67501">
        <ele>62.14</ele>
        <time>2013-09-29T05:31:29Z</time>
      </trkpt>
      <trkpt lat="47.36488" lon="0.67483">
        <ele>62.62</ele>
        <time>2013-09-29T05:31:39Z</time>
      </trkpt>
      <trkpt lat="47.36393" lon="0.67447">
        <ele>62.14</ele>
        <time>2013-09-29T05:31:56Z</time>
      </trkpt>
      <trkpt lat="47.36291" lon="0.67407">
        <ele>61.18</ele>
        <time>2013-09-29T05:32:13Z</time>
      </trkpt>
      <trkpt lat="47.36224" lon="0.67377">
        <ele>61.18</ele>
        <time>2013-09-29T05:32:24Z</time>
      </trkpt>
      <trkpt lat="47.36165" lon="0.67298">
        <ele>61.66</ele>
        <time>2013-09-29T05:32:38Z</time>
      </trkpt>
      <trkpt lat="47.36105" lon="0.67205">
        <ele>63.58</ele>
        <time>2013-09-29T05:32:54Z</time>
      </trkpt>
      <trkpt lat="47.36039" lon="0.67097">
        <ele>65.51</ele>
        <time>2013-09-29T05:33:13Z</time>
      </trkpt>
      <trkpt lat="47.36009" lon="0.66995">
        <ele>66.95</ele>
        <time>2013-09-29T05:33:28Z</time>
      </trkpt>
      <trkpt lat="47.3597" lon="0.6689">
        <ele>67.91</ele>
        <time>2013-09-29T05:33:44Z</time>
      </trkpt>
      <trkpt lat="47.35935" lon="0.66854">
        <ele>69.35</ele>
        <time>2013-09-29T05:33:56Z</time>
      </trkpt>
      <trkpt lat="47.35934" lon="0.66854">
        <ele>69.35</ele>
        <time>2013-09-29T05:34:13Z</time>
      </trkpt>
      <trkpt lat="47.35914" lon="0.66846">
        <ele>70.79</ele>
        <time>2013-09-29T05:34:21Z</time>
      </trkpt>
      <trkpt lat="47.35865" lon="0.66825">
        <ele>74.16</ele>
        <time>2013-09-29T05:34:37Z</time>
      </trkpt>
      <trkpt lat="47.35821" lon="0.66807">
        <ele>77.52</ele>
        <time>2013-09-29T05:34:51Z</time>
      </trkpt>
      <trkpt lat="47.3577" lon="0.6679">
        <ele>80.41</ele>
        <time>2013-09-29T05:35:04Z</time>
      </trkpt>
      <trkpt lat="47.35685" lon="0.66758">
        <ele>82.33</ele>
        <time>2013-09-29T05:35:25Z</time>
      </trkpt>
      <trkpt lat="47.35592" lon="0.66722">
        <ele>80.89</ele>
        <time>2013-09-29T05:35:42Z</time>
      </trkpt>
      <trkpt lat="47.35495" lon="0.66685">
        <ele>81.85</ele>
        <time>2013-09-29T05:36:00Z</time>
      </trkpt>
      <trkpt lat="47.35451" lon="0.66662">
        <ele>83.29</ele>
        <time>2013-09-29T05:36:10Z</time>
      </trkpt>
      <trkpt lat="47.3539" lon="0.66624">
        <ele>84.25</ele>
        <time>2013-09-29T05:36:25Z</time>
      </trkpt>
      <trkpt lat="47.35344" lon="0.66584">
        <ele>85.21</ele>
        <time>2013-09-29T05:36:36Z</time>
      </trkpt>
      <trkpt lat="47.35311" lon="0.66554">
        <ele>86.66</ele>
        <time>2013-09-29T05:36:44Z</time>
      </trkpt>
      <trkpt lat="47.35287" lon="0.66534">
        <ele>87.62</ele>
        <time>2013-09-29T05:36:50Z</time>
      </trkpt>
      <trkpt lat="47.35233" lon="0.66521">
        <ele>90.98</ele>
        <time>2013-09-29T05:37:03Z</time>
      </trkpt>
      <trkpt lat="47.35188" lon="0.66517">
        <ele>94.35</ele>
        <time>2013-09-29T05:37:14Z</time>
      </trkpt>
      <trkpt lat="47.35124" lon="0.66519">
        <ele>95.79</ele>
        <time>2013-09-29T05:37:29Z</time>
      </trkpt>
      <trkpt lat="47.35046" lon="0.66519">
        <ele>93.87</ele>
        <time>2013-09-29T05:37:43Z</time>
      </trkpt>
      <trkpt lat="47.3496" lon="0.66514">
        <ele>94.35</ele>
        <time>2013-09-29T05:37:59Z</time>
      </trkpt>
      <trkpt lat="47.34911" lon="0.66502">
        <ele>94.83</ele>
        <time>2013-09-29T05:38:09Z</time>
      </trkpt>
      <trkpt lat="47.34887" lon="0.66508">
        <ele>94.83</ele>
        <time>2013-09-29T05:38:14Z</time>
      </trkpt>
      <trkpt lat="47.348" lon="0.66522">
        <ele>94.83</ele>
        <time>2013-09-29T05:38:29Z</time>
      </trkpt>
      <trkpt lat="47.3476" lon="0.66525">
        <ele>95.79</ele>
        <time>2013-09-29T05:38:36Z</time>
      </trkpt>
      <trkpt lat="47.34728" lon="0.66535">
        <ele>96.75</ele>
        <time>2013-09-29T05:38:42Z</time>
      </trkpt>
      <trkpt lat="47.34635" lon="0.66562">
        <ele>98.19</ele>
        <time>2013-09-29T05:38:59Z</time>
      </trkpt>
      <trkpt lat="47.34559" lon="0.66541">
        <ele>97.23</ele>
        <time>2013-09-29T05:39:12Z</time>
      </trkpt>
      <trkpt lat="47.34464" lon="0.6649">
        <ele>98.67</ele>
        <time>2013-09-29T05:39:30Z</time>
      </trkpt>
      <trkpt lat="47.34418" lon="0.6645">
        <ele>99.15</ele>
        <time>2013-09-29T05:39:40Z</time>
      </trkpt>
      <trkpt lat="47.34361" lon="0.6638">
        <ele>100.11</ele>
        <time>2013-09-29T05:39:54Z</time>
      </trkpt>
      <trkpt lat="47.34288" lon="0.66381">
        <ele>99.63</ele>
        <time>2013-09-29T05:40:07Z</time>
      </trkpt>
      <trkpt lat="47.3419" lon="0.66387">
        <ele>100.6</ele>
        <time>2013-09-29T05:40:24Z</time>
      </trkpt>
      <trkpt lat="47.34085" lon="0.66403">
        <ele>100.6</ele>
        <time>2013-09-29T05:40:42Z</time>
      </trkpt>
      <trkpt lat="47.33971" lon="0.66449">
        <ele>100.11</ele>
        <time>2013-09-29T05:41:02Z</time>
      </trkpt>
      <trkpt lat="47.33924" lon="0.66466">
        <ele>100.11</ele>
        <time>2013-09-29T05:41:10Z</time>
      </trkpt>
      <trkpt lat="47.3388" lon="0.66461">
        <ele>100.11</ele>
        <time>2013-09-29T05:41:18Z</time>
      </trkpt>
      <trkpt lat="47.3387" lon="0.66467">
        <ele>100.6</ele>
        <time>2013-09-29T05:41:20Z</time>
      </trkpt>
      <trkpt lat="47.33807" lon="0.66477">
        <ele>101.56</ele>
        <time>2013-09-29T05:41:31Z</time>
      </trkpt>
      <trkpt lat="47.33698" lon="0.66488">
        <ele>102.04</ele>
        <time>2013-09-29T05:41:50Z</time>
      </trkpt>
      <trkpt lat="47.33605" lon="0.66494">
        <ele>102.04</ele>
        <time>2013-09-29T05:42:06Z</time>
      </trkpt>
      <trkpt lat="47.33503" lon="0.66481">
        <ele>102.52</ele>
        <time>2013-09-29T05:42:23Z</time>
      </trkpt>
      <trkpt lat="47.33375" lon="0.6646">
        <ele>102.04</ele>
        <time>2013-09-29T05:42:44Z</time>
      </trkpt>
      <trkpt lat="47.33273" lon="0.66442">
        <ele>102.52</ele>
        <time>2013-09-29T05:43:01Z</time>
      </trkpt>
      <trkpt lat="47.33174" lon="0.66425">
        <ele>102.52</ele>
        <time>2013-09-29T05:43:19Z</time>
      </trkpt>
      <trkpt lat="47.33078" lon="0.66423">
        <ele>102.04</ele>
        <time>2013-09-29T05:43:35Z</time>
      </trkpt>
      <trkpt lat="47.32968" lon="0.66408">
        <ele>102.04</ele>
        <time>2013-09-29T05:43:53Z</time>
      </trkpt>
      <trkpt lat="47.32876" lon="0.66364">
        <ele>101.56</ele>
        <time>2013-09-29T05:44:09Z</time>
      </trkpt>
      <trkpt lat="47.32772" lon="0.66304">
        <ele>101.56</ele>
        <time>2013-09-29T05:44:27Z</time>
      </trkpt>
      <trkpt lat="47.32649" lon="0.66277">
        <ele>101.56</ele>
        <time>2013-09-29T05:44:47Z</time>
      </trkpt>
      <trkpt lat="47.32502" lon="0.66257">
        <ele>101.56</ele>
        <time>2013-09-29T05:45:11Z</time>
      </trkpt>
      <trkpt lat="47.32378" lon="0.66235">
        <ele>100.6</ele>
        <time>2013-09-29T05:45:31Z</time>
      </trkpt>
      <trkpt lat="47.32334" lon="0.66215">
        <ele>101.56</ele>
        <time>2013-09-29T05:45:39Z</time>
      </trkpt>
      <trkpt lat="47.32318" lon="0.66195">
        <ele>101.08</ele>
        <time>2013-09-29T05:45:43Z</time>
      </trkpt>
      <trkpt lat="47.32285" lon="0.6618">
        <ele>101.56</ele>
        <time>2013-09-29T05:45:49Z</time>
      </trkpt>
      <trkpt lat="47.32163" lon="0.66104">
        <ele>100.6</ele>
        <time>2013-09-29T05:46:11Z</time>
      </trkpt>
      <trkpt lat="47.32046" lon="0.66036">
        <ele>98.67</ele>
        <time>2013-09-29T05:46:29Z</time>
      </trkpt>
      <trkpt lat="47.31971" lon="0.65993">
        <ele>95.31</ele>
        <time>2013-09-29T05:46:39Z</time>
      </trkpt>
      <trkpt lat="47.3184" lon="0.65909">
        <ele>94.83</ele>
        <time>2013-09-29T05:46:58Z</time>
      </trkpt>
      <trkpt lat="47.31725" lon="0.6583">
        <ele>96.75</ele>
        <time>2013-09-29T05:47:19Z</time>
      </trkpt>
      <trkpt lat="47.31617" lon="0.65766">
        <ele>98.67</ele>
        <time>2013-09-29T05:47:40Z</time>
      </trkpt>
      <trkpt lat="47.31575" lon="0.65748">
        <ele>98.67</ele>
        <time>2013-09-29T05:47:48Z</time>
      </trkpt>
      <trkpt lat="47.31541" lon="0.65712">
        <ele>98.67</ele>
        <time>2013-09-29T05:47:57Z</time>
      </trkpt>
      <trkpt lat="47.31537" lon="0.65713">
        <ele>98.67</ele>
        <time>2013-09-29T05:47:58Z</time>
      </trkpt>
      <trkpt lat="47.31527" lon="0.65716">
        <ele>98.19</ele>
        <time>2013-09-29T05:48:00Z</time>
      </trkpt>
      <trkpt lat="47.31471" lon="0.65695">
        <ele>96.75</ele>
        <time>2013-09-29T05:48:11Z</time>
      </trkpt>
      <trkpt lat="47.31387" lon="0.65634">
        <ele>93.39</ele>
        <time>2013-09-29T05:48:25Z</time>
      </trkpt>
      <trkpt lat="47.31328" lon="0.6558">
        <ele>90.98</ele>
        <time>2013-09-29T05:48:34Z</time>
      </trkpt>
      <trkpt lat="47.31228" lon="0.65457">
        <ele>88.58</ele>
        <time>2013-09-29T05:48:50Z</time>
      </trkpt>
      <trkpt lat="47.31161" lon="0.65381">
        <ele>90.5</ele>
        <time>2013-09-29T05:49:06Z</time>
      </trkpt>
      <trkpt lat="47.31089" lon="0.65331">
        <ele>92.42</ele>
        <time>2013-09-29T05:49:22Z</time>
      </trkpt>
      <trkpt lat="47.30978" lon="0.6527">
        <ele>93.87</ele>
        <time>2013-09-29T05:49:44Z</time>
      </trkpt>
      <trkpt lat="47.30901" lon="0.65211">
        <ele>92.9</ele>
        <time>2013-09-29T05:49:59Z</time>
      </trkpt>
      <trkpt lat="47.30808" lon="0.65118">
        <ele>91.94</ele>
        <time>2013-09-29T05:50:17Z</time>
      </trkpt>
      <trkpt lat="47.30691" lon="0.65033">
        <ele>90.5</ele>
        <time>2013-09-29T05:50:37Z</time>
      </trkpt>
      <trkpt lat="47.30551" lon="0.64973">
        <ele>88.1</ele>
        <time>2013-09-29T05:50:59Z</time>
      </trkpt>
      <trkpt lat="47.30487" lon="0.64931">
        <ele>84.73</ele>
        <time>2013-09-29T05:51:09Z</time>
      </trkpt>
      <trkpt lat="47.30422" lon="0.64867">
        <ele>81.37</ele>
        <time>2013-09-29T05:51:19Z</time>
      </trkpt>
      <trkpt lat="47.30386" lon="0.64832">
        <ele>78.48</ele>
        <time>2013-09-29T05:51:24Z</time>
      </trkpt>
      <trkpt lat="47.30275" lon="0.64723">
        <ele>76.56</ele>
        <time>2013-09-29T05:51:40Z</time>
      </trkpt>
      <trkpt lat="47.30212" lon="0.64667">
        <ele>79.45</ele>
        <time>2013-09-29T05:51:54Z</time>
      </trkpt>
      <trkpt lat="47.3014" lon="0.64615">
        <ele>82.81</ele>
        <time>2013-09-29T05:52:11Z</time>
      </trkpt>
      <trkpt lat="47.30059" lon="0.64557">
        <ele>84.25</ele>
        <time>2013-09-29T05:52:30Z</time>
      </trkpt>
      <trkpt lat="47.29969" lon="0.64484">
        <ele>83.29</ele>
        <time>2013-09-29T05:52:49Z</time>
      </trkpt>
      <trkpt lat="47.29868" lon="0.64368">
        <ele>81.37</ele>
        <time>2013-09-29T05:53:11Z</time>
      </trkpt>
      <trkpt lat="47.29762" lon="0.64243">
        <ele>79.93</ele>
        <time>2013-09-29T05:53:34Z</time>
      </trkpt>
      <trkpt lat="47.29656" lon="0.64154">
        <ele>79.45</ele>
        <time>2013-09-29T05:53:55Z</time>
      </trkpt>
      <trkpt lat="47.2964" lon="0.64143">
        <ele>79.45</ele>
        <time>2013-09-29T05:53:58Z</time>
      </trkpt>
      <trkpt lat="47.29623" lon="0.6412">
        <ele>78.97</ele>
        <time>2013-09-29T05:54:02Z</time>
      </trkpt>
      <trkpt lat="47.29588" lon="0.64111">
        <ele>78.48</ele>
        <time>2013-09-29T05:54:09Z</time>
      </trkpt>
      <trkpt lat="47.29575" lon="0.64108">
        <ele>78</ele>
        <time>2013-09-29T05:54:11Z</time>
      </trkpt>
      <trkpt lat="47.29467" lon="0.64047">
        <ele>77.04</ele>
        <time>2013-09-29T05:54:30Z</time>
      </trkpt>
      <trkpt lat="47.29366" lon="0.63991">
        <ele>75.6</ele>
        <time>2013-09-29T05:54:48Z</time>
      </trkpt>
      <trkpt lat="47.29253" lon="0.6393">
        <ele>75.12</ele>
        <time>2013-09-29T05:55:08Z</time>
      </trkpt>
      <trkpt lat="47.29154" lon="0.63878">
        <ele>76.08</ele>
        <time>2013-09-29T05:55:27Z</time>
      </trkpt>
      <trkpt lat="47.29067" lon="0.6383">
        <ele>76.08</ele>
        <time>2013-09-29T05:55:44Z</time>
      </trkpt>
      <trkpt lat="47.28961" lon="0.63772">
        <ele>74.16</ele>
        <time>2013-09-29T05:56:04Z</time>
      </trkpt>
      <trkpt lat="47.28871" lon="0.63723">
        <ele>72.72</ele>
        <time>2013-09-29T05:56:21Z</time>
      </trkpt>
      <trkpt lat="47.28788" lon="0.63673">
        <ele>71.27</ele>
        <time>2013-09-29T05:56:38Z</time>
      </trkpt>
      <trkpt lat="47.28696" lon="0.63593">
        <ele>70.31</ele>
        <time>2013-09-29T05:56:55Z</time>
      </trkpt>
      <trkpt lat="47.28599" lon="0.63489">
        <ele>68.39</ele>
        <time>2013-09-29T05:57:13Z</time>
      </trkpt>
      <trkpt lat="47.28532" lon="0.63404">
        <ele>66.95</ele>
        <time>2013-09-29T05:57:27Z</time>
      </trkpt>
      <trkpt lat="47.28477" lon="0.63298">
        <ele>64.07</ele>
        <time>2013-09-29T05:57:40Z</time>
      </trkpt>
      <trkpt lat="47.28427" lon="0.63199">
        <ele>60.7</ele>
        <time>2013-09-29T05:57:50Z</time>
      </trkpt>
      <trkpt lat="47.28352" lon="0.63062">
        <ele>59.74</ele>
        <time>2013-09-29T05:58:05Z</time>
      </trkpt>
      <trkpt lat="47.28308" lon="0.62999">
        <ele>58.78</ele>
        <time>2013-09-29T05:58:15Z</time>
      </trkpt>
      <trkpt lat="47.28249" lon="0.62914">
        <ele>56.86</ele>
        <time>2013-09-29T05:58:28Z</time>
      </trkpt>
      <trkpt lat="47.28174" lon="0.62804">
        <ele>54.93</ele>
        <time>2013-09-29T05:58:43Z</time>
      </trkpt>
      <trkpt lat="47.28136" lon="0.62753">
        <ele>53.97</ele>
        <time>2013-09-29T05:58:51Z</time>
      </trkpt>
      <trkpt lat="47.28132" lon="0.62709">
        <ele>53.01</ele>
        <time>2013-09-29T05:58:57Z</time>
      </trkpt>
      <trkpt lat="47.28171" lon="0.6258">
        <ele>53.49</ele>
        <time>2013-09-29T05:59:13Z</time>
      </trkpt>
      <trkpt lat="47.28225" lon="0.62463">
        <ele>53.01</ele>
        <time>2013-09-29T05:59:30Z</time>
      </trkpt>
      <trkpt lat="47.28286" lon="0.62361">
        <ele>53.01</ele>
        <time>2013-09-29T05:59:46Z</time>
      </trkpt>
      <trkpt lat="47.2831" lon="0.62326">
        <ele>53.01</ele>
        <time>2013-09-29T05:59:52Z</time>
      </trkpt>
      <trkpt lat="47.28381" lon="0.62215">
        <ele>52.53</ele>
        <time>2013-09-29T06:00:10Z</time>
      </trkpt>
      <trkpt lat="47.28435" lon="0.62107">
        <ele>52.53</ele>
        <time>2013-09-29T06:00:26Z</time>
      </trkpt>
      <trkpt lat="47.28472" lon="0.62034">
        <ele>53.01</ele>
        <time>2013-09-29T06:00:37Z</time>
      </trkpt>
      <trkpt lat="47.28486" lon="0.62011">
        <ele>52.53</ele>
        <time>2013-09-29T06:00:41Z</time>
      </trkpt>
      <trkpt lat="47.28535" lon="0.61917">
        <ele>53.01</ele>
        <time>2013-09-29T06:00:55Z</time>
      </trkpt>
      <trkpt lat="47.28539" lon="0.6191">
        <ele>52.53</ele>
        <time>2013-09-29T06:00:56Z</time>
      </trkpt>
      <trkpt lat="47.28548" lon="0.61877">
        <ele>52.53</ele>
        <time>2013-09-29T06:01:00Z</time>
      </trkpt>
      <trkpt lat="47.28552" lon="0.61861">
        <ele>52.53</ele>
        <time>2013-09-29T06:01:02Z</time>
      </trkpt>
      <trkpt lat="47.28556" lon="0.61828">
        <ele>52.53</ele>
        <time>2013-09-29T06:01:06Z</time>
      </trkpt>
      <trkpt lat="47.28571" lon="0.61729">
        <ele>52.05</ele>
        <time>2013-09-29T06:01:18Z</time>
      </trkpt>
      <trkpt lat="47.28585" lon="0.61644">
        <ele>52.05</ele>
        <time>2013-09-29T06:01:28Z</time>
      </trkpt>
      <trkpt lat="47.28637" lon="0.615">
        <ele>52.05</ele>
        <time>2013-09-29T06:01:47Z</time>
      </trkpt>
      <trkpt lat="47.28687" lon="0.61367">
        <ele>52.05</ele>
        <time>2013-09-29T06:02:05Z</time>
      </trkpt>
      <trkpt lat="47.28709" lon="0.61299">
        <ele>53.01</ele>
        <time>2013-09-29T06:02:14Z</time>
      </trkpt>
      <trkpt lat="47.28716" lon="0.61244">
        <ele>53.49</ele>
        <time>2013-09-29T06:02:21Z</time>
      </trkpt>
      <trkpt lat="47.28709" lon="0.61205">
        <ele>53.01</ele>
        <time>2013-09-29T06:02:26Z</time>
      </trkpt>
      <trkpt lat="47.28664" lon="0.61084">
        <ele>53.49</ele>
        <time>2013-09-29T06:02:42Z</time>
      </trkpt>
      <trkpt lat="47.2865" lon="0.61053">
        <ele>53.49</ele>
        <time>2013-09-29T06:02:47Z</time>
      </trkpt>
      <trkpt lat="47.28608" lon="0.60957">
        <ele>53.49</ele>
        <time>2013-09-29T06:03:00Z</time>
      </trkpt>
      <trkpt lat="47.28558" lon="0.60843">
        <ele>52.05</ele>
        <time>2013-09-29T06:03:15Z</time>
      </trkpt>
      <trkpt lat="47.28516" lon="0.60749">
        <ele>53.01</ele>
        <time>2013-09-29T06:03:30Z</time>
      </trkpt>
      <trkpt lat="47.28473" lon="0.60678">
        <ele>53.97</ele>
        <time>2013-09-29T06:03:42Z</time>
      </trkpt>
      <trkpt lat="47.28461" lon="0.60665">
        <ele>53.97</ele>
        <time>2013-09-29T06:03:45Z</time>
      </trkpt>
      <trkpt lat="47.28441" lon="0.60645">
        <ele>53.97</ele>
        <time>2013-09-29T06:03:50Z</time>
      </trkpt>
      <trkpt lat="47.28418" lon="0.60623">
        <ele>54.45</ele>
        <time>2013-09-29T06:03:55Z</time>
      </trkpt>
      <trkpt lat="47.28358" lon="0.60573">
        <ele>54.45</ele>
        <time>2013-09-29T06:04:07Z</time>
      </trkpt>
      <trkpt lat="47.28307" lon="0.60531">
        <ele>54.45</ele>
        <time>2013-09-29T06:04:18Z</time>
      </trkpt>
      <trkpt lat="47.28236" lon="0.60472">
        <ele>54.93</ele>
        <time>2013-09-29T06:04:30Z</time>
      </trkpt>
      <trkpt lat="47.28226" lon="0.60465">
        <ele>54.93</ele>
        <time>2013-09-29T06:04:32Z</time>
      </trkpt>
      <trkpt lat="47.28145" lon="0.6043">
        <ele>53.01</ele>
        <time>2013-09-29T06:04:44Z</time>
      </trkpt>
      <trkpt lat="47.28057" lon="0.60385">
        <ele>52.53</ele>
        <time>2013-09-29T06:04:58Z</time>
      </trkpt>
      <trkpt lat="47.28051" lon="0.60382">
        <ele>52.53</ele>
        <time>2013-09-29T06:04:59Z</time>
      </trkpt>
      <trkpt lat="47.2803" lon="0.6037">
        <ele>53.01</ele>
        <time>2013-09-29T06:05:03Z</time>
      </trkpt>
      <trkpt lat="47.27935" lon="0.60314">
        <ele>53.49</ele>
        <time>2013-09-29T06:05:20Z</time>
      </trkpt>
      <trkpt lat="47.27913" lon="0.60301">
        <ele>52.53</ele>
        <time>2013-09-29T06:05:24Z</time>
      </trkpt>
      <trkpt lat="47.27847" lon="0.60274">
        <ele>52.53</ele>
        <time>2013-09-29T06:05:36Z</time>
      </trkpt>
      <trkpt lat="47.27769" lon="0.60238">
        <ele>53.01</ele>
        <time>2013-09-29T06:05:50Z</time>
      </trkpt>
      <trkpt lat="47.27684" lon="0.60199">
        <ele>53.01</ele>
        <time>2013-09-29T06:06:05Z</time>
      </trkpt>
      <trkpt lat="47.27591" lon="0.60163">
        <ele>53.01</ele>
        <time>2013-09-29T06:06:21Z</time>
      </trkpt>
      <trkpt lat="47.27515" lon="0.60115">
        <ele>53.01</ele>
        <time>2013-09-29T06:06:35Z</time>
      </trkpt>
      <trkpt lat="47.27491" lon="0.60089">
        <ele>53.01</ele>
        <time>2013-09-29T06:06:40Z</time>
      </trkpt>
      <trkpt lat="47.27473" lon="0.60059">
        <ele>53.49</ele>
        <time>2013-09-29T06:06:45Z</time>
      </trkpt>
      <trkpt lat="47.27456" lon="0.60043">
        <ele>53.49</ele>
        <time>2013-09-29T06:06:49Z</time>
      </trkpt>
      <trkpt lat="47.27404" lon="0.60023">
        <ele>53.97</ele>
        <time>2013-09-29T06:07:02Z</time>
      </trkpt>
      <trkpt lat="47.27378" lon="0.60014">
        <ele>54.45</ele>
        <time>2013-09-29T06:07:08Z</time>
      </trkpt>
      <trkpt lat="47.27353" lon="0.59993">
        <ele>54.45</ele>
        <time>2013-09-29T06:07:14Z</time>
      </trkpt>
      <trkpt lat="47.27338" lon="0.59967">
        <ele>55.41</ele>
        <time>2013-09-29T06:07:20Z</time>
      </trkpt>
      <trkpt lat="47.27332" lon="0.59912">
        <ele>58.3</ele>
        <time>2013-09-29T06:07:31Z</time>
      </trkpt>
      <trkpt lat="47.27324" lon="0.59899">
        <ele>58.3</ele>
        <time>2013-09-29T06:07:36Z</time>
      </trkpt>
      <trkpt lat="47.2731" lon="0.59882">
        <ele>57.82</ele>
        <time>2013-09-29T06:07:41Z</time>
      </trkpt>
      <trkpt lat="47.27293" lon="0.59877">
        <ele>56.86</ele>
        <time>2013-09-29T06:07:47Z</time>
      </trkpt>
      <trkpt lat="47.27238" lon="0.59949">
        <ele>53.49</ele>
        <time>2013-09-29T06:08:00Z</time>
      </trkpt>
      <trkpt lat="47.27183" lon="0.60012">
        <ele>52.53</ele>
        <time>2013-09-29T06:08:10Z</time>
      </trkpt>
      <trkpt lat="47.27152" lon="0.60032">
        <ele>52.05</ele>
        <time>2013-09-29T06:08:16Z</time>
      </trkpt>
      <trkpt lat="47.27078" lon="0.60078">
        <ele>53.01</ele>
        <time>2013-09-29T06:08:31Z</time>
      </trkpt>
      <trkpt lat="47.27003" lon="0.6012">
        <ele>53.01</ele>
        <time>2013-09-29T06:08:45Z</time>
      </trkpt>
      <trkpt lat="47.26939" lon="0.60157">
        <ele>53.97</ele>
        <time>2013-09-29T06:08:58Z</time>
      </trkpt>
      <trkpt lat="47.26925" lon="0.60165">
        <ele>53.49</ele>
        <time>2013-09-29T06:09:01Z</time>
      </trkpt>
      <trkpt lat="47.26907" lon="0.60189">
        <ele>53.01</ele>
        <time>2013-09-29T06:09:06Z</time>
      </trkpt>
      <trkpt lat="47.26902" lon="0.60199">
        <ele>52.53</ele>
        <time>2013-09-29T06:09:08Z</time>
      </trkpt>
      <trkpt lat="47.26872" lon="0.60203">
        <ele>52.05</ele>
        <time>2013-09-29T06:09:16Z</time>
      </trkpt>
      <trkpt lat="47.26798" lon="0.60108">
        <ele>52.05</ele>
        <time>2013-09-29T06:09:33Z</time>
      </trkpt>
      <trkpt lat="47.26772" lon="0.60079">
        <ele>53.01</ele>
        <time>2013-09-29T06:09:39Z</time>
      </trkpt>
      <trkpt lat="47.26724" lon="0.60012">
        <ele>52.53</ele>
        <time>2013-09-29T06:09:51Z</time>
      </trkpt>
      <trkpt lat="47.26685" lon="0.59963">
        <ele>52.05</ele>
        <time>2013-09-29T06:10:00Z</time>
      </trkpt>
      <trkpt lat="47.26663" lon="0.59951">
        <ele>51.57</ele>
        <time>2013-09-29T06:10:04Z</time>
      </trkpt>
      <trkpt lat="47.26644" lon="0.59948">
        <ele>51.57</ele>
        <time>2013-09-29T06:10:08Z</time>
      </trkpt>
      <trkpt lat="47.26635" lon="0.59953">
        <ele>52.05</ele>
        <time>2013-09-29T06:10:09Z</time>
      </trkpt>
      <trkpt lat="47.2656" lon="0.59996">
        <ele>52.53</ele>
        <time>2013-09-29T06:10:24Z</time>
      </trkpt>
      <trkpt lat="47.26552" lon="0.60003">
        <ele>53.01</ele>
        <time>2013-09-29T06:10:26Z</time>
      </trkpt>
      <trkpt lat="47.2651" lon="0.60075">
        <ele>53.97</ele>
        <time>2013-09-29T06:10:38Z</time>
      </trkpt>
      <trkpt lat="47.26501" lon="0.60096">
        <ele>54.45</ele>
        <time>2013-09-29T06:10:41Z</time>
      </trkpt>
      <trkpt lat="47.26495" lon="0.60129">
        <ele>54.45</ele>
        <time>2013-09-29T06:10:45Z</time>
      </trkpt>
      <trkpt lat="47.26505" lon="0.60256">
        <ele>53.49</ele>
        <time>2013-09-29T06:11:00Z</time>
      </trkpt>
      <trkpt lat="47.26511" lon="0.60383">
        <ele>54.45</ele>
        <time>2013-09-29T06:11:15Z</time>
      </trkpt>
      <trkpt lat="47.26524" lon="0.60444">
        <ele>54.93</ele>
        <time>2013-09-29T06:11:23Z</time>
      </trkpt>
      <trkpt lat="47.26553" lon="0.60524">
        <ele>54.93</ele>
        <time>2013-09-29T06:11:34Z</time>
      </trkpt>
      <trkpt lat="47.2656" lon="0.60558">
        <ele>54.93</ele>
        <time>2013-09-29T06:11:38Z</time>
      </trkpt>
      <trkpt lat="47.2657" lon="0.60658">
        <ele>55.41</ele>
        <time>2013-09-29T06:11:50Z</time>
      </trkpt>
      <trkpt lat="47.26573" lon="0.60706">
        <ele>55.89</ele>
        <time>2013-09-29T06:11:56Z</time>
      </trkpt>
      <trkpt lat="47.26571" lon="0.60729">
        <ele>56.37</ele>
        <time>2013-09-29T06:11:59Z</time>
      </trkpt>
      <trkpt lat="47.2654" lon="0.60854">
        <ele>56.86</ele>
        <time>2013-09-29T06:12:15Z</time>
      </trkpt>
      <trkpt lat="47.26511" lon="0.60899">
        <ele>57.82</ele>
        <time>2013-09-29T06:12:23Z</time>
      </trkpt>
      <trkpt lat="47.26503" lon="0.60907">
        <ele>58.3</ele>
        <time>2013-09-29T06:12:25Z</time>
      </trkpt>
      <trkpt lat="47.26482" lon="0.609">
        <ele>58.78</ele>
        <time>2013-09-29T06:12:30Z</time>
      </trkpt>
      <trkpt lat="47.26412" lon="0.60818">
        <ele>56.86</ele>
        <time>2013-09-29T06:12:45Z</time>
      </trkpt>
      <trkpt lat="47.2633" lon="0.60764">
        <ele>58.3</ele>
        <time>2013-09-29T06:13:01Z</time>
      </trkpt>
      <trkpt lat="47.26248" lon="0.60715">
        <ele>59.74</ele>
        <time>2013-09-29T06:13:18Z</time>
      </trkpt>
      <trkpt lat="47.26154" lon="0.60666">
        <ele>60.22</ele>
        <time>2013-09-29T06:13:36Z</time>
      </trkpt>
      <trkpt lat="47.26077" lon="0.60672">
        <ele>59.74</ele>
        <time>2013-09-29T06:13:50Z</time>
      </trkpt>
      <trkpt lat="47.25983" lon="0.60701">
        <ele>61.66</ele>
        <time>2013-09-29T06:14:08Z</time>
      </trkpt>
      <trkpt lat="47.2592" lon="0.60728">
        <ele>64.55</ele>
        <time>2013-09-29T06:14:22Z</time>
      </trkpt>
      <trkpt lat="47.25892" lon="0.60741">
        <ele>65.99</ele>
        <time>2013-09-29T06:14:29Z</time>
      </trkpt>
      <trkpt lat="47.25861" lon="0.60756">
        <ele>67.91</ele>
        <time>2013-09-29T06:14:37Z</time>
      </trkpt>
      <trkpt lat="47.25808" lon="0.60781">
        <ele>71.27</ele>
        <time>2013-09-29T06:14:51Z</time>
      </trkpt>
      <trkpt lat="47.25757" lon="0.60807">
        <ele>74.16</ele>
        <time>2013-09-29T06:15:05Z</time>
      </trkpt>
      <trkpt lat="47.25688" lon="0.60839">
        <ele>77.04</ele>
        <time>2013-09-29T06:15:23Z</time>
      </trkpt>
      <trkpt lat="47.25655" lon="0.60846">
        <ele>78</ele>
        <time>2013-09-29T06:15:31Z</time>
      </trkpt>
      <trkpt lat="47.25571" lon="0.60842">
        <ele>80.89</ele>
        <time>2013-09-29T06:15:51Z</time>
      </trkpt>
      <trkpt lat="47.25487" lon="0.60834">
        <ele>83.77</ele>
        <time>2013-09-29T06:16:11Z</time>
      </trkpt>
      <trkpt lat="47.25447" lon="0.60831">
        <ele>85.21</ele>
        <time>2013-09-29T06:16:21Z</time>
      </trkpt>
      <trkpt lat="47.25391" lon="0.60818">
        <ele>87.62</ele>
        <time>2013-09-29T06:16:34Z</time>
      </trkpt>
      <trkpt lat="47.25338" lon="0.60801">
        <ele>89.06</ele>
        <time>2013-09-29T06:16:46Z</time>
      </trkpt>
      <trkpt lat="47.25248" lon="0.60811">
        <ele>90.5</ele>
        <time>2013-09-29T06:17:05Z</time>
      </trkpt>
      <trkpt lat="47.25174" lon="0.60853">
        <ele>90.98</ele>
        <time>2013-09-29T06:17:20Z</time>
      </trkpt>
      <trkpt lat="47.25116" lon="0.60863">
        <ele>90.02</ele>
        <time>2013-09-29T06:17:30Z</time>
      </trkpt>
      <trkpt lat="47.25026" lon="0.60913">
        <ele>90.5</ele>
        <time>2013-09-29T06:17:47Z</time>
      </trkpt>
      <trkpt lat="47.24931" lon="0.6096">
        <ele>91.94</ele>
        <time>2013-09-29T06:18:06Z</time>
      </trkpt>
      <trkpt lat="47.24839" lon="0.61025">
        <ele>93.87</ele>
        <time>2013-09-29T06:18:26Z</time>
      </trkpt>
      <trkpt lat="47.24764" lon="0.61099">
        <ele>93.87</ele>
        <time>2013-09-29T06:18:43Z</time>
      </trkpt>
      <trkpt lat="47.24674" lon="0.61138">
        <ele>95.31</ele>
        <time>2013-09-29T06:19:02Z</time>
      </trkpt>
      <trkpt lat="47.24593" lon="0.61152">
        <ele>97.23</ele>
        <time>2013-09-29T06:19:19Z</time>
      </trkpt>
      <trkpt lat="47.24557" lon="0.6116">
        <ele>97.71</ele>
        <time>2013-09-29T06:19:26Z</time>
      </trkpt>
      <trkpt lat="47.24536" lon="0.61173">
        <ele>97.23</ele>
        <time>2013-09-29T06:19:30Z</time>
      </trkpt>
      <trkpt lat="47.24458" lon="0.61196">
        <ele>95.31</ele>
        <time>2013-09-29T06:19:43Z</time>
      </trkpt>
      <trkpt lat="47.2437" lon="0.61221">
        <ele>93.87</ele>
        <time>2013-09-29T06:19:57Z</time>
      </trkpt>
      <trkpt lat="47.2427" lon="0.6126">
        <ele>94.35</ele>
        <time>2013-09-29T06:20:15Z</time>
      </trkpt>
      <trkpt lat="47.24223" lon="0.6128">
        <ele>96.27</ele>
        <time>2013-09-29T06:20:27Z</time>
      </trkpt>
      <trkpt lat="47.24196" lon="0.61315">
        <ele>97.23</ele>
        <time>2013-09-29T06:20:37Z</time>
      </trkpt>
      <trkpt lat="47.24131" lon="0.61404">
        <ele>98.67</ele>
        <time>2013-09-29T06:20:55Z</time>
      </trkpt>
      <trkpt lat="47.24065" lon="0.61464">
        <ele>99.63</ele>
        <time>2013-09-29T06:21:10Z</time>
      </trkpt>
      <trkpt lat="47.23979" lon="0.61517">
        <ele>101.08</ele>
        <time>2013-09-29T06:21:28Z</time>
      </trkpt>
      <trkpt lat="47.23902" lon="0.61588">
        <ele>100.6</ele>
        <time>2013-09-29T06:21:45Z</time>
      </trkpt>
      <trkpt lat="47.23829" lon="0.6169">
        <ele>101.08</ele>
        <time>2013-09-29T06:22:03Z</time>
      </trkpt>
      <trkpt lat="47.23784" lon="0.61824">
        <ele>101.08</ele>
        <time>2013-09-29T06:22:21Z</time>
      </trkpt>
      <trkpt lat="47.23781" lon="0.61831">
        <ele>101.56</ele>
        <time>2013-09-29T06:22:22Z</time>
      </trkpt>
      <trkpt lat="47.2376" lon="0.61853">
        <ele>101.08</ele>
        <time>2013-09-29T06:22:27Z</time>
      </trkpt>
      <trkpt lat="47.23675" lon="0.61911">
        <ele>100.11</ele>
        <time>2013-09-29T06:22:43Z</time>
      </trkpt>
      <trkpt lat="47.23608" lon="0.6197">
        <ele>100.11</ele>
        <time>2013-09-29T06:22:57Z</time>
      </trkpt>
      <trkpt lat="47.23529" lon="0.61999">
        <ele>100.11</ele>
        <time>2013-09-29T06:23:11Z</time>
      </trkpt>
      <trkpt lat="47.23413" lon="0.62016">
        <ele>100.6</ele>
        <time>2013-09-29T06:23:31Z</time>
      </trkpt>
      <trkpt lat="47.23331" lon="0.62031">
        <ele>101.08</ele>
        <time>2013-09-29T06:23:48Z</time>
      </trkpt>
      <trkpt lat="47.23223" lon="0.62029">
        <ele>100.6</ele>
        <time>2013-09-29T06:24:07Z</time>
      </trkpt>
      <trkpt lat="47.23107" lon="0.6201">
        <ele>102.04</ele>
        <time>2013-09-29T06:24:28Z</time>
      </trkpt>
      <trkpt lat="47.23008" lon="0.6199">
        <ele>103.48</ele>
        <time>2013-09-29T06:24:46Z</time>
      </trkpt>
      <trkpt lat="47.22898" lon="0.61981">
        <ele>103.48</ele>
        <time>2013-09-29T06:25:05Z</time>
      </trkpt>
      <trkpt lat="47.22804" lon="0.61941">
        <ele>102.52</ele>
        <time>2013-09-29T06:25:21Z</time>
      </trkpt>
      <trkpt lat="47.22704" lon="0.6191">
        <ele>103</ele>
        <time>2013-09-29T06:25:38Z</time>
      </trkpt>
      <trkpt lat="47.22606" lon="0.61882">
        <ele>103.48</ele>
        <time>2013-09-29T06:25:55Z</time>
      </trkpt>
      <trkpt lat="47.22502" lon="0.61861">
        <ele>103.48</ele>
        <time>2013-09-29T06:26:13Z</time>
      </trkpt>
      <trkpt lat="47.22409" lon="0.61864">
        <ele>103.48</ele>
        <time>2013-09-29T06:26:29Z</time>
      </trkpt>
      <trkpt lat="47.22308" lon="0.61875">
        <ele>104.92</ele>
        <time>2013-09-29T06:26:47Z</time>
      </trkpt>
      <trkpt lat="47.22217" lon="0.61884">
        <ele>104.92</ele>
        <time>2013-09-29T06:27:04Z</time>
      </trkpt>
      <trkpt lat="47.22179" lon="0.61886">
        <ele>104.92</ele>
        <time>2013-09-29T06:27:15Z</time>
      </trkpt>
      <trkpt lat="47.221" lon="0.61894">
        <ele>105.88</ele>
        <time>2013-09-29T06:27:30Z</time>
      </trkpt>
      <trkpt lat="47.21969" lon="0.61904">
        <ele>105.4</ele>
        <time>2013-09-29T06:27:52Z</time>
      </trkpt>
      <trkpt lat="47.21846" lon="0.61911">
        <ele>105.4</ele>
        <time>2013-09-29T06:28:13Z</time>
      </trkpt>
      <trkpt lat="47.21734" lon="0.61916">
        <ele>105.4</ele>
        <time>2013-09-29T06:28:32Z</time>
      </trkpt>
      <trkpt lat="47.21643" lon="0.61895">
        <ele>106.36</ele>
        <time>2013-09-29T06:28:48Z</time>
      </trkpt>
      <trkpt lat="47.21557" lon="0.61876">
        <ele>106.36</ele>
        <time>2013-09-29T06:29:03Z</time>
      </trkpt>
      <trkpt lat="47.21457" lon="0.61849">
        <ele>106.36</ele>
        <time>2013-09-29T06:29:20Z</time>
      </trkpt>
      <trkpt lat="47.21412" lon="0.6183">
        <ele>106.36</ele>
        <time>2013-09-29T06:29:28Z</time>
      </trkpt>
      <trkpt lat="47.21367" lon="0.61866">
        <ele>106.84</ele>
        <time>2013-09-29T06:29:37Z</time>
      </trkpt>
      <trkpt lat="47.21319" lon="0.61985">
        <ele>107.32</ele>
        <time>2013-09-29T06:29:53Z</time>
      </trkpt>
      <trkpt lat="47.21245" lon="0.62079">
        <ele>107.81</ele>
        <time>2013-09-29T06:30:10Z</time>
      </trkpt>
      <trkpt lat="47.21191" lon="0.62187">
        <ele>107.81</ele>
        <time>2013-09-29T06:30:26Z</time>
      </trkpt>
      <trkpt lat="47.21143" lon="0.62337">
        <ele>108.29</ele>
        <time>2013-09-29T06:30:45Z</time>
      </trkpt>
      <trkpt lat="47.21131" lon="0.624">
        <ele>107.81</ele>
        <time>2013-09-29T06:30:52Z</time>
      </trkpt>
      <trkpt lat="47.21093" lon="0.62443">
        <ele>107.32</ele>
        <time>2013-09-29T06:31:00Z</time>
      </trkpt>
      <trkpt lat="47.20984" lon="0.62459">
        <ele>107.81</ele>
        <time>2013-09-29T06:31:18Z</time>
      </trkpt>
      <trkpt lat="47.2087" lon="0.62498">
        <ele>108.77</ele>
        <time>2013-09-29T06:31:38Z</time>
      </trkpt>
      <trkpt lat="47.20813" lon="0.62527">
        <ele>109.25</ele>
        <time>2013-09-29T06:31:50Z</time>
      </trkpt>
      <trkpt lat="47.20784" lon="0.62574">
        <ele>109.73</ele>
        <time>2013-09-29T06:31:59Z</time>
      </trkpt>
      <trkpt lat="47.20756" lon="0.62596">
        <ele>109.73</ele>
        <time>2013-09-29T06:32:06Z</time>
      </trkpt>
      <trkpt lat="47.20746" lon="0.62596">
        <ele>109.25</ele>
        <time>2013-09-29T06:32:08Z</time>
      </trkpt>
      <trkpt lat="47.20729" lon="0.62595">
        <ele>109.73</ele>
        <time>2013-09-29T06:32:11Z</time>
      </trkpt>
      <trkpt lat="47.20644" lon="0.62554">
        <ele>109.73</ele>
        <time>2013-09-29T06:32:27Z</time>
      </trkpt>
      <trkpt lat="47.20572" lon="0.62513">
        <ele>109.73</ele>
        <time>2013-09-29T06:32:42Z</time>
      </trkpt>
      <trkpt lat="47.20521" lon="0.62483">
        <ele>109.73</ele>
        <time>2013-09-29T06:32:55Z</time>
      </trkpt>
      <trkpt lat="47.20513" lon="0.62489">
        <ele>110.21</ele>
        <time>2013-09-29T06:32:59Z</time>
      </trkpt>
      <trkpt lat="47.20477" lon="0.62599">
        <ele>110.21</ele>
        <time>2013-09-29T06:33:15Z</time>
      </trkpt>
      <trkpt lat="47.20434" lon="0.6273">
        <ele>110.21</ele>
        <time>2013-09-29T06:33:32Z</time>
      </trkpt>
      <trkpt lat="47.20384" lon="0.62883">
        <ele>110.21</ele>
        <time>2013-09-29T06:33:51Z</time>
      </trkpt>
      <trkpt lat="47.20337" lon="0.63026">
        <ele>109.73</ele>
        <time>2013-09-29T06:34:09Z</time>
      </trkpt>
      <trkpt lat="47.2031" lon="0.63101">
        <ele>109.73</ele>
        <time>2013-09-29T06:34:19Z</time>
      </trkpt>
      <trkpt lat="47.20267" lon="0.63125">
        <ele>109.25</ele>
        <time>2013-09-29T06:34:27Z</time>
      </trkpt>
      <trkpt lat="47.20152" lon="0.63117">
        <ele>110.21</ele>
        <time>2013-09-29T06:34:47Z</time>
      </trkpt>
      <trkpt lat="47.20112" lon="0.63141">
        <ele>110.69</ele>
        <time>2013-09-29T06:34:55Z</time>
      </trkpt>
      <trkpt lat="47.20103" lon="0.63161">
        <ele>111.17</ele>
        <time>2013-09-29T06:34:58Z</time>
      </trkpt>
      <trkpt lat="47.20076" lon="0.63177">
        <ele>111.17</ele>
        <time>2013-09-29T06:35:04Z</time>
      </trkpt>
      <trkpt lat="47.20043" lon="0.63163">
        <ele>111.65</ele>
        <time>2013-09-29T06:35:10Z</time>
      </trkpt>
      <trkpt lat="47.19998" lon="0.63119">
        <ele>112.13</ele>
        <time>2013-09-29T06:35:20Z</time>
      </trkpt>
      <trkpt lat="47.19972" lon="0.63108">
        <ele>113.09</ele>
        <time>2013-09-29T06:35:25Z</time>
      </trkpt>
      <trkpt lat="47.19925" lon="0.63106">
        <ele>112.61</ele>
        <time>2013-09-29T06:35:33Z</time>
      </trkpt>
      <trkpt lat="47.19907" lon="0.63101">
        <ele>113.09</ele>
        <time>2013-09-29T06:35:36Z</time>
      </trkpt>
      <trkpt lat="47.19849" lon="0.63052">
        <ele>113.57</ele>
        <time>2013-09-29T06:35:48Z</time>
      </trkpt>
      <trkpt lat="47.19832" lon="0.62989">
        <ele>114.53</ele>
        <time>2013-09-29T06:35:57Z</time>
      </trkpt>
      <trkpt lat="47.19847" lon="0.62909">
        <ele>114.53</ele>
        <time>2013-09-29T06:36:07Z</time>
      </trkpt>
      <trkpt lat="47.1987" lon="0.62807">
        <ele>115.01</ele>
        <time>2013-09-29T06:36:20Z</time>
      </trkpt>
      <trkpt lat="47.19893" lon="0.62705">
        <ele>114.05</ele>
        <time>2013-09-29T06:36:32Z</time>
      </trkpt>
      <trkpt lat="47.19899" lon="0.62667">
        <ele>114.05</ele>
        <time>2013-09-29T06:36:36Z</time>
      </trkpt>
      <trkpt lat="47.19908" lon="0.62546">
        <ele>113.09</ele>
        <time>2013-09-29T06:36:49Z</time>
      </trkpt>
      <trkpt lat="47.1992" lon="0.62391">
        <ele>112.61</ele>
        <time>2013-09-29T06:37:06Z</time>
      </trkpt>
      <trkpt lat="47.1992" lon="0.62382">
        <ele>112.61</ele>
        <time>2013-09-29T06:37:07Z</time>
      </trkpt>
      <trkpt lat="47.19918" lon="0.62365">
        <ele>112.13</ele>
        <time>2013-09-29T06:37:09Z</time>
      </trkpt>
      <trkpt lat="47.19904" lon="0.62339">
        <ele>112.61</ele>
        <time>2013-09-29T06:37:13Z</time>
      </trkpt>
      <trkpt lat="47.19807" lon="0.62273">
        <ele>112.13</ele>
        <time>2013-09-29T06:37:30Z</time>
      </trkpt>
      <trkpt lat="47.19726" lon="0.62217">
        <ele>112.13</ele>
        <time>2013-09-29T06:37:45Z</time>
      </trkpt>
      <trkpt lat="47.19721" lon="0.62213">
        <ele>112.61</ele>
        <time>2013-09-29T06:37:46Z</time>
      </trkpt>
      <trkpt lat="47.197" lon="0.62182">
        <ele>112.61</ele>
        <time>2013-09-29T06:37:51Z</time>
      </trkpt>
      <trkpt lat="47.1964" lon="0.62038">
        <ele>112.13</ele>
        <time>2013-09-29T06:38:10Z</time>
      </trkpt>
      <trkpt lat="47.19556" lon="0.61926">
        <ele>112.61</ele>
        <time>2013-09-29T06:38:29Z</time>
      </trkpt>
      <trkpt lat="47.19471" lon="0.61833">
        <ele>112.13</ele>
        <time>2013-09-29T06:38:47Z</time>
      </trkpt>
      <trkpt lat="47.19361" lon="0.61715">
        <ele>113.09</ele>
        <time>2013-09-29T06:39:10Z</time>
      </trkpt>
      <trkpt lat="47.1927" lon="0.61616">
        <ele>114.05</ele>
        <time>2013-09-29T06:39:29Z</time>
      </trkpt>
      <trkpt lat="47.19159" lon="0.61494">
        <ele>113.57</ele>
        <time>2013-09-29T06:39:52Z</time>
      </trkpt>
      <trkpt lat="47.19064" lon="0.61387">
        <ele>113.57</ele>
        <time>2013-09-29T06:40:12Z</time>
      </trkpt>
      <trkpt lat="47.1898" lon="0.61295">
        <ele>113.09</ele>
        <time>2013-09-29T06:40:29Z</time>
      </trkpt>
      <trkpt lat="47.18884" lon="0.61205">
        <ele>113.09</ele>
        <time>2013-09-29T06:40:48Z</time>
      </trkpt>
      <trkpt lat="47.18781" lon="0.6111">
        <ele>112.13</ele>
        <time>2013-09-29T06:41:08Z</time>
      </trkpt>
      <trkpt lat="47.18689" lon="0.61026">
        <ele>112.61</ele>
        <time>2013-09-29T06:41:26Z</time>
      </trkpt>
      <trkpt lat="47.18586" lon="0.60925">
        <ele>113.57</ele>
        <time>2013-09-29T06:41:47Z</time>
      </trkpt>
      <trkpt lat="47.1854" lon="0.60824">
        <ele>113.09</ele>
        <time>2013-09-29T06:42:01Z</time>
      </trkpt>
      <trkpt lat="47.18531" lon="0.60697">
        <ele>112.61</ele>
        <time>2013-09-29T06:42:15Z</time>
      </trkpt>
      <trkpt lat="47.18554" lon="0.60498">
        <ele>112.61</ele>
        <time>2013-09-29T06:42:37Z</time>
      </trkpt>
      <trkpt lat="47.18568" lon="0.60356">
        <ele>112.61</ele>
        <time>2013-09-29T06:42:53Z</time>
      </trkpt>
      <trkpt lat="47.18581" lon="0.60211">
        <ele>113.09</ele>
        <time>2013-09-29T06:43:09Z</time>
      </trkpt>
      <trkpt lat="47.18558" lon="0.60087">
        <ele>113.09</ele>
        <time>2013-09-29T06:43:23Z</time>
      </trkpt>
      <trkpt lat="47.18529" lon="0.60041">
        <ele>113.09</ele>
        <time>2013-09-29T06:43:30Z</time>
      </trkpt>
      <trkpt lat="47.18436" lon="0.5997">
        <ele>113.09</ele>
        <time>2013-09-29T06:43:47Z</time>
      </trkpt>
      <trkpt lat="47.18341" lon="0.59907">
        <ele>112.61</ele>
        <time>2013-09-29T06:44:04Z</time>
      </trkpt>
      <trkpt lat="47.1823" lon="0.59833">
        <ele>114.05</ele>
        <time>2013-09-29T06:44:24Z</time>
      </trkpt>
      <trkpt lat="47.18118" lon="0.59759">
        <ele>114.05</ele>
        <time>2013-09-29T06:44:44Z</time>
      </trkpt>
      <trkpt lat="47.18002" lon="0.59681">
        <ele>113.57</ele>
        <time>2013-09-29T06:45:04Z</time>
      </trkpt>
      <trkpt lat="47.17887" lon="0.59605">
        <ele>112.13</ele>
        <time>2013-09-29T06:45:24Z</time>
      </trkpt>
      <trkpt lat="47.1776" lon="0.5952">
        <ele>112.13</ele>
        <time>2013-09-29T06:45:46Z</time>
      </trkpt>
      <trkpt lat="47.17642" lon="0.59443">
        <ele>112.61</ele>
        <time>2013-09-29T06:46:07Z</time>
      </trkpt>
      <trkpt lat="47.17526" lon="0.59366">
        <ele>112.61</ele>
        <time>2013-09-29T06:46:28Z</time>
      </trkpt>
      <trkpt lat="47.1741" lon="0.59289">
        <ele>113.57</ele>
        <time>2013-09-29T06:46:49Z</time>
      </trkpt>
      <trkpt lat="47.17297" lon="0.59215">
        <ele>113.09</ele>
        <time>2013-09-29T06:47:09Z</time>
      </trkpt>
      <trkpt lat="47.17214" lon="0.59134">
        <ele>112.61</ele>
        <time>2013-09-29T06:47:25Z</time>
      </trkpt>
      <trkpt lat="47.17146" lon="0.5901">
        <ele>111.17</ele>
        <time>2013-09-29T06:47:42Z</time>
      </trkpt>
      <trkpt lat="47.17078" lon="0.58886">
        <ele>111.17</ele>
        <time>2013-09-29T06:47:59Z</time>
      </trkpt>
      <trkpt lat="47.16993" lon="0.5873">
        <ele>108.29</ele>
        <time>2013-09-29T06:48:20Z</time>
      </trkpt>
      <trkpt lat="47.16933" lon="0.58619">
        <ele>107.32</ele>
        <time>2013-09-29T06:48:35Z</time>
      </trkpt>
      <trkpt lat="47.1685" lon="0.58468">
        <ele>106.84</ele>
        <time>2013-09-29T06:48:56Z</time>
      </trkpt>
      <trkpt lat="47.16767" lon="0.58338">
        <ele>106.36</ele>
        <time>2013-09-29T06:49:15Z</time>
      </trkpt>
      <trkpt lat="47.16697" lon="0.58276">
        <ele>104.44</ele>
        <time>2013-09-29T06:49:28Z</time>
      </trkpt>
      <trkpt lat="47.16649" lon="0.58246">
        <ele>102.04</ele>
        <time>2013-09-29T06:49:35Z</time>
      </trkpt>
      <trkpt lat="47.16605" lon="0.58219">
        <ele>99.63</ele>
        <time>2013-09-29T06:49:41Z</time>
      </trkpt>
      <trkpt lat="47.16534" lon="0.58165">
        <ele>96.75</ele>
        <time>2013-09-29T06:49:50Z</time>
      </trkpt>
      <trkpt lat="47.16527" lon="0.58157">
        <ele>96.75</ele>
        <time>2013-09-29T06:49:51Z</time>
      </trkpt>
      <trkpt lat="47.1648" lon="0.58094">
        <ele>93.39</ele>
        <time>2013-09-29T06:49:58Z</time>
      </trkpt>
      <trkpt lat="47.16431" lon="0.58029">
        <ele>90.02</ele>
        <time>2013-09-29T06:50:05Z</time>
      </trkpt>
      <trkpt lat="47.16425" lon="0.58019">
        <ele>90.02</ele>
        <time>2013-09-29T06:50:06Z</time>
      </trkpt>
      <trkpt lat="47.16398" lon="0.57977">
        <ele>88.1</ele>
        <time>2013-09-29T06:50:10Z</time>
      </trkpt>
      <trkpt lat="47.16373" lon="0.57911">
        <ele>85.21</ele>
        <time>2013-09-29T06:50:15Z</time>
      </trkpt>
      <trkpt lat="47.16335" lon="0.57808">
        <ele>82.33</ele>
        <time>2013-09-29T06:50:23Z</time>
      </trkpt>
      <trkpt lat="47.16256" lon="0.57708">
        <ele>79.45</ele>
        <time>2013-09-29T06:50:34Z</time>
      </trkpt>
      <trkpt lat="47.16154" lon="0.57588">
        <ele>76.56</ele>
        <time>2013-09-29T06:50:50Z</time>
      </trkpt>
      <trkpt lat="47.16056" lon="0.57517">
        <ele>74.64</ele>
        <time>2013-09-29T06:51:05Z</time>
      </trkpt>
      <trkpt lat="47.15962" lon="0.57454">
        <ele>72.24</ele>
        <time>2013-09-29T06:51:19Z</time>
      </trkpt>
      <trkpt lat="47.15898" lon="0.57359">
        <ele>72.72</ele>
        <time>2013-09-29T06:51:33Z</time>
      </trkpt>
      <trkpt lat="47.15855" lon="0.57242">
        <ele>70.79</ele>
        <time>2013-09-29T06:51:47Z</time>
      </trkpt>
      <trkpt lat="47.15807" lon="0.57095">
        <ele>69.35</ele>
        <time>2013-09-29T06:52:04Z</time>
      </trkpt>
      <trkpt lat="47.15761" lon="0.56939">
        <ele>68.87</ele>
        <time>2013-09-29T06:52:23Z</time>
      </trkpt>
      <trkpt lat="47.15754" lon="0.56851">
        <ele>68.87</ele>
        <time>2013-09-29T06:52:33Z</time>
      </trkpt>
      <trkpt lat="47.15743" lon="0.56705">
        <ele>68.39</ele>
        <time>2013-09-29T06:52:49Z</time>
      </trkpt>
      <trkpt lat="47.15698" lon="0.56588">
        <ele>70.31</ele>
        <time>2013-09-29T06:53:05Z</time>
      </trkpt>
      <trkpt lat="47.15638" lon="0.56453">
        <ele>72.72</ele>
        <time>2013-09-29T06:53:26Z</time>
      </trkpt>
      <trkpt lat="47.15591" lon="0.56341">
        <ele>69.35</ele>
        <time>2013-09-29T06:53:40Z</time>
      </trkpt>
      <trkpt lat="47.1552" lon="0.56182">
        <ele>67.91</ele>
        <time>2013-09-29T06:53:58Z</time>
      </trkpt>
      <trkpt lat="47.15448" lon="0.5609">
        <ele>70.31</ele>
        <time>2013-09-29T06:54:15Z</time>
      </trkpt>
      <trkpt lat="47.15384" lon="0.56013">
        <ele>69.83</ele>
        <time>2013-09-29T06:54:30Z</time>
      </trkpt>
      <trkpt lat="47.15292" lon="0.55891">
        <ele>67.91</ele>
        <time>2013-09-29T06:54:50Z</time>
      </trkpt>
      <trkpt lat="47.15232" lon="0.55756">
        <ele>66.95</ele>
        <time>2013-09-29T06:55:07Z</time>
      </trkpt>
      <trkpt lat="47.15162" lon="0.55581">
        <ele>64.07</ele>
        <time>2013-09-29T06:55:28Z</time>
      </trkpt>
      <trkpt lat="47.15104" lon="0.55437">
        <ele>64.07</ele>
        <time>2013-09-29T06:55:46Z</time>
      </trkpt>
      <trkpt lat="47.15075" lon="0.55376">
        <ele>65.51</ele>
        <time>2013-09-29T06:55:55Z</time>
      </trkpt>
      <trkpt lat="47.15016" lon="0.55258">
        <ele>67.91</ele>
        <time>2013-09-29T06:56:13Z</time>
      </trkpt>
      <trkpt lat="47.14953" lon="0.55134">
        <ele>69.83</ele>
        <time>2013-09-29T06:56:32Z</time>
      </trkpt>
      <trkpt lat="47.14927" lon="0.5508">
        <ele>70.31</ele>
        <time>2013-09-29T06:56:40Z</time>
      </trkpt>
      <trkpt lat="47.14871" lon="0.54975">
        <ele>68.87</ele>
        <time>2013-09-29T06:56:56Z</time>
      </trkpt>
      <trkpt lat="47.14866" lon="0.54964">
        <ele>68.87</ele>
        <time>2013-09-29T06:57:03Z</time>
      </trkpt>
      <trkpt lat="47.14866" lon="0.54965">
        <ele>68.87</ele>
        <time>2013-09-29T06:57:39Z</time>
      </trkpt>
      <trkpt lat="47.14866" lon="0.54965">
        <ele>69.35</ele>
        <time>2013-09-29T06:57:50Z</time>
      </trkpt>
      <trkpt lat="47.1486" lon="0.54951">
        <ele>68.87</ele>
        <time>2013-09-29T06:57:54Z</time>
      </trkpt>
      <trkpt lat="47.14819" lon="0.54868">
        <ele>66.47</ele>
        <time>2013-09-29T06:58:04Z</time>
      </trkpt>
      <trkpt lat="47.14769" lon="0.54727">
        <ele>63.58</ele>
        <time>2013-09-29T06:58:16Z</time>
      </trkpt>
      <trkpt lat="47.14734" lon="0.54497">
        <ele>60.7</ele>
        <time>2013-09-29T06:58:33Z</time>
      </trkpt>
      <trkpt lat="47.147" lon="0.5428">
        <ele>60.7</ele>
        <time>2013-09-29T06:58:50Z</time>
      </trkpt>
      <trkpt lat="47.14675" lon="0.54115">
        <ele>61.66</ele>
        <time>2013-09-29T06:59:05Z</time>
      </trkpt>
      <trkpt lat="47.1465" lon="0.5397">
        <ele>61.66</ele>
        <time>2013-09-29T06:59:19Z</time>
      </trkpt>
      <trkpt lat="47.14619" lon="0.53801">
        <ele>60.7</ele>
        <time>2013-09-29T06:59:35Z</time>
      </trkpt>
      <trkpt lat="47.14609" lon="0.53751">
        <ele>60.7</ele>
        <time>2013-09-29T06:59:40Z</time>
      </trkpt>
      <trkpt lat="47.14606" lon="0.53724">
        <ele>60.22</ele>
        <time>2013-09-29T06:59:44Z</time>
      </trkpt>
      <trkpt lat="47.14571" lon="0.53703">
        <ele>60.22</ele>
        <time>2013-09-29T06:59:52Z</time>
      </trkpt>
      <trkpt lat="47.14481" lon="0.53681">
        <ele>58.78</ele>
        <time>2013-09-29T07:00:06Z</time>
      </trkpt>
      <trkpt lat="47.14471" lon="0.53693">
        <ele>58.78</ele>
        <time>2013-09-29T07:00:10Z</time>
      </trkpt>
      <trkpt lat="47.14464" lon="0.53743">
        <ele>58.3</ele>
        <time>2013-09-29T07:00:19Z</time>
      </trkpt>
      <trkpt lat="47.1447" lon="0.53748">
        <ele>58.3</ele>
        <time>2013-09-29T07:00:27Z</time>
      </trkpt>
      <trkpt lat="47.1447" lon="0.53748">
        <ele>58.3</ele>
        <time>2013-09-29T07:00:46Z</time>
      </trkpt>
      <trkpt lat="47.1447" lon="0.53749">
        <ele>58.3</ele>
        <time>2013-09-29T07:01:22Z</time>
      </trkpt>
      <trkpt lat="47.1447" lon="0.53749">
        <ele>57.82</ele>
        <time>2013-09-29T07:02:04Z</time>
      </trkpt>
      <trkpt lat="47.1447" lon="0.53749">
        <ele>57.82</ele>
        <time>2013-09-29T07:02:40Z</time>
      </trkpt>
      <trkpt lat="47.1447" lon="0.53749">
        <ele>57.82</ele>
        <time>2013-09-29T07:03:29Z</time>
      </trkpt>
      <trkpt lat="47.1447" lon="0.53749">
        <ele>57.34</ele>
        <time>2013-09-29T07:03:45Z</time>
      </trkpt>
      <trkpt lat="47.1447" lon="0.53749">
        <ele>57.82</ele>
        <time>2013-09-29T07:04:25Z</time>
      </trkpt>
      <trkpt lat="47.1447" lon="0.53748">
        <ele>57.82</ele>
        <time>2013-09-29T07:05:10Z</time>
      </trkpt>
      <trkpt lat="47.1447" lon="0.53749">
        <ele>58.3</ele>
        <time>2013-09-29T07:05:52Z</time>
      </trkpt>
      <trkpt lat="47.1447" lon="0.53749">
        <ele>57.82</ele>
        <time>2013-09-29T07:06:39Z</time>
      </trkpt>
      <trkpt lat="47.1447" lon="0.53749">
        <ele>57.82</ele>
        <time>2013-09-29T07:07:18Z</time>
      </trkpt>
      <trkpt lat="47.1447" lon="0.53749">
        <ele>57.82</ele>
        <time>2013-09-29T07:08:06Z</time>
      </trkpt>
      <trkpt lat="47.1447" lon="0.53749">
        <ele>57.34</ele>
        <time>2013-09-29T07:08:48Z</time>
      </trkpt>
      <trkpt lat="47.1447" lon="0.53749">
        <ele>57.34</ele>
        <time>2013-09-29T07:09:25Z</time>
      </trkpt>
      <trkpt lat="47.1447" lon="0.53749">
        <ele>57.34</ele>
        <time>2013-09-29T07:10:07Z</time>
      </trkpt>
      <trkpt lat="47.1447" lon="0.53749">
        <ele>57.34</ele>
        <time>2013-09-29T07:10:48Z</time>
      </trkpt>
      <trkpt lat="47.1447" lon="0.53749">
        <ele>57.34</ele>
        <time>2013-09-29T07:11:12Z</time>
      </trkpt>
      <trkpt lat="47.1447" lon="0.53749">
        <ele>57.34</ele>
        <time>2013-09-29T07:11:36Z</time>
      </trkpt>
      <trkpt lat="47.14469" lon="0.53748">
        <ele>57.82</ele>
        <time>2013-09-29T07:11:53Z</time>
      </trkpt>
      <trkpt lat="47.14469" lon="0.53748">
        <ele>57.34</ele>
        <time>2013-09-29T07:12:22Z</time>
      </trkpt>
      <trkpt lat="47.1447" lon="0.53748">
        <ele>57.34</ele>
        <time>2013-09-29T07:12:47Z</time>
      </trkpt>
      <trkpt lat="47.1447" lon="0.53748">
        <ele>57.34</ele>
        <time>2013-09-29T07:13:00Z</time>
      </trkpt>
      <trkpt lat="47.14465" lon="0.5373">
        <ele>57.82</ele>
        <time>2013-09-29T07:13:09Z</time>
      </trkpt>
      <trkpt lat="47.14473" lon="0.53688">
        <ele>57.82</ele>
        <time>2013-09-29T07:13:22Z</time>
      </trkpt>
      <trkpt lat="47.14484" lon="0.53684">
        <ele>57.82</ele>
        <time>2013-09-29T07:13:26Z</time>
      </trkpt>
      <trkpt lat="47.14547" lon="0.537">
        <ele>58.3</ele>
        <time>2013-09-29T07:13:42Z</time>
      </trkpt>
      <trkpt lat="47.14563" lon="0.53656">
        <ele>59.26</ele>
        <time>2013-09-29T07:13:54Z</time>
      </trkpt>
      <trkpt lat="47.14568" lon="0.53572">
        <ele>60.7</ele>
        <time>2013-09-29T07:14:07Z</time>
      </trkpt>
      <trkpt lat="47.14568" lon="0.53565">
        <ele>61.18</ele>
        <time>2013-09-29T07:14:08Z</time>
      </trkpt>
      <trkpt lat="47.14577" lon="0.53453">
        <ele>63.1</ele>
        <time>2013-09-29T07:14:26Z</time>
      </trkpt>
      <trkpt lat="47.14576" lon="0.53325">
        <ele>66.47</ele>
        <time>2013-09-29T07:14:47Z</time>
      </trkpt>
      <trkpt lat="47.14558" lon="0.53229">
        <ele>66.95</ele>
        <time>2013-09-29T07:15:02Z</time>
      </trkpt>
      <trkpt lat="47.14554" lon="0.53178">
        <ele>66.95</ele>
        <time>2013-09-29T07:15:09Z</time>
      </trkpt>
      <trkpt lat="47.14552" lon="0.53161">
        <ele>66.47</ele>
        <time>2013-09-29T07:15:11Z</time>
      </trkpt>
      <trkpt lat="47.14544" lon="0.53128">
        <ele>65.99</ele>
        <time>2013-09-29T07:15:15Z</time>
      </trkpt>
      <trkpt lat="47.14516" lon="0.53075">
        <ele>64.55</ele>
        <time>2013-09-29T07:15:22Z</time>
      </trkpt>
      <trkpt lat="47.14492" lon="0.52957">
        <ele>64.55</ele>
        <time>2013-09-29T07:15:36Z</time>
      </trkpt>
      <trkpt lat="47.14495" lon="0.52921">
        <ele>63.58</ele>
        <time>2013-09-29T07:15:40Z</time>
      </trkpt>
      <trkpt lat="47.14537" lon="0.5281">
        <ele>63.58</ele>
        <time>2013-09-29T07:15:54Z</time>
      </trkpt>
      <trkpt lat="47.14545" lon="0.52785">
        <ele>63.58</ele>
        <time>2013-09-29T07:15:57Z</time>
      </trkpt>
      <trkpt lat="47.14547" lon="0.52767">
        <ele>63.1</ele>
        <time>2013-09-29T07:15:59Z</time>
      </trkpt>
      <trkpt lat="47.14547" lon="0.52616">
        <ele>64.07</ele>
        <time>2013-09-29T07:16:16Z</time>
      </trkpt>
      <trkpt lat="47.14549" lon="0.52592">
        <ele>64.55</ele>
        <time>2013-09-29T07:16:19Z</time>
      </trkpt>
      <trkpt lat="47.14588" lon="0.52462">
        <ele>64.55</ele>
        <time>2013-09-29T07:16:36Z</time>
      </trkpt>
      <trkpt lat="47.1459" lon="0.52454">
        <ele>64.55</ele>
        <time>2013-09-29T07:16:37Z</time>
      </trkpt>
      <trkpt lat="47.14589" lon="0.52415">
        <ele>62.62</ele>
        <time>2013-09-29T07:16:41Z</time>
      </trkpt>
      <trkpt lat="47.14581" lon="0.52358">
        <ele>60.7</ele>
        <time>2013-09-29T07:16:46Z</time>
      </trkpt>
      <trkpt lat="47.14589" lon="0.52293">
        <ele>57.34</ele>
        <time>2013-09-29T07:16:51Z</time>
      </trkpt>
      <trkpt lat="47.14595" lon="0.52282">
        <ele>56.86</ele>
        <time>2013-09-29T07:16:52Z</time>
      </trkpt>
      <trkpt lat="47.14678" lon="0.52133">
        <ele>53.97</ele>
        <time>2013-09-29T07:17:06Z</time>
      </trkpt>
      <trkpt lat="47.14738" lon="0.51996">
        <ele>53.97</ele>
        <time>2013-09-29T07:17:22Z</time>
      </trkpt>
      <trkpt lat="47.14766" lon="0.51882">
        <ele>56.86</ele>
        <time>2013-09-29T07:17:37Z</time>
      </trkpt>
      <trkpt lat="47.14758" lon="0.51792">
        <ele>59.74</ele>
        <time>2013-09-29T07:17:51Z</time>
      </trkpt>
      <trkpt lat="47.14747" lon="0.5167">
        <ele>60.7</ele>
        <time>2013-09-29T07:18:08Z</time>
      </trkpt>
      <trkpt lat="47.14747" lon="0.51557">
        <ele>63.58</ele>
        <time>2013-09-29T07:18:24Z</time>
      </trkpt>
      <trkpt lat="47.14756" lon="0.51479">
        <ele>64.07</ele>
        <time>2013-09-29T07:18:35Z</time>
      </trkpt>
      <trkpt lat="47.14786" lon="0.51403">
        <ele>60.22</ele>
        <time>2013-09-29T07:18:44Z</time>
      </trkpt>
      <trkpt lat="47.14819" lon="0.51338">
        <ele>56.86</ele>
        <time>2013-09-29T07:18:50Z</time>
      </trkpt>
      <trkpt lat="47.14836" lon="0.51303">
        <ele>55.41</ele>
        <time>2013-09-29T07:18:53Z</time>
      </trkpt>
      <trkpt lat="47.14885" lon="0.5115">
        <ele>53.01</ele>
        <time>2013-09-29T07:19:06Z</time>
      </trkpt>
      <trkpt lat="47.14912" lon="0.51051">
        <ele>53.01</ele>
        <time>2013-09-29T07:19:16Z</time>
      </trkpt>
      <trkpt lat="47.14907" lon="0.50909">
        <ele>53.49</ele>
        <time>2013-09-29T07:19:31Z</time>
      </trkpt>
      <trkpt lat="47.14875" lon="0.50741">
        <ele>52.53</ele>
        <time>2013-09-29T07:19:50Z</time>
      </trkpt>
      <trkpt lat="47.14856" lon="0.50579">
        <ele>53.01</ele>
        <time>2013-09-29T07:20:09Z</time>
      </trkpt>
      <trkpt lat="47.14843" lon="0.50404">
        <ele>53.97</ele>
        <time>2013-09-29T07:20:30Z</time>
      </trkpt>
      <trkpt lat="47.1484" lon="0.50269">
        <ele>53.97</ele>
        <time>2013-09-29T07:20:46Z</time>
      </trkpt>
      <trkpt lat="47.14856" lon="0.50224">
        <ele>53.49</ele>
        <time>2013-09-29T07:20:52Z</time>
      </trkpt>
      <trkpt lat="47.14865" lon="0.50211">
        <ele>53.49</ele>
        <time>2013-09-29T07:20:54Z</time>
      </trkpt>
      <trkpt lat="47.14882" lon="0.50151">
        <ele>52.53</ele>
        <time>2013-09-29T07:21:01Z</time>
      </trkpt>
      <trkpt lat="47.14873" lon="0.50007">
        <ele>50.61</ele>
        <time>2013-09-29T07:21:15Z</time>
      </trkpt>
      <trkpt lat="47.14856" lon="0.49899">
        <ele>51.57</ele>
        <time>2013-09-29T07:21:27Z</time>
      </trkpt>
      <trkpt lat="47.1485" lon="0.49879">
        <ele>51.57</ele>
        <time>2013-09-29T07:21:30Z</time>
      </trkpt>
      <trkpt lat="47.14861" lon="0.49863">
        <ele>53.01</ele>
        <time>2013-09-29T07:21:35Z</time>
      </trkpt>
      <trkpt lat="47.14943" lon="0.49856">
        <ele>54.93</ele>
        <time>2013-09-29T07:21:53Z</time>
      </trkpt>
      <trkpt lat="47.15035" lon="0.49856">
        <ele>56.37</ele>
        <time>2013-09-29T07:22:12Z</time>
      </trkpt>
      <trkpt lat="47.15118" lon="0.49883">
        <ele>57.82</ele>
        <time>2013-09-29T07:22:29Z</time>
      </trkpt>
      <trkpt lat="47.15183" lon="0.49933">
        <ele>58.3</ele>
        <time>2013-09-29T07:22:43Z</time>
      </trkpt>
      <trkpt lat="47.15262" lon="0.4998">
        <ele>57.34</ele>
        <time>2013-09-29T07:22:58Z</time>
      </trkpt>
      <trkpt lat="47.15356" lon="0.50028">
        <ele>57.34</ele>
        <time>2013-09-29T07:23:16Z</time>
      </trkpt>
      <trkpt lat="47.15451" lon="0.50082">
        <ele>57.34</ele>
        <time>2013-09-29T07:23:34Z</time>
      </trkpt>
      <trkpt lat="47.15541" lon="0.5014">
        <ele>57.34</ele>
        <time>2013-09-29T07:23:52Z</time>
      </trkpt>
      <trkpt lat="47.15618" lon="0.50218">
        <ele>57.34</ele>
        <time>2013-09-29T07:24:08Z</time>
      </trkpt>
      <trkpt lat="47.15685" lon="0.50301">
        <ele>59.26</ele>
        <time>2013-09-29T07:24:25Z</time>
      </trkpt>
      <trkpt lat="47.15752" lon="0.50381">
        <ele>61.18</ele>
        <time>2013-09-29T07:24:42Z</time>
      </trkpt>
      <trkpt lat="47.15824" lon="0.50465">
        <ele>62.62</ele>
        <time>2013-09-29T07:25:01Z</time>
      </trkpt>
      <trkpt lat="47.15896" lon="0.50549">
        <ele>63.58</ele>
        <time>2013-09-29T07:25:19Z</time>
      </trkpt>
      <trkpt lat="47.15962" lon="0.50635">
        <ele>64.55</ele>
        <time>2013-09-29T07:25:37Z</time>
      </trkpt>
      <trkpt lat="47.16044" lon="0.50749">
        <ele>63.58</ele>
        <time>2013-09-29T07:25:57Z</time>
      </trkpt>
      <trkpt lat="47.16127" lon="0.50857">
        <ele>63.1</ele>
        <time>2013-09-29T07:26:17Z</time>
      </trkpt>
      <trkpt lat="47.16181" lon="0.50952">
        <ele>62.62</ele>
        <time>2013-09-29T07:26:32Z</time>
      </trkpt>
      <trkpt lat="47.16214" lon="0.51106">
        <ele>62.14</ele>
        <time>2013-09-29T07:26:52Z</time>
      </trkpt>
      <trkpt lat="47.16229" lon="0.51172">
        <ele>61.66</ele>
        <time>2013-09-29T07:27:00Z</time>
      </trkpt>
      <trkpt lat="47.16239" lon="0.51196">
        <ele>61.18</ele>
        <time>2013-09-29T07:27:03Z</time>
      </trkpt>
      <trkpt lat="47.16301" lon="0.51243">
        <ele>61.18</ele>
        <time>2013-09-29T07:27:15Z</time>
      </trkpt>
      <trkpt lat="47.16332" lon="0.51253">
        <ele>62.62</ele>
        <time>2013-09-29T07:27:23Z</time>
      </trkpt>
      <trkpt lat="47.16404" lon="0.5122">
        <ele>63.1</ele>
        <time>2013-09-29T07:27:38Z</time>
      </trkpt>
      <trkpt lat="47.16504" lon="0.51195">
        <ele>63.58</ele>
        <time>2013-09-29T07:27:57Z</time>
      </trkpt>
      <trkpt lat="47.16597" lon="0.51174">
        <ele>64.55</ele>
        <time>2013-09-29T07:28:15Z</time>
      </trkpt>
      <trkpt lat="47.16684" lon="0.51154">
        <ele>66.95</ele>
        <time>2013-09-29T07:28:33Z</time>
      </trkpt>
      <trkpt lat="47.16759" lon="0.51143">
        <ele>68.39</ele>
        <time>2013-09-29T07:28:48Z</time>
      </trkpt>
      <trkpt lat="47.16842" lon="0.51161">
        <ele>69.35</ele>
        <time>2013-09-29T07:29:04Z</time>
      </trkpt>
      <trkpt lat="47.16924" lon="0.5118">
        <ele>69.83</ele>
        <time>2013-09-29T07:29:20Z</time>
      </trkpt>
      <trkpt lat="47.16974" lon="0.51186">
        <ele>70.31</ele>
        <time>2013-09-29T07:29:30Z</time>
      </trkpt>
      <trkpt lat="47.1705" lon="0.51149">
        <ele>72.72</ele>
        <time>2013-09-29T07:29:47Z</time>
      </trkpt>
      <trkpt lat="47.17116" lon="0.51125">
        <ele>75.6</ele>
        <time>2013-09-29T07:30:04Z</time>
      </trkpt>
      <trkpt lat="47.17169" lon="0.51125">
        <ele>78.97</ele>
        <time>2013-09-29T07:30:18Z</time>
      </trkpt>
      <trkpt lat="47.17221" lon="0.51144">
        <ele>81.37</ele>
        <time>2013-09-29T07:30:33Z</time>
      </trkpt>
      <trkpt lat="47.1727" lon="0.51168">
        <ele>84.73</ele>
        <time>2013-09-29T07:30:48Z</time>
      </trkpt>
      <trkpt lat="47.17324" lon="0.51171">
        <ele>87.62</ele>
        <time>2013-09-29T07:31:03Z</time>
      </trkpt>
      <trkpt lat="47.17377" lon="0.51131">
        <ele>90.5</ele>
        <time>2013-09-29T07:31:20Z</time>
      </trkpt>
      <trkpt lat="47.17427" lon="0.51083">
        <ele>93.39</ele>
        <time>2013-09-29T07:31:37Z</time>
      </trkpt>
      <trkpt lat="47.1748" lon="0.51034">
        <ele>96.75</ele>
        <time>2013-09-29T07:31:54Z</time>
      </trkpt>
      <trkpt lat="47.17551" lon="0.50969">
        <ele>98.19</ele>
        <time>2013-09-29T07:32:14Z</time>
      </trkpt>
      <trkpt lat="47.17611" lon="0.5091">
        <ele>100.11</ele>
        <time>2013-09-29T07:32:31Z</time>
      </trkpt>
      <trkpt lat="47.17655" lon="0.5087">
        <ele>103.48</ele>
        <time>2013-09-29T07:32:45Z</time>
      </trkpt>
      <trkpt lat="47.17699" lon="0.5083">
        <ele>106.36</ele>
        <time>2013-09-29T07:32:59Z</time>
      </trkpt>
      <trkpt lat="47.17753" lon="0.5078">
        <ele>109.25</ele>
        <time>2013-09-29T07:33:16Z</time>
      </trkpt>
      <trkpt lat="47.17813" lon="0.50728">
        <ele>112.61</ele>
        <time>2013-09-29T07:33:35Z</time>
      </trkpt>
      <trkpt lat="47.17876" lon="0.50694">
        <ele>114.05</ele>
        <time>2013-09-29T07:33:51Z</time>
      </trkpt>
      <trkpt lat="47.17957" lon="0.50686">
        <ele>115.01</ele>
        <time>2013-09-29T07:34:08Z</time>
      </trkpt>
      <trkpt lat="47.18046" lon="0.50718">
        <ele>115.01</ele>
        <time>2013-09-29T07:34:26Z</time>
      </trkpt>
      <trkpt lat="47.18142" lon="0.50759">
        <ele>113.57</ele>
        <time>2013-09-29T07:34:44Z</time>
      </trkpt>
      <trkpt lat="47.18229" lon="0.50795">
        <ele>114.05</ele>
        <time>2013-09-29T07:35:00Z</time>
      </trkpt>
      <trkpt lat="47.18338" lon="0.50841">
        <ele>113.09</ele>
        <time>2013-09-29T07:35:20Z</time>
      </trkpt>
      <trkpt lat="47.18456" lon="0.50891">
        <ele>112.61</ele>
        <time>2013-09-29T07:35:41Z</time>
      </trkpt>
      <trkpt lat="47.18568" lon="0.50939">
        <ele>113.57</ele>
        <time>2013-09-29T07:36:01Z</time>
      </trkpt>
      <trkpt lat="47.18668" lon="0.50982">
        <ele>113.09</ele>
        <time>2013-09-29T07:36:19Z</time>
      </trkpt>
      <trkpt lat="47.18767" lon="0.51024">
        <ele>112.13</ele>
        <time>2013-09-29T07:36:36Z</time>
      </trkpt>
      <trkpt lat="47.18864" lon="0.51062">
        <ele>113.09</ele>
        <time>2013-09-29T07:36:54Z</time>
      </trkpt>
      <trkpt lat="47.18927" lon="0.5109">
        <ele>113.57</ele>
        <time>2013-09-29T07:37:07Z</time>
      </trkpt>
      <trkpt lat="47.19023" lon="0.51133">
        <ele>112.61</ele>
        <time>2013-09-29T07:37:23Z</time>
      </trkpt>
      <trkpt lat="47.19121" lon="0.51175">
        <ele>111.65</ele>
        <time>2013-09-29T07:37:40Z</time>
      </trkpt>
      <trkpt lat="47.19208" lon="0.51212">
        <ele>111.65</ele>
        <time>2013-09-29T07:37:55Z</time>
      </trkpt>
      <trkpt lat="47.19309" lon="0.51255">
        <ele>112.13</ele>
        <time>2013-09-29T07:38:13Z</time>
      </trkpt>
      <trkpt lat="47.1941" lon="0.513">
        <ele>112.13</ele>
        <time>2013-09-29T07:38:31Z</time>
      </trkpt>
      <trkpt lat="47.19517" lon="0.51352">
        <ele>111.65</ele>
        <time>2013-09-29T07:38:50Z</time>
      </trkpt>
      <trkpt lat="47.19628" lon="0.51405">
        <ele>110.69</ele>
        <time>2013-09-29T07:39:09Z</time>
      </trkpt>
      <trkpt lat="47.19728" lon="0.51451">
        <ele>110.21</ele>
        <time>2013-09-29T07:39:26Z</time>
      </trkpt>
      <trkpt lat="47.19849" lon="0.51508">
        <ele>108.77</ele>
        <time>2013-09-29T07:39:46Z</time>
      </trkpt>
      <trkpt lat="47.19955" lon="0.51558">
        <ele>106.84</ele>
        <time>2013-09-29T07:40:03Z</time>
      </trkpt>
      <trkpt lat="47.20039" lon="0.5158">
        <ele>106.36</ele>
        <time>2013-09-29T07:40:17Z</time>
      </trkpt>
      <trkpt lat="47.20123" lon="0.51529">
        <ele>106.36</ele>
        <time>2013-09-29T07:40:32Z</time>
      </trkpt>
      <trkpt lat="47.20187" lon="0.51443">
        <ele>105.88</ele>
        <time>2013-09-29T07:40:46Z</time>
      </trkpt>
      <trkpt lat="47.20213" lon="0.51404">
        <ele>104.92</ele>
        <time>2013-09-29T07:40:52Z</time>
      </trkpt>
      <trkpt lat="47.20233" lon="0.51376">
        <ele>104.44</ele>
        <time>2013-09-29T07:40:56Z</time>
      </trkpt>
      <trkpt lat="47.2024" lon="0.51362">
        <ele>104.44</ele>
        <time>2013-09-29T07:40:58Z</time>
      </trkpt>
      <trkpt lat="47.20286" lon="0.5129">
        <ele>104.44</ele>
        <time>2013-09-29T07:41:09Z</time>
      </trkpt>
      <trkpt lat="47.20342" lon="0.51205">
        <ele>102.52</ele>
        <time>2013-09-29T07:41:21Z</time>
      </trkpt>
      <trkpt lat="47.20371" lon="0.51162">
        <ele>100.6</ele>
        <time>2013-09-29T07:41:26Z</time>
      </trkpt>
      <trkpt lat="47.20389" lon="0.51135">
        <ele>98.67</ele>
        <time>2013-09-29T07:41:29Z</time>
      </trkpt>
      <trkpt lat="47.20435" lon="0.51069">
        <ele>95.31</ele>
        <time>2013-09-29T07:41:36Z</time>
      </trkpt>
      <trkpt lat="47.20442" lon="0.51059">
        <ele>94.83</ele>
        <time>2013-09-29T07:41:37Z</time>
      </trkpt>
      <trkpt lat="47.20475" lon="0.51007">
        <ele>91.94</ele>
        <time>2013-09-29T07:41:42Z</time>
      </trkpt>
      <trkpt lat="47.20514" lon="0.50947">
        <ele>89.06</ele>
        <time>2013-09-29T07:41:48Z</time>
      </trkpt>
      <trkpt lat="47.20535" lon="0.5092">
        <ele>88.58</ele>
        <time>2013-09-29T07:41:51Z</time>
      </trkpt>
      <trkpt lat="47.20557" lon="0.50903">
        <ele>88.1</ele>
        <time>2013-09-29T07:41:54Z</time>
      </trkpt>
      <trkpt lat="47.20565" lon="0.50899">
        <ele>88.1</ele>
        <time>2013-09-29T07:41:55Z</time>
      </trkpt>
      <trkpt lat="47.20598" lon="0.50896">
        <ele>87.62</ele>
        <time>2013-09-29T07:41:58Z</time>
      </trkpt>
      <trkpt lat="47.20696" lon="0.50906">
        <ele>86.66</ele>
        <time>2013-09-29T07:42:11Z</time>
      </trkpt>
      <trkpt lat="47.20798" lon="0.50925">
        <ele>84.73</ele>
        <time>2013-09-29T07:42:24Z</time>
      </trkpt>
      <trkpt lat="47.20903" lon="0.50926">
        <ele>84.73</ele>
        <time>2013-09-29T07:42:39Z</time>
      </trkpt>
      <trkpt lat="47.21003" lon="0.50877">
        <ele>83.29</ele>
        <time>2013-09-29T07:42:54Z</time>
      </trkpt>
      <trkpt lat="47.21081" lon="0.50836">
        <ele>81.37</ele>
        <time>2013-09-29T07:43:07Z</time>
      </trkpt>
      <trkpt lat="47.21156" lon="0.50795">
        <ele>81.85</ele>
        <time>2013-09-29T07:43:19Z</time>
      </trkpt>
      <trkpt lat="47.21202" lon="0.50767">
        <ele>82.81</ele>
        <time>2013-09-29T07:43:27Z</time>
      </trkpt>
      <trkpt lat="47.21284" lon="0.50672">
        <ele>80.41</ele>
        <time>2013-09-29T07:43:42Z</time>
      </trkpt>
      <trkpt lat="47.21367" lon="0.5056">
        <ele>79.93</ele>
        <time>2013-09-29T07:43:59Z</time>
      </trkpt>
      <trkpt lat="47.21456" lon="0.50439">
        <ele>80.41</ele>
        <time>2013-09-29T07:44:18Z</time>
      </trkpt>
      <trkpt lat="47.21545" lon="0.50317">
        <ele>78.97</ele>
        <time>2013-09-29T07:44:37Z</time>
      </trkpt>
      <trkpt lat="47.21631" lon="0.502">
        <ele>77.04</ele>
        <time>2013-09-29T07:44:54Z</time>
      </trkpt>
      <trkpt lat="47.21654" lon="0.50168">
        <ele>75.12</ele>
        <time>2013-09-29T07:44:58Z</time>
      </trkpt>
      <trkpt lat="47.21724" lon="0.50082">
        <ele>75.12</ele>
        <time>2013-09-29T07:45:11Z</time>
      </trkpt>
      <trkpt lat="47.21766" lon="0.50037">
        <ele>72.24</ele>
        <time>2013-09-29T07:45:18Z</time>
      </trkpt>
      <trkpt lat="47.21774" lon="0.50031">
        <ele>72.24</ele>
        <time>2013-09-29T07:45:19Z</time>
      </trkpt>
      <trkpt lat="47.21839" lon="0.49982">
        <ele>70.31</ele>
        <time>2013-09-29T07:45:28Z</time>
      </trkpt>
      <trkpt lat="47.21852" lon="0.49975">
        <ele>70.79</ele>
        <time>2013-09-29T07:45:30Z</time>
      </trkpt>
      <trkpt lat="47.21878" lon="0.49961">
        <ele>69.83</ele>
        <time>2013-09-29T07:45:34Z</time>
      </trkpt>
      <trkpt lat="47.21985" lon="0.49922">
        <ele>69.35</ele>
        <time>2013-09-29T07:45:50Z</time>
      </trkpt>
      <trkpt lat="47.22052" lon="0.49868">
        <ele>68.39</ele>
        <time>2013-09-29T07:46:02Z</time>
      </trkpt>
      <trkpt lat="47.22105" lon="0.49789">
        <ele>67.43</ele>
        <time>2013-09-29T07:46:14Z</time>
      </trkpt>
      <trkpt lat="47.22112" lon="0.49776">
        <ele>67.43</ele>
        <time>2013-09-29T07:46:16Z</time>
      </trkpt>
      <trkpt lat="47.2212" lon="0.49732">
        <ele>66.47</ele>
        <time>2013-09-29T07:46:23Z</time>
      </trkpt>
      <trkpt lat="47.22136" lon="0.49672">
        <ele>66.95</ele>
        <time>2013-09-29T07:46:32Z</time>
      </trkpt>
      <trkpt lat="47.22154" lon="0.49643">
        <ele>66.95</ele>
        <time>2013-09-29T07:46:37Z</time>
      </trkpt>
      <trkpt lat="47.22163" lon="0.49637">
        <ele>67.43</ele>
        <time>2013-09-29T07:46:39Z</time>
      </trkpt>
      <trkpt lat="47.22184" lon="0.49634">
        <ele>67.43</ele>
        <time>2013-09-29T07:46:43Z</time>
      </trkpt>
      <trkpt lat="47.2222" lon="0.49623">
        <ele>67.91</ele>
        <time>2013-09-29T07:46:50Z</time>
      </trkpt>
      <trkpt lat="47.22284" lon="0.49625">
        <ele>66.95</ele>
        <time>2013-09-29T07:47:01Z</time>
      </trkpt>
      <trkpt lat="47.2234" lon="0.4961">
        <ele>67.43</ele>
        <time>2013-09-29T07:47:11Z</time>
      </trkpt>
      <trkpt lat="47.224" lon="0.49575">
        <ele>67.43</ele>
        <time>2013-09-29T07:47:23Z</time>
      </trkpt>
      <trkpt lat="47.22479" lon="0.49565">
        <ele>66.47</ele>
        <time>2013-09-29T07:47:36Z</time>
      </trkpt>
      <trkpt lat="47.22555" lon="0.49579">
        <ele>65.99</ele>
        <time>2013-09-29T07:47:49Z</time>
      </trkpt>
      <trkpt lat="47.22561" lon="0.49578">
        <ele>65.51</ele>
        <time>2013-09-29T07:47:50Z</time>
      </trkpt>
      <trkpt lat="47.22611" lon="0.49529">
        <ele>64.55</ele>
        <time>2013-09-29T07:47:59Z</time>
      </trkpt>
      <trkpt lat="47.22642" lon="0.49494">
        <ele>64.55</ele>
        <time>2013-09-29T07:48:05Z</time>
      </trkpt>
      <trkpt lat="47.22671" lon="0.49479">
        <ele>64.55</ele>
        <time>2013-09-29T07:48:10Z</time>
      </trkpt>
      <trkpt lat="47.22736" lon="0.49477">
        <ele>65.99</ele>
        <time>2013-09-29T07:48:23Z</time>
      </trkpt>
      <trkpt lat="47.22768" lon="0.49469">
        <ele>66.95</ele>
        <time>2013-09-29T07:48:29Z</time>
      </trkpt>
      <trkpt lat="47.2284" lon="0.49417">
        <ele>65.03</ele>
        <time>2013-09-29T07:48:42Z</time>
      </trkpt>
      <trkpt lat="47.22887" lon="0.4943">
        <ele>64.07</ele>
        <time>2013-09-29T07:48:50Z</time>
      </trkpt>
      <trkpt lat="47.22953" lon="0.49532">
        <ele>60.22</ele>
        <time>2013-09-29T07:49:04Z</time>
      </trkpt>
      <trkpt lat="47.23021" lon="0.49639">
        <ele>58.78</ele>
        <time>2013-09-29T07:49:17Z</time>
      </trkpt>
      <trkpt lat="47.231" lon="0.49761">
        <ele>59.26</ele>
        <time>2013-09-29T07:49:35Z</time>
      </trkpt>
      <trkpt lat="47.23122" lon="0.49782">
        <ele>60.7</ele>
        <time>2013-09-29T07:49:40Z</time>
      </trkpt>
      <trkpt lat="47.23139" lon="0.49789">
        <ele>61.18</ele>
        <time>2013-09-29T07:49:44Z</time>
      </trkpt>
      <trkpt lat="47.23199" lon="0.49773">
        <ele>64.55</ele>
        <time>2013-09-29T07:50:00Z</time>
      </trkpt>
      <trkpt lat="47.23245" lon="0.49748">
        <ele>67.43</ele>
        <time>2013-09-29T07:50:14Z</time>
      </trkpt>
      <trkpt lat="47.23294" lon="0.49721">
        <ele>70.31</ele>
        <time>2013-09-29T07:50:30Z</time>
      </trkpt>
      <trkpt lat="47.23333" lon="0.497">
        <ele>73.2</ele>
        <time>2013-09-29T07:50:43Z</time>
      </trkpt>
      <trkpt lat="47.23377" lon="0.49667">
        <ele>76.56</ele>
        <time>2013-09-29T07:50:58Z</time>
      </trkpt>
      <trkpt lat="47.23405" lon="0.49612">
        <ele>78</ele>
        <time>2013-09-29T07:51:12Z</time>
      </trkpt>
      <trkpt lat="47.2341" lon="0.49522">
        <ele>79.45</ele>
        <time>2013-09-29T07:51:28Z</time>
      </trkpt>
      <trkpt lat="47.23417" lon="0.49447">
        <ele>81.85</ele>
        <time>2013-09-29T07:51:43Z</time>
      </trkpt>
      <trkpt lat="47.23425" lon="0.49366">
        <ele>85.21</ele>
        <time>2013-09-29T07:51:58Z</time>
      </trkpt>
      <trkpt lat="47.23437" lon="0.49258">
        <ele>88.1</ele>
        <time>2013-09-29T07:52:18Z</time>
      </trkpt>
      <trkpt lat="47.23447" lon="0.49149">
        <ele>90.02</ele>
        <time>2013-09-29T07:52:37Z</time>
      </trkpt>
      <trkpt lat="47.23458" lon="0.49041">
        <ele>90.5</ele>
        <time>2013-09-29T07:52:54Z</time>
      </trkpt>
      <trkpt lat="47.23472" lon="0.48894">
        <ele>91.94</ele>
        <time>2013-09-29T07:53:15Z</time>
      </trkpt>
      <trkpt lat="47.23494" lon="0.4877">
        <ele>94.83</ele>
        <time>2013-09-29T07:53:35Z</time>
      </trkpt>
      <trkpt lat="47.23547" lon="0.48679">
        <ele>97.71</ele>
        <time>2013-09-29T07:53:54Z</time>
      </trkpt>
      <trkpt lat="47.23603" lon="0.48594">
        <ele>99.15</ele>
        <time>2013-09-29T07:54:12Z</time>
      </trkpt>
      <trkpt lat="47.23673" lon="0.4849">
        <ele>99.63</ele>
        <time>2013-09-29T07:54:32Z</time>
      </trkpt>
      <trkpt lat="47.23734" lon="0.4837">
        <ele>99.63</ele>
        <time>2013-09-29T07:54:50Z</time>
      </trkpt>
      <trkpt lat="47.23756" lon="0.4824">
        <ele>96.27</ele>
        <time>2013-09-29T07:55:04Z</time>
      </trkpt>
      <trkpt lat="47.23779" lon="0.48046">
        <ele>93.87</ele>
        <time>2013-09-29T07:55:23Z</time>
      </trkpt>
      <trkpt lat="47.23812" lon="0.47914">
        <ele>95.31</ele>
        <time>2013-09-29T07:55:39Z</time>
      </trkpt>
      <trkpt lat="47.23857" lon="0.47868">
        <ele>94.35</ele>
        <time>2013-09-29T07:55:48Z</time>
      </trkpt>
      <trkpt lat="47.23949" lon="0.47845">
        <ele>93.39</ele>
        <time>2013-09-29T07:56:03Z</time>
      </trkpt>
      <trkpt lat="47.24057" lon="0.47821">
        <ele>94.35</ele>
        <time>2013-09-29T07:56:22Z</time>
      </trkpt>
      <trkpt lat="47.24119" lon="0.47767">
        <ele>96.27</ele>
        <time>2013-09-29T07:56:36Z</time>
      </trkpt>
      <trkpt lat="47.24195" lon="0.47674">
        <ele>98.67</ele>
        <time>2013-09-29T07:56:55Z</time>
      </trkpt>
      <trkpt lat="47.24279" lon="0.4759">
        <ele>99.63</ele>
        <time>2013-09-29T07:57:14Z</time>
      </trkpt>
      <trkpt lat="47.24374" lon="0.47544">
        <ele>98.19</ele>
        <time>2013-09-29T07:57:31Z</time>
      </trkpt>
      <trkpt lat="47.24458" lon="0.47503">
        <ele>95.31</ele>
        <time>2013-09-29T07:57:44Z</time>
      </trkpt>
      <trkpt lat="47.24518" lon="0.47475">
        <ele>92.42</ele>
        <time>2013-09-29T07:57:52Z</time>
      </trkpt>
      <trkpt lat="47.2455" lon="0.47459">
        <ele>90.98</ele>
        <time>2013-09-29T07:57:56Z</time>
      </trkpt>
      <trkpt lat="47.2461" lon="0.47432">
        <ele>87.62</ele>
        <time>2013-09-29T07:58:03Z</time>
      </trkpt>
      <trkpt lat="47.24661" lon="0.47406">
        <ele>84.25</ele>
        <time>2013-09-29T07:58:09Z</time>
      </trkpt>
      <trkpt lat="47.24708" lon="0.47385">
        <ele>81.37</ele>
        <time>2013-09-29T07:58:14Z</time>
      </trkpt>
      <trkpt lat="47.24718" lon="0.4738">
        <ele>80.89</ele>
        <time>2013-09-29T07:58:15Z</time>
      </trkpt>
      <trkpt lat="47.24738" lon="0.47372">
        <ele>79.93</ele>
        <time>2013-09-29T07:58:17Z</time>
      </trkpt>
      <trkpt lat="47.24788" lon="0.47347">
        <ele>76.56</ele>
        <time>2013-09-29T07:58:22Z</time>
      </trkpt>
      <trkpt lat="47.24838" lon="0.47323">
        <ele>73.2</ele>
        <time>2013-09-29T07:58:27Z</time>
      </trkpt>
      <trkpt lat="47.24869" lon="0.47308">
        <ele>71.76</ele>
        <time>2013-09-29T07:58:30Z</time>
      </trkpt>
      <trkpt lat="47.24901" lon="0.47294">
        <ele>69.35</ele>
        <time>2013-09-29T07:58:33Z</time>
      </trkpt>
      <trkpt lat="47.24934" lon="0.47279">
        <ele>67.43</ele>
        <time>2013-09-29T07:58:36Z</time>
      </trkpt>
      <trkpt lat="47.24979" lon="0.47271">
        <ele>64.55</ele>
        <time>2013-09-29T07:58:40Z</time>
      </trkpt>
      <trkpt lat="47.25014" lon="0.47274">
        <ele>63.1</ele>
        <time>2013-09-29T07:58:43Z</time>
      </trkpt>
      <trkpt lat="47.25048" lon="0.47277">
        <ele>62.14</ele>
        <time>2013-09-29T07:58:46Z</time>
      </trkpt>
      <trkpt lat="47.2509" lon="0.47283">
        <ele>59.74</ele>
        <time>2013-09-29T07:58:50Z</time>
      </trkpt>
      <trkpt lat="47.2513" lon="0.47287">
        <ele>57.82</ele>
        <time>2013-09-29T07:58:54Z</time>
      </trkpt>
      <trkpt lat="47.25172" lon="0.47246">
        <ele>56.86</ele>
        <time>2013-09-29T07:59:00Z</time>
      </trkpt>
      <trkpt lat="47.25174" lon="0.47224">
        <ele>56.86</ele>
        <time>2013-09-29T07:59:02Z</time>
      </trkpt>
      <trkpt lat="47.25192" lon="0.4709">
        <ele>53.49</ele>
        <time>2013-09-29T07:59:15Z</time>
      </trkpt>
      <trkpt lat="47.25208" lon="0.47041">
        <ele>51.57</ele>
        <time>2013-09-29T07:59:19Z</time>
      </trkpt>
      <trkpt lat="47.25255" lon="0.46903">
        <ele>49.65</ele>
        <time>2013-09-29T07:59:30Z</time>
      </trkpt>
      <trkpt lat="47.25264" lon="0.46795">
        <ele>50.61</ele>
        <time>2013-09-29T07:59:41Z</time>
      </trkpt>
      <trkpt lat="47.2527" lon="0.46731">
        <ele>52.05</ele>
        <time>2013-09-29T07:59:50Z</time>
      </trkpt>
      <trkpt lat="47.25306" lon="0.46624">
        <ele>54.93</ele>
        <time>2013-09-29T08:00:07Z</time>
      </trkpt>
      <trkpt lat="47.25343" lon="0.46522">
        <ele>56.37</ele>
        <time>2013-09-29T08:00:24Z</time>
      </trkpt>
      <trkpt lat="47.25368" lon="0.4644">
        <ele>54.45</ele>
        <time>2013-09-29T08:00:35Z</time>
      </trkpt>
      <trkpt lat="47.25415" lon="0.46325">
        <ele>53.01</ele>
        <time>2013-09-29T08:00:50Z</time>
      </trkpt>
      <trkpt lat="47.25433" lon="0.46263">
        <ele>52.53</ele>
        <time>2013-09-29T08:00:58Z</time>
      </trkpt>
      <trkpt lat="47.25459" lon="0.46224">
        <ele>51.09</ele>
        <time>2013-09-29T08:01:08Z</time>
      </trkpt>
      <trkpt lat="47.25462" lon="0.46222">
        <ele>50.61</ele>
        <time>2013-09-29T08:01:10Z</time>
      </trkpt>
      <trkpt lat="47.25492" lon="0.46259">
        <ele>46.28</ele>
        <time>2013-09-29T08:01:18Z</time>
      </trkpt>
      <trkpt lat="47.25558" lon="0.46349">
        <ele>43.4</ele>
        <time>2013-09-29T08:01:30Z</time>
      </trkpt>
      <trkpt lat="47.25639" lon="0.4639">
        <ele>43.4</ele>
        <time>2013-09-29T08:01:42Z</time>
      </trkpt>
      <trkpt lat="47.25736" lon="0.46424">
        <ele>43.4</ele>
        <time>2013-09-29T08:01:56Z</time>
      </trkpt>
      <trkpt lat="47.25779" lon="0.46434">
        <ele>43.4</ele>
        <time>2013-09-29T08:02:03Z</time>
      </trkpt>
      <trkpt lat="47.25848" lon="0.4645">
        <ele>43.4</ele>
        <time>2013-09-29T08:02:15Z</time>
      </trkpt>
      <trkpt lat="47.2586" lon="0.46452">
        <ele>43.4</ele>
        <time>2013-09-29T08:02:17Z</time>
      </trkpt>
      <trkpt lat="47.25878" lon="0.46453">
        <ele>43.4</ele>
        <time>2013-09-29T08:02:20Z</time>
      </trkpt>
      <trkpt lat="47.25956" lon="0.46438">
        <ele>43.4</ele>
        <time>2013-09-29T08:02:34Z</time>
      </trkpt>
      <trkpt lat="47.25983" lon="0.46439">
        <ele>43.88</ele>
        <time>2013-09-29T08:02:39Z</time>
      </trkpt>
      <trkpt lat="47.26032" lon="0.46464">
        <ele>44.84</ele>
        <time>2013-09-29T08:02:50Z</time>
      </trkpt>
      <trkpt lat="47.26093" lon="0.46496">
        <ele>43.4</ele>
        <time>2013-09-29T08:03:02Z</time>
      </trkpt>
      <trkpt lat="47.26114" lon="0.46506">
        <ele>44.36</ele>
        <time>2013-09-29T08:03:06Z</time>
      </trkpt>
      <trkpt lat="47.26133" lon="0.46535">
        <ele>45.8</ele>
        <time>2013-09-29T08:03:11Z</time>
      </trkpt>
      <trkpt lat="47.2614" lon="0.4655">
        <ele>46.28</ele>
        <time>2013-09-29T08:03:14Z</time>
      </trkpt>
      <trkpt lat="47.26143" lon="0.46553">
        <ele>46.76</ele>
        <time>2013-09-29T08:03:15Z</time>
      </trkpt>
      <trkpt lat="47.26177" lon="0.46571">
        <ele>48.68</ele>
        <time>2013-09-29T08:03:24Z</time>
      </trkpt>
      <trkpt lat="47.26183" lon="0.46589">
        <ele>48.2</ele>
        <time>2013-09-29T08:03:30Z</time>
      </trkpt>
      <trkpt lat="47.26157" lon="0.46671">
        <ele>46.76</ele>
        <time>2013-09-29T08:03:42Z</time>
      </trkpt>
      <trkpt lat="47.26144" lon="0.467">
        <ele>46.76</ele>
        <time>2013-09-29T08:03:46Z</time>
      </trkpt>
      <trkpt lat="47.26138" lon="0.46712">
        <ele>46.76</ele>
        <time>2013-09-29T08:03:48Z</time>
      </trkpt>
      <trkpt lat="47.26106" lon="0.46765">
        <ele>47.24</ele>
        <time>2013-09-29T08:03:57Z</time>
      </trkpt>
      <trkpt lat="47.26103" lon="0.46779">
        <ele>47.24</ele>
        <time>2013-09-29T08:03:59Z</time>
      </trkpt>
      <trkpt lat="47.26102" lon="0.46806">
        <ele>47.72</ele>
        <time>2013-09-29T08:04:03Z</time>
      </trkpt>
      <trkpt lat="47.26094" lon="0.46919">
        <ele>50.61</ele>
        <time>2013-09-29T08:04:19Z</time>
      </trkpt>
      <trkpt lat="47.26086" lon="0.46986">
        <ele>50.61</ele>
        <time>2013-09-29T08:04:29Z</time>
      </trkpt>
      <trkpt lat="47.26081" lon="0.47012">
        <ele>51.09</ele>
        <time>2013-09-29T08:04:33Z</time>
      </trkpt>
      <trkpt lat="47.26078" lon="0.47026">
        <ele>50.13</ele>
        <time>2013-09-29T08:04:35Z</time>
      </trkpt>
      <trkpt lat="47.26077" lon="0.47055">
        <ele>51.09</ele>
        <time>2013-09-29T08:04:39Z</time>
      </trkpt>
      <trkpt lat="47.26077" lon="0.47093">
        <ele>52.05</ele>
        <time>2013-09-29T08:04:44Z</time>
      </trkpt>
      <trkpt lat="47.26071" lon="0.47132">
        <ele>53.49</ele>
        <time>2013-09-29T08:04:50Z</time>
      </trkpt>
      <trkpt lat="47.26065" lon="0.47162">
        <ele>54.45</ele>
        <time>2013-09-29T08:04:55Z</time>
      </trkpt>
      <trkpt lat="47.2605" lon="0.47232">
        <ele>55.41</ele>
        <time>2013-09-29T08:05:06Z</time>
      </trkpt>
      <trkpt lat="47.26028" lon="0.47315">
        <ele>53.49</ele>
        <time>2013-09-29T08:05:19Z</time>
      </trkpt>
      <trkpt lat="47.25998" lon="0.47454">
        <ele>53.01</ele>
        <time>2013-09-29T08:05:35Z</time>
      </trkpt>
      <trkpt lat="47.25988" lon="0.47489">
        <ele>52.53</ele>
        <time>2013-09-29T08:05:39Z</time>
      </trkpt>
      <trkpt lat="47.25928" lon="0.47625">
        <ele>49.65</ele>
        <time>2013-09-29T08:05:55Z</time>
      </trkpt>
      <trkpt lat="47.25914" lon="0.47666">
        <ele>47.72</ele>
        <time>2013-09-29T08:05:59Z</time>
      </trkpt>
      <trkpt lat="47.25884" lon="0.47743">
        <ele>45.8</ele>
        <time>2013-09-29T08:06:06Z</time>
      </trkpt>
      <trkpt lat="47.25871" lon="0.47869">
        <ele>46.28</ele>
        <time>2013-09-29T08:06:18Z</time>
      </trkpt>
      <trkpt lat="47.25871" lon="0.47879">
        <ele>46.76</ele>
        <time>2013-09-29T08:06:19Z</time>
      </trkpt>
      <trkpt lat="47.25839" lon="0.48015">
        <ele>46.28</ele>
        <time>2013-09-29T08:06:34Z</time>
      </trkpt>
      <trkpt lat="47.25825" lon="0.48141">
        <ele>46.28</ele>
        <time>2013-09-29T08:06:48Z</time>
      </trkpt>
      <trkpt lat="47.25828" lon="0.48259">
        <ele>47.24</ele>
        <time>2013-09-29T08:07:02Z</time>
      </trkpt>
      <trkpt lat="47.2582" lon="0.48369">
        <ele>48.68</ele>
        <time>2013-09-29T08:07:16Z</time>
      </trkpt>
      <trkpt lat="47.25811" lon="0.48463">
        <ele>50.61</ele>
        <time>2013-09-29T08:07:28Z</time>
      </trkpt>
      <trkpt lat="47.25805" lon="0.48603">
        <ele>52.05</ele>
        <time>2013-09-29T08:07:46Z</time>
      </trkpt>
      <trkpt lat="47.25795" lon="0.48719">
        <ele>51.09</ele>
        <time>2013-09-29T08:07:59Z</time>
      </trkpt>
      <trkpt lat="47.2578" lon="0.48854">
        <ele>51.09</ele>
        <time>2013-09-29T08:08:15Z</time>
      </trkpt>
      <trkpt lat="47.25756" lon="0.48961">
        <ele>48.2</ele>
        <time>2013-09-29T08:08:26Z</time>
      </trkpt>
      <trkpt lat="47.25744" lon="0.48988">
        <ele>47.24</ele>
        <time>2013-09-29T08:08:33Z</time>
      </trkpt>
      <trkpt lat="47.25744" lon="0.48988">
        <ele>46.76</ele>
        <time>2013-09-29T08:08:34Z</time>
      </trkpt>
      <trkpt lat="47.25743" lon="0.4899">
        <ele>46.76</ele>
        <time>2013-09-29T08:08:49Z</time>
      </trkpt>
      <trkpt lat="47.25744" lon="0.48992">
        <ele>47.24</ele>
        <time>2013-09-29T08:09:21Z</time>
      </trkpt>
      <trkpt lat="47.25742" lon="0.49005">
        <ele>46.76</ele>
        <time>2013-09-29T08:09:25Z</time>
      </trkpt>
      <trkpt lat="47.25726" lon="0.49128">
        <ele>45.32</ele>
        <time>2013-09-29T08:09:37Z</time>
      </trkpt>
      <trkpt lat="47.25723" lon="0.49339">
        <ele>44.84</ele>
        <time>2013-09-29T08:09:54Z</time>
      </trkpt>
      <trkpt lat="47.25707" lon="0.49495">
        <ele>44.84</ele>
        <time>2013-09-29T08:10:07Z</time>
      </trkpt>
      <trkpt lat="47.25707" lon="0.4965">
        <ele>45.8</ele>
        <time>2013-09-29T08:10:22Z</time>
      </trkpt>
      <trkpt lat="47.25708" lon="0.498">
        <ele>45.8</ele>
        <time>2013-09-29T08:10:38Z</time>
      </trkpt>
      <trkpt lat="47.25686" lon="0.49931">
        <ele>45.8</ele>
        <time>2013-09-29T08:10:52Z</time>
      </trkpt>
      <trkpt lat="47.25669" lon="0.50103">
        <ele>46.76</ele>
        <time>2013-09-29T08:11:10Z</time>
      </trkpt>
      <trkpt lat="47.25668" lon="0.5014">
        <ele>47.24</ele>
        <time>2013-09-29T08:11:14Z</time>
      </trkpt>
      <trkpt lat="47.25662" lon="0.50281">
        <ele>48.2</ele>
        <time>2013-09-29T08:11:29Z</time>
      </trkpt>
      <trkpt lat="47.2564" lon="0.50438">
        <ele>48.68</ele>
        <time>2013-09-29T08:11:45Z</time>
      </trkpt>
      <trkpt lat="47.25604" lon="0.50588">
        <ele>47.24</ele>
        <time>2013-09-29T08:11:59Z</time>
      </trkpt>
      <trkpt lat="47.25559" lon="0.50771">
        <ele>46.76</ele>
        <time>2013-09-29T08:12:15Z</time>
      </trkpt>
      <trkpt lat="47.25532" lon="0.50945">
        <ele>46.76</ele>
        <time>2013-09-29T08:12:30Z</time>
      </trkpt>
      <trkpt lat="47.25506" lon="0.51135">
        <ele>47.24</ele>
        <time>2013-09-29T08:12:47Z</time>
      </trkpt>
      <trkpt lat="47.25486" lon="0.51291">
        <ele>46.76</ele>
        <time>2013-09-29T08:13:00Z</time>
      </trkpt>
      <trkpt lat="47.25477" lon="0.51455">
        <ele>46.76</ele>
        <time>2013-09-29T08:13:15Z</time>
      </trkpt>
      <trkpt lat="47.25487" lon="0.51585">
        <ele>48.68</ele>
        <time>2013-09-29T08:13:30Z</time>
      </trkpt>
      <trkpt lat="47.25491" lon="0.51691">
        <ele>49.65</ele>
        <time>2013-09-29T08:13:44Z</time>
      </trkpt>
      <trkpt lat="47.25494" lon="0.5183">
        <ele>48.68</ele>
        <time>2013-09-29T08:14:00Z</time>
      </trkpt>
      <trkpt lat="47.25499" lon="0.51974">
        <ele>46.76</ele>
        <time>2013-09-29T08:14:14Z</time>
      </trkpt>
      <trkpt lat="47.255" lon="0.52048">
        <ele>46.76</ele>
        <time>2013-09-29T08:14:22Z</time>
      </trkpt>
      <trkpt lat="47.25472" lon="0.52185">
        <ele>44.36</ele>
        <time>2013-09-29T08:14:36Z</time>
      </trkpt>
      <trkpt lat="47.25462" lon="0.52308">
        <ele>44.36</ele>
        <time>2013-09-29T08:14:50Z</time>
      </trkpt>
      <trkpt lat="47.25452" lon="0.52446">
        <ele>44.84</ele>
        <time>2013-09-29T08:15:06Z</time>
      </trkpt>
      <trkpt lat="47.25444" lon="0.52541">
        <ele>44.36</ele>
        <time>2013-09-29T08:15:18Z</time>
      </trkpt>
      <trkpt lat="47.2544" lon="0.52676">
        <ele>43.88</ele>
        <time>2013-09-29T08:15:32Z</time>
      </trkpt>
      <trkpt lat="47.25431" lon="0.52813">
        <ele>44.84</ele>
        <time>2013-09-29T08:15:48Z</time>
      </trkpt>
      <trkpt lat="47.2543" lon="0.52887">
        <ele>45.32</ele>
        <time>2013-09-29T08:15:56Z</time>
      </trkpt>
      <trkpt lat="47.25428" lon="0.5302">
        <ele>45.8</ele>
        <time>2013-09-29T08:16:11Z</time>
      </trkpt>
      <trkpt lat="47.25432" lon="0.53174">
        <ele>45.8</ele>
        <time>2013-09-29T08:16:28Z</time>
      </trkpt>
      <trkpt lat="47.25441" lon="0.53331">
        <ele>45.8</ele>
        <time>2013-09-29T08:16:46Z</time>
      </trkpt>
      <trkpt lat="47.25444" lon="0.53401">
        <ele>46.28</ele>
        <time>2013-09-29T08:16:54Z</time>
      </trkpt>
      <trkpt lat="47.25441" lon="0.53538">
        <ele>47.72</ele>
        <time>2013-09-29T08:17:11Z</time>
      </trkpt>
      <trkpt lat="47.25432" lon="0.5368">
        <ele>46.28</ele>
        <time>2013-09-29T08:17:26Z</time>
      </trkpt>
      <trkpt lat="47.2544" lon="0.53816">
        <ele>45.8</ele>
        <time>2013-09-29T08:17:41Z</time>
      </trkpt>
      <trkpt lat="47.25461" lon="0.53938">
        <ele>46.76</ele>
        <time>2013-09-29T08:17:56Z</time>
      </trkpt>
      <trkpt lat="47.25478" lon="0.54091">
        <ele>46.28</ele>
        <time>2013-09-29T08:18:13Z</time>
      </trkpt>
      <trkpt lat="47.25505" lon="0.54249">
        <ele>45.32</ele>
        <time>2013-09-29T08:18:30Z</time>
      </trkpt>
      <trkpt lat="47.25507" lon="0.54258">
        <ele>45.8</ele>
        <time>2013-09-29T08:18:31Z</time>
      </trkpt>
      <trkpt lat="47.25535" lon="0.54378">
        <ele>46.28</ele>
        <time>2013-09-29T08:18:47Z</time>
      </trkpt>
      <trkpt lat="47.25571" lon="0.54494">
        <ele>46.76</ele>
        <time>2013-09-29T08:19:02Z</time>
      </trkpt>
      <trkpt lat="47.2561" lon="0.54585">
        <ele>47.24</ele>
        <time>2013-09-29T08:19:16Z</time>
      </trkpt>
      <trkpt lat="47.25624" lon="0.54606">
        <ele>48.2</ele>
        <time>2013-09-29T08:19:20Z</time>
      </trkpt>
      <trkpt lat="47.25656" lon="0.54713">
        <ele>49.16</ele>
        <time>2013-09-29T08:19:35Z</time>
      </trkpt>
      <trkpt lat="47.25673" lon="0.54779">
        <ele>47.24</ele>
        <time>2013-09-29T08:19:42Z</time>
      </trkpt>
      <trkpt lat="47.25682" lon="0.54808">
        <ele>46.28</ele>
        <time>2013-09-29T08:19:45Z</time>
      </trkpt>
      <trkpt lat="47.25706" lon="0.54847">
        <ele>46.28</ele>
        <time>2013-09-29T08:19:50Z</time>
      </trkpt>
      <trkpt lat="47.25731" lon="0.54874">
        <ele>46.28</ele>
        <time>2013-09-29T08:19:55Z</time>
      </trkpt>
      <trkpt lat="47.25743" lon="0.54903">
        <ele>46.28</ele>
        <time>2013-09-29T08:19:59Z</time>
      </trkpt>
      <trkpt lat="47.25751" lon="0.54938">
        <ele>45.32</ele>
        <time>2013-09-29T08:20:03Z</time>
      </trkpt>
      <trkpt lat="47.25799" lon="0.5498">
        <ele>45.32</ele>
        <time>2013-09-29T08:20:12Z</time>
      </trkpt>
      <trkpt lat="47.25868" lon="0.55044">
        <ele>45.8</ele>
        <time>2013-09-29T08:20:25Z</time>
      </trkpt>
      <trkpt lat="47.2594" lon="0.55131">
        <ele>45.8</ele>
        <time>2013-09-29T08:20:41Z</time>
      </trkpt>
      <trkpt lat="47.25992" lon="0.55218">
        <ele>44.84</ele>
        <time>2013-09-29T08:20:54Z</time>
      </trkpt>
      <trkpt lat="47.26041" lon="0.5528">
        <ele>44.84</ele>
        <time>2013-09-29T08:21:05Z</time>
      </trkpt>
      <trkpt lat="47.26095" lon="0.55316">
        <ele>44.84</ele>
        <time>2013-09-29T08:21:15Z</time>
      </trkpt>
      <trkpt lat="47.26135" lon="0.55348">
        <ele>44.84</ele>
        <time>2013-09-29T08:21:23Z</time>
      </trkpt>
      <trkpt lat="47.262" lon="0.55416">
        <ele>45.32</ele>
        <time>2013-09-29T08:21:36Z</time>
      </trkpt>
      <trkpt lat="47.26241" lon="0.5546">
        <ele>45.32</ele>
        <time>2013-09-29T08:21:44Z</time>
      </trkpt>
      <trkpt lat="47.26308" lon="0.55548">
        <ele>46.28</ele>
        <time>2013-09-29T08:21:59Z</time>
      </trkpt>
      <trkpt lat="47.2638" lon="0.55642">
        <ele>46.76</ele>
        <time>2013-09-29T08:22:15Z</time>
      </trkpt>
      <trkpt lat="47.26411" lon="0.55677">
        <ele>47.24</ele>
        <time>2013-09-29T08:22:22Z</time>
      </trkpt>
      <trkpt lat="47.26447" lon="0.55716">
        <ele>47.72</ele>
        <time>2013-09-29T08:22:29Z</time>
      </trkpt>
      <trkpt lat="47.26507" lon="0.55775">
        <ele>48.2</ele>
        <time>2013-09-29T08:22:42Z</time>
      </trkpt>
      <trkpt lat="47.26564" lon="0.55883">
        <ele>46.76</ele>
        <time>2013-09-29T08:22:56Z</time>
      </trkpt>
      <trkpt lat="47.26613" lon="0.55989">
        <ele>46.76</ele>
        <time>2013-09-29T08:23:10Z</time>
      </trkpt>
      <trkpt lat="47.26637" lon="0.56043">
        <ele>48.68</ele>
        <time>2013-09-29T08:23:18Z</time>
      </trkpt>
      <trkpt lat="47.26687" lon="0.56126">
        <ele>50.61</ele>
        <time>2013-09-29T08:23:33Z</time>
      </trkpt>
      <trkpt lat="47.26697" lon="0.5614">
        <ele>50.61</ele>
        <time>2013-09-29T08:23:36Z</time>
      </trkpt>
      <trkpt lat="47.26742" lon="0.56206">
        <ele>53.01</ele>
        <time>2013-09-29T08:23:50Z</time>
      </trkpt>
      <trkpt lat="47.26794" lon="0.56287">
        <ele>51.09</ele>
        <time>2013-09-29T08:24:04Z</time>
      </trkpt>
      <trkpt lat="47.26884" lon="0.56363">
        <ele>49.16</ele>
        <time>2013-09-29T08:24:17Z</time>
      </trkpt>
      <trkpt lat="47.2693" lon="0.56408">
        <ele>51.09</ele>
        <time>2013-09-29T08:24:27Z</time>
      </trkpt>
      <trkpt lat="47.26938" lon="0.56421">
        <ele>52.05</ele>
        <time>2013-09-29T08:24:30Z</time>
      </trkpt>
      <trkpt lat="47.26948" lon="0.56471">
        <ele>55.41</ele>
        <time>2013-09-29T08:24:41Z</time>
      </trkpt>
      <trkpt lat="47.26945" lon="0.56533">
        <ele>58.78</ele>
        <time>2013-09-29T08:24:55Z</time>
      </trkpt>
      <trkpt lat="47.26963" lon="0.56585">
        <ele>61.66</ele>
        <time>2013-09-29T08:25:07Z</time>
      </trkpt>
      <trkpt lat="47.26982" lon="0.56644">
        <ele>64.07</ele>
        <time>2013-09-29T08:25:20Z</time>
      </trkpt>
      <trkpt lat="47.26999" lon="0.56713">
        <ele>63.58</ele>
        <time>2013-09-29T08:25:33Z</time>
      </trkpt>
      <trkpt lat="47.26986" lon="0.56799">
        <ele>60.22</ele>
        <time>2013-09-29T08:25:41Z</time>
      </trkpt>
      <trkpt lat="47.26984" lon="0.56812">
        <ele>59.74</ele>
        <time>2013-09-29T08:25:42Z</time>
      </trkpt>
      <trkpt lat="47.26971" lon="0.56884">
        <ele>56.37</ele>
        <time>2013-09-29T08:25:47Z</time>
      </trkpt>
      <trkpt lat="47.26966" lon="0.56913">
        <ele>55.89</ele>
        <time>2013-09-29T08:25:49Z</time>
      </trkpt>
      <trkpt lat="47.2695" lon="0.56974">
        <ele>54.93</ele>
        <time>2013-09-29T08:25:54Z</time>
      </trkpt>
      <trkpt lat="47.26924" lon="0.57018">
        <ele>55.89</ele>
        <time>2013-09-29T08:25:59Z</time>
      </trkpt>
      <trkpt lat="47.26876" lon="0.57062">
        <ele>55.41</ele>
        <time>2013-09-29T08:26:07Z</time>
      </trkpt>
      <trkpt lat="47.26854" lon="0.57096">
        <ele>55.41</ele>
        <time>2013-09-29T08:26:12Z</time>
      </trkpt>
      <trkpt lat="47.26824" lon="0.57208">
        <ele>52.05</ele>
        <time>2013-09-29T08:26:24Z</time>
      </trkpt>
      <trkpt lat="47.26819" lon="0.57368">
        <ele>49.65</ele>
        <time>2013-09-29T08:26:38Z</time>
      </trkpt>
      <trkpt lat="47.26831" lon="0.57495">
        <ele>50.13</ele>
        <time>2013-09-29T08:26:52Z</time>
      </trkpt>
      <trkpt lat="47.26852" lon="0.57609">
        <ele>51.09</ele>
        <time>2013-09-29T08:27:08Z</time>
      </trkpt>
      <trkpt lat="47.26857" lon="0.57704">
        <ele>51.09</ele>
        <time>2013-09-29T08:27:21Z</time>
      </trkpt>
      <trkpt lat="47.26851" lon="0.57844">
        <ele>49.65</ele>
        <time>2013-09-29T08:27:37Z</time>
      </trkpt>
      <trkpt lat="47.26846" lon="0.58008">
        <ele>49.16</ele>
        <time>2013-09-29T08:27:56Z</time>
      </trkpt>
      <trkpt lat="47.26845" lon="0.58077">
        <ele>49.65</ele>
        <time>2013-09-29T08:28:09Z</time>
      </trkpt>
      <trkpt lat="47.2683" lon="0.581">
        <ele>49.16</ele>
        <time>2013-09-29T08:28:16Z</time>
      </trkpt>
      <trkpt lat="47.26825" lon="0.58141">
        <ele>48.68</ele>
        <time>2013-09-29T08:28:22Z</time>
      </trkpt>
      <trkpt lat="47.26834" lon="0.58263">
        <ele>48.68</ele>
        <time>2013-09-29T08:28:39Z</time>
      </trkpt>
      <trkpt lat="47.26821" lon="0.58347">
        <ele>49.16</ele>
        <time>2013-09-29T08:28:55Z</time>
      </trkpt>
      <trkpt lat="47.26799" lon="0.58371">
        <ele>47.72</ele>
        <time>2013-09-29T08:29:06Z</time>
      </trkpt>
      <trkpt lat="47.26797" lon="0.58388">
        <ele>48.2</ele>
        <time>2013-09-29T08:29:11Z</time>
      </trkpt>
      <trkpt lat="47.26825" lon="0.58463">
        <ele>49.65</ele>
        <time>2013-09-29T08:29:25Z</time>
      </trkpt>
      <trkpt lat="47.26864" lon="0.58575">
        <ele>50.13</ele>
        <time>2013-09-29T08:29:41Z</time>
      </trkpt>
      <trkpt lat="47.26889" lon="0.58715">
        <ele>51.09</ele>
        <time>2013-09-29T08:29:59Z</time>
      </trkpt>
      <trkpt lat="47.26892" lon="0.58731">
        <ele>51.09</ele>
        <time>2013-09-29T08:30:01Z</time>
      </trkpt>
      <trkpt lat="47.26922" lon="0.58858">
        <ele>51.09</ele>
        <time>2013-09-29T08:30:18Z</time>
      </trkpt>
      <trkpt lat="47.26938" lon="0.58923">
        <ele>51.57</ele>
        <time>2013-09-29T08:30:27Z</time>
      </trkpt>
      <trkpt lat="47.26953" lon="0.5897">
        <ele>52.05</ele>
        <time>2013-09-29T08:30:35Z</time>
      </trkpt>
      <trkpt lat="47.26957" lon="0.58999">
        <ele>52.05</ele>
        <time>2013-09-29T08:30:39Z</time>
      </trkpt>
      <trkpt lat="47.26992" lon="0.59114">
        <ele>52.53</ele>
        <time>2013-09-29T08:30:54Z</time>
      </trkpt>
      <trkpt lat="47.27038" lon="0.59264">
        <ele>52.53</ele>
        <time>2013-09-29T08:31:14Z</time>
      </trkpt>
      <trkpt lat="47.2708" lon="0.59381">
        <ele>52.53</ele>
        <time>2013-09-29T08:31:30Z</time>
      </trkpt>
      <trkpt lat="47.27123" lon="0.59488">
        <ele>52.05</ele>
        <time>2013-09-29T08:31:45Z</time>
      </trkpt>
      <trkpt lat="47.27168" lon="0.59613">
        <ele>52.05</ele>
        <time>2013-09-29T08:32:02Z</time>
      </trkpt>
      <trkpt lat="47.27195" lon="0.59713">
        <ele>51.57</ele>
        <time>2013-09-29T08:32:15Z</time>
      </trkpt>
      <trkpt lat="47.27246" lon="0.59805">
        <ele>51.57</ele>
        <time>2013-09-29T08:32:30Z</time>
      </trkpt>
      <trkpt lat="47.27287" lon="0.59865">
        <ele>51.57</ele>
        <time>2013-09-29T08:32:44Z</time>
      </trkpt>
      <trkpt lat="47.27281" lon="0.59895">
        <ele>50.61</ele>
        <time>2013-09-29T08:32:50Z</time>
      </trkpt>
      <trkpt lat="47.27264" lon="0.59924">
        <ele>49.16</ele>
        <time>2013-09-29T08:32:55Z</time>
      </trkpt>
      <trkpt lat="47.27198" lon="0.60005">
        <ele>46.76</ele>
        <time>2013-09-29T08:33:07Z</time>
      </trkpt>
      <trkpt lat="47.27167" lon="0.60022">
        <ele>46.76</ele>
        <time>2013-09-29T08:33:12Z</time>
      </trkpt>
      <trkpt lat="47.27079" lon="0.60075">
        <ele>46.76</ele>
        <time>2013-09-29T08:33:28Z</time>
      </trkpt>
      <trkpt lat="47.27074" lon="0.60078">
        <ele>46.76</ele>
        <time>2013-09-29T08:33:29Z</time>
      </trkpt>
      <trkpt lat="47.26992" lon="0.60126">
        <ele>47.72</ele>
        <time>2013-09-29T08:33:44Z</time>
      </trkpt>
      <trkpt lat="47.26972" lon="0.60136">
        <ele>47.72</ele>
        <time>2013-09-29T08:33:48Z</time>
      </trkpt>
      <trkpt lat="47.26927" lon="0.60164">
        <ele>48.68</ele>
        <time>2013-09-29T08:33:57Z</time>
      </trkpt>
      <trkpt lat="47.26908" lon="0.60189">
        <ele>47.72</ele>
        <time>2013-09-29T08:34:02Z</time>
      </trkpt>
      <trkpt lat="47.26902" lon="0.6022">
        <ele>47.72</ele>
        <time>2013-09-29T08:34:06Z</time>
      </trkpt>
      <trkpt lat="47.26904" lon="0.60232">
        <ele>47.24</ele>
        <time>2013-09-29T08:34:08Z</time>
      </trkpt>
      <trkpt lat="47.26906" lon="0.60239">
        <ele>47.24</ele>
        <time>2013-09-29T08:34:09Z</time>
      </trkpt>
      <trkpt lat="47.26985" lon="0.60313">
        <ele>46.76</ele>
        <time>2013-09-29T08:34:23Z</time>
      </trkpt>
      <trkpt lat="47.27028" lon="0.60344">
        <ele>47.24</ele>
        <time>2013-09-29T08:34:31Z</time>
      </trkpt>
      <trkpt lat="47.2711" lon="0.60386">
        <ele>46.76</ele>
        <time>2013-09-29T08:34:45Z</time>
      </trkpt>
      <trkpt lat="47.27188" lon="0.60458">
        <ele>47.72</ele>
        <time>2013-09-29T08:35:02Z</time>
      </trkpt>
      <trkpt lat="47.27231" lon="0.60495">
        <ele>48.2</ele>
        <time>2013-09-29T08:35:11Z</time>
      </trkpt>
      <trkpt lat="47.27287" lon="0.60581">
        <ele>51.09</ele>
        <time>2013-09-29T08:35:27Z</time>
      </trkpt>
      <trkpt lat="47.27335" lon="0.60679">
        <ele>53.49</ele>
        <time>2013-09-29T08:35:44Z</time>
      </trkpt>
      <trkpt lat="47.27383" lon="0.60805">
        <ele>54.93</ele>
        <time>2013-09-29T08:36:03Z</time>
      </trkpt>
      <trkpt lat="47.27434" lon="0.60894">
        <ele>55.89</ele>
        <time>2013-09-29T08:36:18Z</time>
      </trkpt>
      <trkpt lat="47.27475" lon="0.60974">
        <ele>56.86</ele>
        <time>2013-09-29T08:36:31Z</time>
      </trkpt>
      <trkpt lat="47.27518" lon="0.61095">
        <ele>58.3</ele>
        <time>2013-09-29T08:36:49Z</time>
      </trkpt>
      <trkpt lat="47.27562" lon="0.6117">
        <ele>58.3</ele>
        <time>2013-09-29T08:37:02Z</time>
      </trkpt>
      <trkpt lat="47.27605" lon="0.61263">
        <ele>58.78</ele>
        <time>2013-09-29T08:37:16Z</time>
      </trkpt>
      <trkpt lat="47.27627" lon="0.61375">
        <ele>59.74</ele>
        <time>2013-09-29T08:37:31Z</time>
      </trkpt>
      <trkpt lat="47.27643" lon="0.61509">
        <ele>61.18</ele>
        <time>2013-09-29T08:37:48Z</time>
      </trkpt>
      <trkpt lat="47.27655" lon="0.61634">
        <ele>61.66</ele>
        <time>2013-09-29T08:38:04Z</time>
      </trkpt>
      <trkpt lat="47.27669" lon="0.61739">
        <ele>62.14</ele>
        <time>2013-09-29T08:38:18Z</time>
      </trkpt>
      <trkpt lat="47.2768" lon="0.6179">
        <ele>62.62</ele>
        <time>2013-09-29T08:38:25Z</time>
      </trkpt>
      <trkpt lat="47.27702" lon="0.61913">
        <ele>63.58</ele>
        <time>2013-09-29T08:38:41Z</time>
      </trkpt>
      <trkpt lat="47.27712" lon="0.62028">
        <ele>64.55</ele>
        <time>2013-09-29T08:38:57Z</time>
      </trkpt>
      <trkpt lat="47.27718" lon="0.62081">
        <ele>64.07</ele>
        <time>2013-09-29T08:39:06Z</time>
      </trkpt>
      <trkpt lat="47.27716" lon="0.62099">
        <ele>65.03</ele>
        <time>2013-09-29T08:39:09Z</time>
      </trkpt>
      <trkpt lat="47.27716" lon="0.62143">
        <ele>65.51</ele>
        <time>2013-09-29T08:39:16Z</time>
      </trkpt>
      <trkpt lat="47.27721" lon="0.62241">
        <ele>65.99</ele>
        <time>2013-09-29T08:39:30Z</time>
      </trkpt>
      <trkpt lat="47.2772" lon="0.62276">
        <ele>65.03</ele>
        <time>2013-09-29T08:39:35Z</time>
      </trkpt>
      <trkpt lat="47.27712" lon="0.62331">
        <ele>63.58</ele>
        <time>2013-09-29T08:39:46Z</time>
      </trkpt>
      <trkpt lat="47.27711" lon="0.62343">
        <ele>63.58</ele>
        <time>2013-09-29T08:39:58Z</time>
      </trkpt>
      <trkpt lat="47.27708" lon="0.62349">
        <ele>63.1</ele>
        <time>2013-09-29T08:40:16Z</time>
      </trkpt>
      <trkpt lat="47.27707" lon="0.62353">
        <ele>63.1</ele>
        <time>2013-09-29T08:40:33Z</time>
      </trkpt>
      <trkpt lat="47.27707" lon="0.62353">
        <ele>63.1</ele>
        <time>2013-09-29T08:40:52Z</time>
      </trkpt>
      <trkpt lat="47.27707" lon="0.62353">
        <ele>63.1</ele>
        <time>2013-09-29T08:41:16Z</time>
      </trkpt>
      <trkpt lat="47.27707" lon="0.62352">
        <ele>62.62</ele>
        <time>2013-09-29T08:41:39Z</time>
      </trkpt>
      <trkpt lat="47.27708" lon="0.62352">
        <ele>63.1</ele>
        <time>2013-09-29T08:42:02Z</time>
      </trkpt>
      <trkpt lat="47.27708" lon="0.62352">
        <ele>63.58</ele>
        <time>2013-09-29T08:42:33Z</time>
      </trkpt>
      <trkpt lat="47.27708" lon="0.62352">
        <ele>63.1</ele>
        <time>2013-09-29T08:43:02Z</time>
      </trkpt>
      <trkpt lat="47.27707" lon="0.62352">
        <ele>63.58</ele>
        <time>2013-09-29T08:43:29Z</time>
      </trkpt>
      <trkpt lat="47.27707" lon="0.62353">
        <ele>63.58</ele>
        <time>2013-09-29T08:44:02Z</time>
      </trkpt>
      <trkpt lat="47.27707" lon="0.62353">
        <ele>63.58</ele>
        <time>2013-09-29T08:44:36Z</time>
      </trkpt>
      <trkpt lat="47.27707" lon="0.62353">
        <ele>64.07</ele>
        <time>2013-09-29T08:45:06Z</time>
      </trkpt>
      <trkpt lat="47.27707" lon="0.62353">
        <ele>63.58</ele>
        <time>2013-09-29T08:45:43Z</time>
      </trkpt>
      <trkpt lat="47.27707" lon="0.62354">
        <ele>64.07</ele>
        <time>2013-09-29T08:46:16Z</time>
      </trkpt>
      <trkpt lat="47.27707" lon="0.62354">
        <ele>64.07</ele>
        <time>2013-09-29T08:46:54Z</time>
      </trkpt>
      <trkpt lat="47.27707" lon="0.62354">
        <ele>64.55</ele>
        <time>2013-09-29T08:47:26Z</time>
      </trkpt>
      <trkpt lat="47.27707" lon="0.62354">
        <ele>64.55</ele>
        <time>2013-09-29T08:47:55Z</time>
      </trkpt>
      <trkpt lat="47.27707" lon="0.62354">
        <ele>64.55</ele>
        <time>2013-09-29T08:48:20Z</time>
      </trkpt>
      <trkpt lat="47.27707" lon="0.62354">
        <ele>65.03</ele>
        <time>2013-09-29T08:48:49Z</time>
      </trkpt>
      <trkpt lat="47.27707" lon="0.62354">
        <ele>65.03</ele>
        <time>2013-09-29T08:49:17Z</time>
      </trkpt>
      <trkpt lat="47.27707" lon="0.62354">
        <ele>65.03</ele>
        <time>2013-09-29T08:49:54Z</time>
      </trkpt>
      <trkpt lat="47.27707" lon="0.62354">
        <ele>65.03</ele>
        <time>2013-09-29T08:50:30Z</time>
      </trkpt>
      <trkpt lat="47.27707" lon="0.62353">
        <ele>65.51</ele>
        <time>2013-09-29T08:51:02Z</time>
      </trkpt>
      <trkpt lat="47.27707" lon="0.62353">
        <ele>65.51</ele>
        <time>2013-09-29T08:51:26Z</time>
      </trkpt>
      <trkpt lat="47.27707" lon="0.62353">
        <ele>65.51</ele>
        <time>2013-09-29T08:51:53Z</time>
      </trkpt>
      <trkpt lat="47.27707" lon="0.62353">
        <ele>65.99</ele>
        <time>2013-09-29T08:52:19Z</time>
      </trkpt>
      <trkpt lat="47.27707" lon="0.62353">
        <ele>65.99</ele>
        <time>2013-09-29T08:52:47Z</time>
      </trkpt>
      <trkpt lat="47.27707" lon="0.62353">
        <ele>65.99</ele>
        <time>2013-09-29T08:53:09Z</time>
      </trkpt>
      <trkpt lat="47.27707" lon="0.62353">
        <ele>65.99</ele>
        <time>2013-09-29T08:53:29Z</time>
      </trkpt>
      <trkpt lat="47.27707" lon="0.62353">
        <ele>65.99</ele>
        <time>2013-09-29T08:53:52Z</time>
      </trkpt>
      <trkpt lat="47.27707" lon="0.62353">
        <ele>65.99</ele>
        <time>2013-09-29T08:54:19Z</time>
      </trkpt>
      <trkpt lat="47.27707" lon="0.62353">
        <ele>65.99</ele>
        <time>2013-09-29T08:54:50Z</time>
      </trkpt>
      <trkpt lat="47.27707" lon="0.62353">
        <ele>66.47</ele>
        <time>2013-09-29T08:55:17Z</time>
      </trkpt>
      <trkpt lat="47.27707" lon="0.62353">
        <ele>66.47</ele>
        <time>2013-09-29T08:55:30Z</time>
      </trkpt>
      <trkpt lat="47.27708" lon="0.62353">
        <ele>66.47</ele>
        <time>2013-09-29T08:55:35Z</time>
      </trkpt>
      <trkpt lat="47.2771" lon="0.62381">
        <ele>65.51</ele>
        <time>2013-09-29T08:55:43Z</time>
      </trkpt>
      <trkpt lat="47.27681" lon="0.62419">
        <ele>64.55</ele>
        <time>2013-09-29T08:55:55Z</time>
      </trkpt>
      <trkpt lat="47.27648" lon="0.62476">
        <ele>65.99</ele>
        <time>2013-09-29T08:56:12Z</time>
      </trkpt>
      <trkpt lat="47.27649" lon="0.62483">
        <ele>65.51</ele>
        <time>2013-09-29T08:56:16Z</time>
      </trkpt>
      <trkpt lat="47.27649" lon="0.62483">
        <ele>65.99</ele>
        <time>2013-09-29T08:56:26Z</time>
      </trkpt>
      <trkpt lat="47.27641" lon="0.62474">
        <ele>66.47</ele>
        <time>2013-09-29T08:56:31Z</time>
      </trkpt>
      <trkpt lat="47.27602" lon="0.62446">
        <ele>69.83</ele>
        <time>2013-09-29T08:56:46Z</time>
      </trkpt>
      <trkpt lat="47.27562" lon="0.62448">
        <ele>71.76</ele>
        <time>2013-09-29T08:56:59Z</time>
      </trkpt>
      <trkpt lat="47.27508" lon="0.62461">
        <ele>72.24</ele>
        <time>2013-09-29T08:57:15Z</time>
      </trkpt>
      <trkpt lat="47.27467" lon="0.6245">
        <ele>71.76</ele>
        <time>2013-09-29T08:57:25Z</time>
      </trkpt>
      <trkpt lat="47.27401" lon="0.62467">
        <ele>71.76</ele>
        <time>2013-09-29T08:57:40Z</time>
      </trkpt>
      <trkpt lat="47.27358" lon="0.62471">
        <ele>70.79</ele>
        <time>2013-09-29T08:57:49Z</time>
      </trkpt>
      <trkpt lat="47.27277" lon="0.62452">
        <ele>73.2</ele>
        <time>2013-09-29T08:58:05Z</time>
      </trkpt>
      <trkpt lat="47.27258" lon="0.62458">
        <ele>72.72</ele>
        <time>2013-09-29T08:58:09Z</time>
      </trkpt>
      <trkpt lat="47.272" lon="0.6251">
        <ele>73.68</ele>
        <time>2013-09-29T08:58:23Z</time>
      </trkpt>
      <trkpt lat="47.2715" lon="0.62598">
        <ele>74.16</ele>
        <time>2013-09-29T08:58:39Z</time>
      </trkpt>
      <trkpt lat="47.27098" lon="0.6271">
        <ele>74.64</ele>
        <time>2013-09-29T08:58:57Z</time>
      </trkpt>
      <trkpt lat="47.27041" lon="0.62856">
        <ele>74.16</ele>
        <time>2013-09-29T08:59:17Z</time>
      </trkpt>
      <trkpt lat="47.2701" lon="0.62999">
        <ele>74.16</ele>
        <time>2013-09-29T08:59:35Z</time>
      </trkpt>
      <trkpt lat="47.26973" lon="0.6313">
        <ele>76.08</ele>
        <time>2013-09-29T08:59:53Z</time>
      </trkpt>
      <trkpt lat="47.26925" lon="0.63281">
        <ele>76.08</ele>
        <time>2013-09-29T09:00:13Z</time>
      </trkpt>
      <trkpt lat="47.26878" lon="0.63435">
        <ele>76.08</ele>
        <time>2013-09-29T09:00:32Z</time>
      </trkpt>
      <trkpt lat="47.26818" lon="0.63625">
        <ele>75.6</ele>
        <time>2013-09-29T09:00:55Z</time>
      </trkpt>
      <trkpt lat="47.26766" lon="0.63767">
        <ele>75.12</ele>
        <time>2013-09-29T09:01:13Z</time>
      </trkpt>
      <trkpt lat="47.26715" lon="0.63888">
        <ele>78</ele>
        <time>2013-09-29T09:01:31Z</time>
      </trkpt>
      <trkpt lat="47.26684" lon="0.64013">
        <ele>80.41</ele>
        <time>2013-09-29T09:01:48Z</time>
      </trkpt>
      <trkpt lat="47.26662" lon="0.64103">
        <ele>81.37</ele>
        <time>2013-09-29T09:02:00Z</time>
      </trkpt>
      <trkpt lat="47.26628" lon="0.64244">
        <ele>83.29</ele>
        <time>2013-09-29T09:02:19Z</time>
      </trkpt>
      <trkpt lat="47.26601" lon="0.64382">
        <ele>84.73</ele>
        <time>2013-09-29T09:02:37Z</time>
      </trkpt>
      <trkpt lat="47.26593" lon="0.64503">
        <ele>85.69</ele>
        <time>2013-09-29T09:02:52Z</time>
      </trkpt>
      <trkpt lat="47.26589" lon="0.64615">
        <ele>85.69</ele>
        <time>2013-09-29T09:03:05Z</time>
      </trkpt>
      <trkpt lat="47.26558" lon="0.64735">
        <ele>86.18</ele>
        <time>2013-09-29T09:03:20Z</time>
      </trkpt>
      <trkpt lat="47.26509" lon="0.64891">
        <ele>88.58</ele>
        <time>2013-09-29T09:03:40Z</time>
      </trkpt>
      <trkpt lat="47.26484" lon="0.65018">
        <ele>90.98</ele>
        <time>2013-09-29T09:03:56Z</time>
      </trkpt>
      <trkpt lat="47.26466" lon="0.65129">
        <ele>87.62</ele>
        <time>2013-09-29T09:04:08Z</time>
      </trkpt>
      <trkpt lat="47.26427" lon="0.65279">
        <ele>86.66</ele>
        <time>2013-09-29T09:04:23Z</time>
      </trkpt>
      <trkpt lat="47.26399" lon="0.65435">
        <ele>86.66</ele>
        <time>2013-09-29T09:04:41Z</time>
      </trkpt>
      <trkpt lat="47.26384" lon="0.65575">
        <ele>89.54</ele>
        <time>2013-09-29T09:04:59Z</time>
      </trkpt>
      <trkpt lat="47.26365" lon="0.65747">
        <ele>87.14</ele>
        <time>2013-09-29T09:05:19Z</time>
      </trkpt>
      <trkpt lat="47.26345" lon="0.65921">
        <ele>87.62</ele>
        <time>2013-09-29T09:05:39Z</time>
      </trkpt>
      <trkpt lat="47.2632" lon="0.66078">
        <ele>87.14</ele>
        <time>2013-09-29T09:05:58Z</time>
      </trkpt>
      <trkpt lat="47.2631" lon="0.66135">
        <ele>87.14</ele>
        <time>2013-09-29T09:06:05Z</time>
      </trkpt>
      <trkpt lat="47.26298" lon="0.66205">
        <ele>87.62</ele>
        <time>2013-09-29T09:06:15Z</time>
      </trkpt>
      <trkpt lat="47.26288" lon="0.6624">
        <ele>88.1</ele>
        <time>2013-09-29T09:06:20Z</time>
      </trkpt>
      <trkpt lat="47.26265" lon="0.66263">
        <ele>89.06</ele>
        <time>2013-09-29T09:06:26Z</time>
      </trkpt>
      <trkpt lat="47.26166" lon="0.66302">
        <ele>89.06</ele>
        <time>2013-09-29T09:06:44Z</time>
      </trkpt>
      <trkpt lat="47.26078" lon="0.66353">
        <ele>90.5</ele>
        <time>2013-09-29T09:07:01Z</time>
      </trkpt>
      <trkpt lat="47.26008" lon="0.66424">
        <ele>93.87</ele>
        <time>2013-09-29T09:07:17Z</time>
      </trkpt>
      <trkpt lat="47.2594" lon="0.66551">
        <ele>96.75</ele>
        <time>2013-09-29T09:07:37Z</time>
      </trkpt>
      <trkpt lat="47.25897" lon="0.6668">
        <ele>97.23</ele>
        <time>2013-09-29T09:07:54Z</time>
      </trkpt>
      <trkpt lat="47.25898" lon="0.66723">
        <ele>96.75</ele>
        <time>2013-09-29T09:07:59Z</time>
      </trkpt>
      <trkpt lat="47.25905" lon="0.66757">
        <ele>95.79</ele>
        <time>2013-09-29T09:08:03Z</time>
      </trkpt>
      <trkpt lat="47.25883" lon="0.66829">
        <ele>94.35</ele>
        <time>2013-09-29T09:08:11Z</time>
      </trkpt>
      <trkpt lat="47.25823" lon="0.66935">
        <ele>93.87</ele>
        <time>2013-09-29T09:08:25Z</time>
      </trkpt>
      <trkpt lat="47.25766" lon="0.67074">
        <ele>95.31</ele>
        <time>2013-09-29T09:08:43Z</time>
      </trkpt>
      <trkpt lat="47.25728" lon="0.67192">
        <ele>95.79</ele>
        <time>2013-09-29T09:08:58Z</time>
      </trkpt>
      <trkpt lat="47.25716" lon="0.67234">
        <ele>95.31</ele>
        <time>2013-09-29T09:09:03Z</time>
      </trkpt>
      <trkpt lat="47.25677" lon="0.67361">
        <ele>94.83</ele>
        <time>2013-09-29T09:09:18Z</time>
      </trkpt>
      <trkpt lat="47.25674" lon="0.6737">
        <ele>94.83</ele>
        <time>2013-09-29T09:09:19Z</time>
      </trkpt>
      <trkpt lat="47.25644" lon="0.67498">
        <ele>95.31</ele>
        <time>2013-09-29T09:09:34Z</time>
      </trkpt>
      <trkpt lat="47.25618" lon="0.67663">
        <ele>96.75</ele>
        <time>2013-09-29T09:09:53Z</time>
      </trkpt>
      <trkpt lat="47.25577" lon="0.67798">
        <ele>97.71</ele>
        <time>2013-09-29T09:10:10Z</time>
      </trkpt>
      <trkpt lat="47.25568" lon="0.67857">
        <ele>97.71</ele>
        <time>2013-09-29T09:10:17Z</time>
      </trkpt>
      <trkpt lat="47.25546" lon="0.67912">
        <ele>98.19</ele>
        <time>2013-09-29T09:10:25Z</time>
      </trkpt>
      <trkpt lat="47.25538" lon="0.67926">
        <ele>98.19</ele>
        <time>2013-09-29T09:10:27Z</time>
      </trkpt>
      <trkpt lat="47.25451" lon="0.68037">
        <ele>98.67</ele>
        <time>2013-09-29T09:10:46Z</time>
      </trkpt>
      <trkpt lat="47.25355" lon="0.68144">
        <ele>99.15</ele>
        <time>2013-09-29T09:11:06Z</time>
      </trkpt>
      <trkpt lat="47.25277" lon="0.68229">
        <ele>99.15</ele>
        <time>2013-09-29T09:11:22Z</time>
      </trkpt>
      <trkpt lat="47.25199" lon="0.68332">
        <ele>99.15</ele>
        <time>2013-09-29T09:11:39Z</time>
      </trkpt>
      <trkpt lat="47.25126" lon="0.68424">
        <ele>99.15</ele>
        <time>2013-09-29T09:11:55Z</time>
      </trkpt>
      <trkpt lat="47.25022" lon="0.68512">
        <ele>100.11</ele>
        <time>2013-09-29T09:12:15Z</time>
      </trkpt>
      <trkpt lat="47.24918" lon="0.68615">
        <ele>99.63</ele>
        <time>2013-09-29T09:12:36Z</time>
      </trkpt>
      <trkpt lat="47.24836" lon="0.68696">
        <ele>100.11</ele>
        <time>2013-09-29T09:12:52Z</time>
      </trkpt>
      <trkpt lat="47.24741" lon="0.68794">
        <ele>99.15</ele>
        <time>2013-09-29T09:13:11Z</time>
      </trkpt>
      <trkpt lat="47.24658" lon="0.68899">
        <ele>99.15</ele>
        <time>2013-09-29T09:13:29Z</time>
      </trkpt>
      <trkpt lat="47.246" lon="0.69018">
        <ele>98.67</ele>
        <time>2013-09-29T09:13:46Z</time>
      </trkpt>
      <trkpt lat="47.24559" lon="0.69163">
        <ele>98.67</ele>
        <time>2013-09-29T09:14:04Z</time>
      </trkpt>
      <trkpt lat="47.24492" lon="0.69308">
        <ele>97.71</ele>
        <time>2013-09-29T09:14:24Z</time>
      </trkpt>
      <trkpt lat="47.24406" lon="0.69386">
        <ele>97.23</ele>
        <time>2013-09-29T09:14:41Z</time>
      </trkpt>
      <trkpt lat="47.24348" lon="0.69418">
        <ele>97.23</ele>
        <time>2013-09-29T09:14:52Z</time>
      </trkpt>
      <trkpt lat="47.24335" lon="0.69431">
        <ele>97.23</ele>
        <time>2013-09-29T09:14:56Z</time>
      </trkpt>
      <trkpt lat="47.24329" lon="0.69451">
        <ele>97.23</ele>
        <time>2013-09-29T09:15:08Z</time>
      </trkpt>
      <trkpt lat="47.24329" lon="0.69452">
        <ele>97.23</ele>
        <time>2013-09-29T09:15:27Z</time>
      </trkpt>
      <trkpt lat="47.24328" lon="0.6946">
        <ele>97.23</ele>
        <time>2013-09-29T09:15:52Z</time>
      </trkpt>
      <trkpt lat="47.24329" lon="0.69486">
        <ele>96.75</ele>
        <time>2013-09-29T09:15:57Z</time>
      </trkpt>
      <trkpt lat="47.24314" lon="0.69592">
        <ele>97.23</ele>
        <time>2013-09-29T09:16:11Z</time>
      </trkpt>
      <trkpt lat="47.24294" lon="0.69754">
        <ele>95.31</ele>
        <time>2013-09-29T09:16:30Z</time>
      </trkpt>
      <trkpt lat="47.24279" lon="0.69853">
        <ele>94.35</ele>
        <time>2013-09-29T09:16:42Z</time>
      </trkpt>
      <trkpt lat="47.24292" lon="0.69882">
        <ele>94.35</ele>
        <time>2013-09-29T09:16:47Z</time>
      </trkpt>
      <trkpt lat="47.24389" lon="0.69944">
        <ele>94.83</ele>
        <time>2013-09-29T09:17:06Z</time>
      </trkpt>
      <trkpt lat="47.2449" lon="0.7005">
        <ele>94.35</ele>
        <time>2013-09-29T09:17:27Z</time>
      </trkpt>
      <trkpt lat="47.24523" lon="0.70089">
        <ele>94.35</ele>
        <time>2013-09-29T09:17:34Z</time>
      </trkpt>
      <trkpt lat="47.24535" lon="0.70111">
        <ele>93.39</ele>
        <time>2013-09-29T09:17:37Z</time>
      </trkpt>
      <trkpt lat="47.24543" lon="0.70145">
        <ele>92.9</ele>
        <time>2013-09-29T09:17:41Z</time>
      </trkpt>
      <trkpt lat="47.24537" lon="0.70316">
        <ele>94.35</ele>
        <time>2013-09-29T09:18:00Z</time>
      </trkpt>
      <trkpt lat="47.24534" lon="0.70441">
        <ele>96.75</ele>
        <time>2013-09-29T09:18:15Z</time>
      </trkpt>
      <trkpt lat="47.24532" lon="0.70492">
        <ele>97.23</ele>
        <time>2013-09-29T09:18:22Z</time>
      </trkpt>
      <trkpt lat="47.24532" lon="0.705">
        <ele>97.23</ele>
        <time>2013-09-29T09:18:23Z</time>
      </trkpt>
      <trkpt lat="47.24526" lon="0.70633">
        <ele>98.67</ele>
        <time>2013-09-29T09:18:39Z</time>
      </trkpt>
      <trkpt lat="47.24547" lon="0.70741">
        <ele>98.67</ele>
        <time>2013-09-29T09:18:52Z</time>
      </trkpt>
      <trkpt lat="47.24596" lon="0.70886">
        <ele>98.67</ele>
        <time>2013-09-29T09:19:10Z</time>
      </trkpt>
      <trkpt lat="47.24639" lon="0.71006">
        <ele>99.15</ele>
        <time>2013-09-29T09:19:25Z</time>
      </trkpt>
      <trkpt lat="47.24696" lon="0.71125">
        <ele>99.15</ele>
        <time>2013-09-29T09:19:41Z</time>
      </trkpt>
      <trkpt lat="47.24788" lon="0.71199">
        <ele>98.67</ele>
        <time>2013-09-29T09:19:57Z</time>
      </trkpt>
      <trkpt lat="47.24885" lon="0.71246">
        <ele>98.19</ele>
        <time>2013-09-29T09:20:13Z</time>
      </trkpt>
      <trkpt lat="47.24996" lon="0.71341">
        <ele>98.19</ele>
        <time>2013-09-29T09:20:33Z</time>
      </trkpt>
      <trkpt lat="47.25097" lon="0.71452">
        <ele>97.71</ele>
        <time>2013-09-29T09:20:53Z</time>
      </trkpt>
      <trkpt lat="47.25195" lon="0.71583">
        <ele>97.23</ele>
        <time>2013-09-29T09:21:14Z</time>
      </trkpt>
      <trkpt lat="47.25282" lon="0.71709">
        <ele>97.23</ele>
        <time>2013-09-29T09:21:33Z</time>
      </trkpt>
      <trkpt lat="47.25386" lon="0.71797">
        <ele>96.75</ele>
        <time>2013-09-29T09:21:52Z</time>
      </trkpt>
      <trkpt lat="47.25485" lon="0.719">
        <ele>95.79</ele>
        <time>2013-09-29T09:22:11Z</time>
      </trkpt>
      <trkpt lat="47.25578" lon="0.72003">
        <ele>94.83</ele>
        <time>2013-09-29T09:22:29Z</time>
      </trkpt>
      <trkpt lat="47.25693" lon="0.72129">
        <ele>93.39</ele>
        <time>2013-09-29T09:22:51Z</time>
      </trkpt>
      <trkpt lat="47.25805" lon="0.72255">
        <ele>93.39</ele>
        <time>2013-09-29T09:23:13Z</time>
      </trkpt>
      <trkpt lat="47.25919" lon="0.72389">
        <ele>92.42</ele>
        <time>2013-09-29T09:23:36Z</time>
      </trkpt>
      <trkpt lat="47.26007" lon="0.72443">
        <ele>92.42</ele>
        <time>2013-09-29T09:23:51Z</time>
      </trkpt>
      <trkpt lat="47.26108" lon="0.72488">
        <ele>91.94</ele>
        <time>2013-09-29T09:24:08Z</time>
      </trkpt>
      <trkpt lat="47.26198" lon="0.72562">
        <ele>90.98</ele>
        <time>2013-09-29T09:24:24Z</time>
      </trkpt>
      <trkpt lat="47.26278" lon="0.72711">
        <ele>88.58</ele>
        <time>2013-09-29T09:24:43Z</time>
      </trkpt>
      <trkpt lat="47.2632" lon="0.72796">
        <ele>86.18</ele>
        <time>2013-09-29T09:24:52Z</time>
      </trkpt>
      <trkpt lat="47.26404" lon="0.72896">
        <ele>83.77</ele>
        <time>2013-09-29T09:25:07Z</time>
      </trkpt>
      <trkpt lat="47.26456" lon="0.72963">
        <ele>82.81</ele>
        <time>2013-09-29T09:25:17Z</time>
      </trkpt>
      <trkpt lat="47.26509" lon="0.72993">
        <ele>81.85</ele>
        <time>2013-09-29T09:25:25Z</time>
      </trkpt>
      <trkpt lat="47.26572" lon="0.73066">
        <ele>81.37</ele>
        <time>2013-09-29T09:25:37Z</time>
      </trkpt>
      <trkpt lat="47.26649" lon="0.73134">
        <ele>81.85</ele>
        <time>2013-09-29T09:25:51Z</time>
      </trkpt>
      <trkpt lat="47.26747" lon="0.73238">
        <ele>79.93</ele>
        <time>2013-09-29T09:26:10Z</time>
      </trkpt>
      <trkpt lat="47.26781" lon="0.73273">
        <ele>77.04</ele>
        <time>2013-09-29T09:26:16Z</time>
      </trkpt>
      <trkpt lat="47.26799" lon="0.73312">
        <ele>76.08</ele>
        <time>2013-09-29T09:26:20Z</time>
      </trkpt>
      <trkpt lat="47.26825" lon="0.73395">
        <ele>75.12</ele>
        <time>2013-09-29T09:26:28Z</time>
      </trkpt>
      <trkpt lat="47.26856" lon="0.73454">
        <ele>76.08</ele>
        <time>2013-09-29T09:26:36Z</time>
      </trkpt>
      <trkpt lat="47.26882" lon="0.7349">
        <ele>78</ele>
        <time>2013-09-29T09:26:45Z</time>
      </trkpt>
      <trkpt lat="47.26888" lon="0.73495">
        <ele>78.97</ele>
        <time>2013-09-29T09:26:50Z</time>
      </trkpt>
      <trkpt lat="47.26899" lon="0.73486">
        <ele>79.93</ele>
        <time>2013-09-29T09:26:54Z</time>
      </trkpt>
      <trkpt lat="47.26938" lon="0.73466">
        <ele>83.29</ele>
        <time>2013-09-29T09:27:05Z</time>
      </trkpt>
      <trkpt lat="47.26984" lon="0.7348">
        <ele>86.18</ele>
        <time>2013-09-29T09:27:17Z</time>
      </trkpt>
      <trkpt lat="47.27037" lon="0.73526">
        <ele>87.14</ele>
        <time>2013-09-29T09:27:30Z</time>
      </trkpt>
      <trkpt lat="47.27102" lon="0.73522">
        <ele>86.66</ele>
        <time>2013-09-29T09:27:41Z</time>
      </trkpt>
      <trkpt lat="47.27144" lon="0.73528">
        <ele>86.66</ele>
        <time>2013-09-29T09:27:48Z</time>
      </trkpt>
      <trkpt lat="47.27215" lon="0.73583">
        <ele>86.66</ele>
        <time>2013-09-29T09:28:01Z</time>
      </trkpt>
      <trkpt lat="47.2725" lon="0.73586">
        <ele>85.69</ele>
        <time>2013-09-29T09:28:07Z</time>
      </trkpt>
      <trkpt lat="47.27291" lon="0.73565">
        <ele>83.77</ele>
        <time>2013-09-29T09:28:14Z</time>
      </trkpt>
      <trkpt lat="47.27318" lon="0.73572">
        <ele>82.33</ele>
        <time>2013-09-29T09:28:18Z</time>
      </trkpt>
      <trkpt lat="47.27337" lon="0.73583">
        <ele>82.33</ele>
        <time>2013-09-29T09:28:21Z</time>
      </trkpt>
      <trkpt lat="47.27368" lon="0.73593">
        <ele>83.29</ele>
        <time>2013-09-29T09:28:26Z</time>
      </trkpt>
      <trkpt lat="47.27416" lon="0.73615">
        <ele>87.14</ele>
        <time>2013-09-29T09:28:36Z</time>
      </trkpt>
      <trkpt lat="47.27488" lon="0.73643">
        <ele>88.1</ele>
        <time>2013-09-29T09:28:51Z</time>
      </trkpt>
      <trkpt lat="47.27576" lon="0.73666">
        <ele>88.1</ele>
        <time>2013-09-29T09:29:07Z</time>
      </trkpt>
      <trkpt lat="47.27665" lon="0.73679">
        <ele>88.58</ele>
        <time>2013-09-29T09:29:23Z</time>
      </trkpt>
      <trkpt lat="47.27758" lon="0.73685">
        <ele>88.58</ele>
        <time>2013-09-29T09:29:39Z</time>
      </trkpt>
      <trkpt lat="47.27856" lon="0.73695">
        <ele>89.06</ele>
        <time>2013-09-29T09:29:56Z</time>
      </trkpt>
      <trkpt lat="47.27946" lon="0.73733">
        <ele>89.06</ele>
        <time>2013-09-29T09:30:12Z</time>
      </trkpt>
      <trkpt lat="47.28031" lon="0.73789">
        <ele>89.54</ele>
        <time>2013-09-29T09:30:28Z</time>
      </trkpt>
      <trkpt lat="47.28071" lon="0.73812">
        <ele>89.06</ele>
        <time>2013-09-29T09:30:35Z</time>
      </trkpt>
      <trkpt lat="47.28152" lon="0.73841">
        <ele>88.58</ele>
        <time>2013-09-29T09:30:49Z</time>
      </trkpt>
      <trkpt lat="47.28178" lon="0.73845">
        <ele>88.1</ele>
        <time>2013-09-29T09:30:54Z</time>
      </trkpt>
      <trkpt lat="47.28237" lon="0.73825">
        <ele>87.14</ele>
        <time>2013-09-29T09:31:03Z</time>
      </trkpt>
      <trkpt lat="47.28281" lon="0.73797">
        <ele>84.25</ele>
        <time>2013-09-29T09:31:09Z</time>
      </trkpt>
      <trkpt lat="47.28307" lon="0.73782">
        <ele>79.93</ele>
        <time>2013-09-29T09:31:12Z</time>
      </trkpt>
      <trkpt lat="47.28317" lon="0.73777">
        <ele>78.97</ele>
        <time>2013-09-29T09:31:13Z</time>
      </trkpt>
      <trkpt lat="47.28352" lon="0.73767">
        <ele>74.64</ele>
        <time>2013-09-29T09:31:16Z</time>
      </trkpt>
      <trkpt lat="47.28388" lon="0.73758">
        <ele>71.76</ele>
        <time>2013-09-29T09:31:19Z</time>
      </trkpt>
      <trkpt lat="47.28423" lon="0.73749">
        <ele>69.35</ele>
        <time>2013-09-29T09:31:23Z</time>
      </trkpt>
      <trkpt lat="47.28434" lon="0.73744">
        <ele>69.35</ele>
        <time>2013-09-29T09:31:25Z</time>
      </trkpt>
      <trkpt lat="47.28445" lon="0.73756">
        <ele>68.87</ele>
        <time>2013-09-29T09:31:29Z</time>
      </trkpt>
      <trkpt lat="47.28448" lon="0.73767">
        <ele>69.35</ele>
        <time>2013-09-29T09:31:32Z</time>
      </trkpt>
      <trkpt lat="47.28488" lon="0.73755">
        <ele>67.43</ele>
        <time>2013-09-29T09:31:40Z</time>
      </trkpt>
      <trkpt lat="47.28553" lon="0.7373">
        <ele>64.07</ele>
        <time>2013-09-29T09:31:49Z</time>
      </trkpt>
      <trkpt lat="47.28565" lon="0.73726">
        <ele>63.1</ele>
        <time>2013-09-29T09:31:51Z</time>
      </trkpt>
      <trkpt lat="47.28605" lon="0.73709">
        <ele>61.18</ele>
        <time>2013-09-29T09:31:57Z</time>
      </trkpt>
      <trkpt lat="47.287" lon="0.73667">
        <ele>57.82</ele>
        <time>2013-09-29T09:32:11Z</time>
      </trkpt>
      <trkpt lat="47.28747" lon="0.73644">
        <ele>56.37</ele>
        <time>2013-09-29T09:32:20Z</time>
      </trkpt>
      <trkpt lat="47.28815" lon="0.73602">
        <ele>54.93</ele>
        <time>2013-09-29T09:32:32Z</time>
      </trkpt>
      <trkpt lat="47.28902" lon="0.73548">
        <ele>57.34</ele>
        <time>2013-09-29T09:32:48Z</time>
      </trkpt>
      <trkpt lat="47.28997" lon="0.73492">
        <ele>56.37</ele>
        <time>2013-09-29T09:33:04Z</time>
      </trkpt>
      <trkpt lat="47.29051" lon="0.73459">
        <ele>55.89</ele>
        <time>2013-09-29T09:33:14Z</time>
      </trkpt>
      <trkpt lat="47.29067" lon="0.73452">
        <ele>55.89</ele>
        <time>2013-09-29T09:33:17Z</time>
      </trkpt>
      <trkpt lat="47.29098" lon="0.73442">
        <ele>56.37</ele>
        <time>2013-09-29T09:33:23Z</time>
      </trkpt>
      <trkpt lat="47.29118" lon="0.73417">
        <ele>56.86</ele>
        <time>2013-09-29T09:33:28Z</time>
      </trkpt>
      <trkpt lat="47.29117" lon="0.73373">
        <ele>58.3</ele>
        <time>2013-09-29T09:33:35Z</time>
      </trkpt>
      <trkpt lat="47.29114" lon="0.73368">
        <ele>58.78</ele>
        <time>2013-09-29T09:33:36Z</time>
      </trkpt>
      <trkpt lat="47.29071" lon="0.73289">
        <ele>62.14</ele>
        <time>2013-09-29T09:33:53Z</time>
      </trkpt>
      <trkpt lat="47.29067" lon="0.73275">
        <ele>62.62</ele>
        <time>2013-09-29T09:33:56Z</time>
      </trkpt>
      <trkpt lat="47.29081" lon="0.73269">
        <ele>64.55</ele>
        <time>2013-09-29T09:34:03Z</time>
      </trkpt>
      <trkpt lat="47.29114" lon="0.73316">
        <ele>66.95</ele>
        <time>2013-09-29T09:34:16Z</time>
      </trkpt>
      <trkpt lat="47.29134" lon="0.73343">
        <ele>69.83</ele>
        <time>2013-09-29T09:34:27Z</time>
      </trkpt>
      <trkpt lat="47.29159" lon="0.73382">
        <ele>72.72</ele>
        <time>2013-09-29T09:34:40Z</time>
      </trkpt>
      <trkpt lat="47.29197" lon="0.73432">
        <ele>76.08</ele>
        <time>2013-09-29T09:34:55Z</time>
      </trkpt>
      <trkpt lat="47.29228" lon="0.73441">
        <ele>78.48</ele>
        <time>2013-09-29T09:35:08Z</time>
      </trkpt>
      <trkpt lat="47.2924" lon="0.73412">
        <ele>80.41</ele>
        <time>2013-09-29T09:35:16Z</time>
      </trkpt>
      <trkpt lat="47.29235" lon="0.73356">
        <ele>83.77</ele>
        <time>2013-09-29T09:35:31Z</time>
      </trkpt>
      <trkpt lat="47.29248" lon="0.73282">
        <ele>83.77</ele>
        <time>2013-09-29T09:35:44Z</time>
      </trkpt>
      <trkpt lat="47.29284" lon="0.73211">
        <ele>82.81</ele>
        <time>2013-09-29T09:35:59Z</time>
      </trkpt>
      <trkpt lat="47.29305" lon="0.73173">
        <ele>81.85</ele>
        <time>2013-09-29T09:36:05Z</time>
      </trkpt>
      <trkpt lat="47.29368" lon="0.73069">
        <ele>80.41</ele>
        <time>2013-09-29T09:36:19Z</time>
      </trkpt>
      <trkpt lat="47.29376" lon="0.73057">
        <ele>80.89</ele>
        <time>2013-09-29T09:36:21Z</time>
      </trkpt>
      <trkpt lat="47.29407" lon="0.72996">
        <ele>81.85</ele>
        <time>2013-09-29T09:36:30Z</time>
      </trkpt>
      <trkpt lat="47.29421" lon="0.72972">
        <ele>81.85</ele>
        <time>2013-09-29T09:36:34Z</time>
      </trkpt>
      <trkpt lat="47.29447" lon="0.72919">
        <ele>82.33</ele>
        <time>2013-09-29T09:36:42Z</time>
      </trkpt>
      <trkpt lat="47.29459" lon="0.72894">
        <ele>82.81</ele>
        <time>2013-09-29T09:36:46Z</time>
      </trkpt>
      <trkpt lat="47.29472" lon="0.72888">
        <ele>83.29</ele>
        <time>2013-09-29T09:36:50Z</time>
      </trkpt>
      <trkpt lat="47.29501" lon="0.72933">
        <ele>84.25</ele>
        <time>2013-09-29T09:37:01Z</time>
      </trkpt>
      <trkpt lat="47.29519" lon="0.72958">
        <ele>84.25</ele>
        <time>2013-09-29T09:37:06Z</time>
      </trkpt>
      <trkpt lat="47.29561" lon="0.7302">
        <ele>84.73</ele>
        <time>2013-09-29T09:37:19Z</time>
      </trkpt>
      <trkpt lat="47.29588" lon="0.73058">
        <ele>85.21</ele>
        <time>2013-09-29T09:37:26Z</time>
      </trkpt>
      <trkpt lat="47.29603" lon="0.73083">
        <ele>85.21</ele>
        <time>2013-09-29T09:37:30Z</time>
      </trkpt>
      <trkpt lat="47.29654" lon="0.73172">
        <ele>85.21</ele>
        <time>2013-09-29T09:37:43Z</time>
      </trkpt>
      <trkpt lat="47.29682" lon="0.73252">
        <ele>85.21</ele>
        <time>2013-09-29T09:37:54Z</time>
      </trkpt>
      <trkpt lat="47.29721" lon="0.7335">
        <ele>84.73</ele>
        <time>2013-09-29T09:38:08Z</time>
      </trkpt>
      <trkpt lat="47.29747" lon="0.73447">
        <ele>84.73</ele>
        <time>2013-09-29T09:38:20Z</time>
      </trkpt>
      <trkpt lat="47.29766" lon="0.73549">
        <ele>84.25</ele>
        <time>2013-09-29T09:38:30Z</time>
      </trkpt>
      <trkpt lat="47.29802" lon="0.73696">
        <ele>83.77</ele>
        <time>2013-09-29T09:38:46Z</time>
      </trkpt>
      <trkpt lat="47.29836" lon="0.73831">
        <ele>83.77</ele>
        <time>2013-09-29T09:39:02Z</time>
      </trkpt>
      <trkpt lat="47.29839" lon="0.73846">
        <ele>83.29</ele>
        <time>2013-09-29T09:39:04Z</time>
      </trkpt>
      <trkpt lat="47.2986" lon="0.73908">
        <ele>84.73</ele>
        <time>2013-09-29T09:39:18Z</time>
      </trkpt>
      <trkpt lat="47.29862" lon="0.73919">
        <ele>84.73</ele>
        <time>2013-09-29T09:39:21Z</time>
      </trkpt>
      <trkpt lat="47.29862" lon="0.73934">
        <ele>84.25</ele>
        <time>2013-09-29T09:39:30Z</time>
      </trkpt>
      <trkpt lat="47.29873" lon="0.73981">
        <ele>84.25</ele>
        <time>2013-09-29T09:39:41Z</time>
      </trkpt>
      <trkpt lat="47.29874" lon="0.74033">
        <ele>84.25</ele>
        <time>2013-09-29T09:39:51Z</time>
      </trkpt>
      <trkpt lat="47.29887" lon="0.74087">
        <ele>83.77</ele>
        <time>2013-09-29T09:40:03Z</time>
      </trkpt>
      <trkpt lat="47.29906" lon="0.74209">
        <ele>83.77</ele>
        <time>2013-09-29T09:40:20Z</time>
      </trkpt>
      <trkpt lat="47.29915" lon="0.74272">
        <ele>84.25</ele>
        <time>2013-09-29T09:40:31Z</time>
      </trkpt>
      <trkpt lat="47.29915" lon="0.74308">
        <ele>84.25</ele>
        <time>2013-09-29T09:40:35Z</time>
      </trkpt>
      <trkpt lat="47.29907" lon="0.74405">
        <ele>84.73</ele>
        <time>2013-09-29T09:40:41Z</time>
      </trkpt>
      <trkpt lat="47.29886" lon="0.74538">
        <ele>84.73</ele>
        <time>2013-09-29T09:40:56Z</time>
      </trkpt>
      <trkpt lat="47.29863" lon="0.74645">
        <ele>84.73</ele>
        <time>2013-09-29T09:41:09Z</time>
      </trkpt>
      <trkpt lat="47.29858" lon="0.74673">
        <ele>84.25</ele>
        <time>2013-09-29T09:41:12Z</time>
      </trkpt>
      <trkpt lat="47.29854" lon="0.7469">
        <ele>84.73</ele>
        <time>2013-09-29T09:41:14Z</time>
      </trkpt>
      <trkpt lat="47.29841" lon="0.74773">
        <ele>85.21</ele>
        <time>2013-09-29T09:41:24Z</time>
      </trkpt>
      <trkpt lat="47.29816" lon="0.74915">
        <ele>85.69</ele>
        <time>2013-09-29T09:41:41Z</time>
      </trkpt>
      <trkpt lat="47.29811" lon="0.74942">
        <ele>86.18</ele>
        <time>2013-09-29T09:41:45Z</time>
      </trkpt>
      <trkpt lat="47.29811" lon="0.74993">
        <ele>86.66</ele>
        <time>2013-09-29T09:41:53Z</time>
      </trkpt>
      <trkpt lat="47.29816" lon="0.75011">
        <ele>86.66</ele>
        <time>2013-09-29T09:41:56Z</time>
      </trkpt>
      <trkpt lat="47.29847" lon="0.75096">
        <ele>86.66</ele>
        <time>2013-09-29T09:42:10Z</time>
      </trkpt>
      <trkpt lat="47.2989" lon="0.7516">
        <ele>86.66</ele>
        <time>2013-09-29T09:42:22Z</time>
      </trkpt>
      <trkpt lat="47.29897" lon="0.75176">
        <ele>86.66</ele>
        <time>2013-09-29T09:42:24Z</time>
      </trkpt>
      <trkpt lat="47.29929" lon="0.75341">
        <ele>86.66</ele>
        <time>2013-09-29T09:42:36Z</time>
      </trkpt>
      <trkpt lat="47.29965" lon="0.75461">
        <ele>86.18</ele>
        <time>2013-09-29T09:42:50Z</time>
      </trkpt>
      <trkpt lat="47.30022" lon="0.75581">
        <ele>86.66</ele>
        <time>2013-09-29T09:43:06Z</time>
      </trkpt>
      <trkpt lat="47.30112" lon="0.75656">
        <ele>87.14</ele>
        <time>2013-09-29T09:43:23Z</time>
      </trkpt>
      <trkpt lat="47.30187" lon="0.75733">
        <ele>87.14</ele>
        <time>2013-09-29T09:43:38Z</time>
      </trkpt>
      <trkpt lat="47.30269" lon="0.75813">
        <ele>86.66</ele>
        <time>2013-09-29T09:43:54Z</time>
      </trkpt>
      <trkpt lat="47.30353" lon="0.75889">
        <ele>86.66</ele>
        <time>2013-09-29T09:44:10Z</time>
      </trkpt>
      <trkpt lat="47.30446" lon="0.75986">
        <ele>86.66</ele>
        <time>2013-09-29T09:44:28Z</time>
      </trkpt>
      <trkpt lat="47.30534" lon="0.76076">
        <ele>86.18</ele>
        <time>2013-09-29T09:44:45Z</time>
      </trkpt>
      <trkpt lat="47.30616" lon="0.76165">
        <ele>85.21</ele>
        <time>2013-09-29T09:45:01Z</time>
      </trkpt>
      <trkpt lat="47.30621" lon="0.76172">
        <ele>85.69</ele>
        <time>2013-09-29T09:45:02Z</time>
      </trkpt>
      <trkpt lat="47.30668" lon="0.76282">
        <ele>86.18</ele>
        <time>2013-09-29T09:45:17Z</time>
      </trkpt>
      <trkpt lat="47.30719" lon="0.76415">
        <ele>85.21</ele>
        <time>2013-09-29T09:45:34Z</time>
      </trkpt>
      <trkpt lat="47.30759" lon="0.76498">
        <ele>82.33</ele>
        <time>2013-09-29T09:45:43Z</time>
      </trkpt>
      <trkpt lat="47.30809" lon="0.7661">
        <ele>81.85</ele>
        <time>2013-09-29T09:45:54Z</time>
      </trkpt>
      <trkpt lat="47.30833" lon="0.76672">
        <ele>84.25</ele>
        <time>2013-09-29T09:46:04Z</time>
      </trkpt>
      <trkpt lat="47.30844" lon="0.76693">
        <ele>85.21</ele>
        <time>2013-09-29T09:46:08Z</time>
      </trkpt>
      <trkpt lat="47.30878" lon="0.76799">
        <ele>85.69</ele>
        <time>2013-09-29T09:46:20Z</time>
      </trkpt>
      <trkpt lat="47.30929" lon="0.76908">
        <ele>86.66</ele>
        <time>2013-09-29T09:46:35Z</time>
      </trkpt>
      <trkpt lat="47.30987" lon="0.76996">
        <ele>86.18</ele>
        <time>2013-09-29T09:46:50Z</time>
      </trkpt>
      <trkpt lat="47.31032" lon="0.77064">
        <ele>86.18</ele>
        <time>2013-09-29T09:47:02Z</time>
      </trkpt>
      <trkpt lat="47.3105" lon="0.77079">
        <ele>86.18</ele>
        <time>2013-09-29T09:47:06Z</time>
      </trkpt>
      <trkpt lat="47.31059" lon="0.77083">
        <ele>85.69</ele>
        <time>2013-09-29T09:47:08Z</time>
      </trkpt>
      <trkpt lat="47.31081" lon="0.77117">
        <ele>86.18</ele>
        <time>2013-09-29T09:47:14Z</time>
      </trkpt>
      <trkpt lat="47.31099" lon="0.77164">
        <ele>85.69</ele>
        <time>2013-09-29T09:47:20Z</time>
      </trkpt>
      <trkpt lat="47.31112" lon="0.77231">
        <ele>86.18</ele>
        <time>2013-09-29T09:47:34Z</time>
      </trkpt>
      <trkpt lat="47.31112" lon="0.77237">
        <ele>86.18</ele>
        <time>2013-09-29T09:47:41Z</time>
      </trkpt>
      <trkpt lat="47.31124" lon="0.77242">
        <ele>86.66</ele>
        <time>2013-09-29T09:47:48Z</time>
      </trkpt>
      <trkpt lat="47.31172" lon="0.77226">
        <ele>90.02</ele>
        <time>2013-09-29T09:48:01Z</time>
      </trkpt>
      <trkpt lat="47.3122" lon="0.77201">
        <ele>93.39</ele>
        <time>2013-09-29T09:48:14Z</time>
      </trkpt>
      <trkpt lat="47.31297" lon="0.77156">
        <ele>94.83</ele>
        <time>2013-09-29T09:48:33Z</time>
      </trkpt>
      <trkpt lat="47.31353" lon="0.77111">
        <ele>91.46</ele>
        <time>2013-09-29T09:48:43Z</time>
      </trkpt>
      <trkpt lat="47.3136" lon="0.77104">
        <ele>90.98</ele>
        <time>2013-09-29T09:48:44Z</time>
      </trkpt>
      <trkpt lat="47.31396" lon="0.77068">
        <ele>89.06</ele>
        <time>2013-09-29T09:48:49Z</time>
      </trkpt>
      <trkpt lat="47.31499" lon="0.76973">
        <ele>88.1</ele>
        <time>2013-09-29T09:49:04Z</time>
      </trkpt>
      <trkpt lat="47.31576" lon="0.76924">
        <ele>88.1</ele>
        <time>2013-09-29T09:49:18Z</time>
      </trkpt>
      <trkpt lat="47.31662" lon="0.76903">
        <ele>88.58</ele>
        <time>2013-09-29T09:49:31Z</time>
      </trkpt>
      <trkpt lat="47.31778" lon="0.76886">
        <ele>89.54</ele>
        <time>2013-09-29T09:49:49Z</time>
      </trkpt>
      <trkpt lat="47.31909" lon="0.76867">
        <ele>89.54</ele>
        <time>2013-09-29T09:50:10Z</time>
      </trkpt>
      <trkpt lat="47.31934" lon="0.76854">
        <ele>89.54</ele>
        <time>2013-09-29T09:50:14Z</time>
      </trkpt>
      <trkpt lat="47.32026" lon="0.76749">
        <ele>90.02</ele>
        <time>2013-09-29T09:50:32Z</time>
      </trkpt>
      <trkpt lat="47.32134" lon="0.76619">
        <ele>90.5</ele>
        <time>2013-09-29T09:50:54Z</time>
      </trkpt>
      <trkpt lat="47.32243" lon="0.76485">
        <ele>90.98</ele>
        <time>2013-09-29T09:51:16Z</time>
      </trkpt>
      <trkpt lat="47.32288" lon="0.76431">
        <ele>90.98</ele>
        <time>2013-09-29T09:51:25Z</time>
      </trkpt>
      <trkpt lat="47.32319" lon="0.76413">
        <ele>90.98</ele>
        <time>2013-09-29T09:51:31Z</time>
      </trkpt>
      <trkpt lat="47.32348" lon="0.7642">
        <ele>90.5</ele>
        <time>2013-09-29T09:51:37Z</time>
      </trkpt>
      <trkpt lat="47.32359" lon="0.76427">
        <ele>90.98</ele>
        <time>2013-09-29T09:51:40Z</time>
      </trkpt>
      <trkpt lat="47.32378" lon="0.764">
        <ele>90.5</ele>
        <time>2013-09-29T09:51:46Z</time>
      </trkpt>
      <trkpt lat="47.32462" lon="0.76304">
        <ele>90.5</ele>
        <time>2013-09-29T09:52:03Z</time>
      </trkpt>
      <trkpt lat="47.32476" lon="0.76236">
        <ele>90.98</ele>
        <time>2013-09-29T09:52:12Z</time>
      </trkpt>
      <trkpt lat="47.32472" lon="0.76219">
        <ele>90.98</ele>
        <time>2013-09-29T09:52:14Z</time>
      </trkpt>
      <trkpt lat="47.32442" lon="0.76062">
        <ele>91.94</ele>
        <time>2013-09-29T09:52:32Z</time>
      </trkpt>
      <trkpt lat="47.32433" lon="0.75925">
        <ele>91.46</ele>
        <time>2013-09-29T09:52:47Z</time>
      </trkpt>
      <trkpt lat="47.32419" lon="0.7581">
        <ele>91.46</ele>
        <time>2013-09-29T09:53:01Z</time>
      </trkpt>
      <trkpt lat="47.32378" lon="0.75644">
        <ele>89.54</ele>
        <time>2013-09-29T09:53:19Z</time>
      </trkpt>
      <trkpt lat="47.32339" lon="0.75505">
        <ele>89.06</ele>
        <time>2013-09-29T09:53:35Z</time>
      </trkpt>
      <trkpt lat="47.32312" lon="0.75401">
        <ele>88.1</ele>
        <time>2013-09-29T09:53:50Z</time>
      </trkpt>
      <trkpt lat="47.32311" lon="0.75397">
        <ele>88.58</ele>
        <time>2013-09-29T09:53:51Z</time>
      </trkpt>
      <trkpt lat="47.32317" lon="0.7538">
        <ele>88.58</ele>
        <time>2013-09-29T09:53:55Z</time>
      </trkpt>
      <trkpt lat="47.32382" lon="0.75333">
        <ele>90.02</ele>
        <time>2013-09-29T09:54:09Z</time>
      </trkpt>
      <trkpt lat="47.32467" lon="0.75268">
        <ele>90.5</ele>
        <time>2013-09-29T09:54:27Z</time>
      </trkpt>
      <trkpt lat="47.32496" lon="0.75244">
        <ele>90.02</ele>
        <time>2013-09-29T09:54:33Z</time>
      </trkpt>
      <trkpt lat="47.32532" lon="0.75222">
        <ele>89.54</ele>
        <time>2013-09-29T09:54:41Z</time>
      </trkpt>
      <trkpt lat="47.3258" lon="0.75169">
        <ele>89.54</ele>
        <time>2013-09-29T09:54:52Z</time>
      </trkpt>
      <trkpt lat="47.32608" lon="0.75154">
        <ele>89.54</ele>
        <time>2013-09-29T09:54:57Z</time>
      </trkpt>
      <trkpt lat="47.32628" lon="0.75138">
        <ele>90.02</ele>
        <time>2013-09-29T09:55:01Z</time>
      </trkpt>
      <trkpt lat="47.32641" lon="0.75119">
        <ele>89.54</ele>
        <time>2013-09-29T09:55:04Z</time>
      </trkpt>
      <trkpt lat="47.32663" lon="0.75103">
        <ele>89.54</ele>
        <time>2013-09-29T09:55:08Z</time>
      </trkpt>
      <trkpt lat="47.32739" lon="0.75093">
        <ele>90.02</ele>
        <time>2013-09-29T09:55:22Z</time>
      </trkpt>
      <trkpt lat="47.32756" lon="0.75084">
        <ele>90.5</ele>
        <time>2013-09-29T09:55:25Z</time>
      </trkpt>
      <trkpt lat="47.32834" lon="0.75026">
        <ele>90.98</ele>
        <time>2013-09-29T09:55:40Z</time>
      </trkpt>
      <trkpt lat="47.32921" lon="0.74997">
        <ele>90.98</ele>
        <time>2013-09-29T09:55:55Z</time>
      </trkpt>
      <trkpt lat="47.3303" lon="0.74942">
        <ele>91.94</ele>
        <time>2013-09-29T09:56:15Z</time>
      </trkpt>
      <trkpt lat="47.33093" lon="0.74912">
        <ele>92.9</ele>
        <time>2013-09-29T09:56:28Z</time>
      </trkpt>
      <trkpt lat="47.33112" lon="0.74887">
        <ele>93.87</ele>
        <time>2013-09-29T09:56:33Z</time>
      </trkpt>
      <trkpt lat="47.33169" lon="0.74729">
        <ele>93.87</ele>
        <time>2013-09-29T09:56:53Z</time>
      </trkpt>
      <trkpt lat="47.33171" lon="0.74721">
        <ele>93.39</ele>
        <time>2013-09-29T09:56:54Z</time>
      </trkpt>
      <trkpt lat="47.33174" lon="0.7466">
        <ele>93.39</ele>
        <time>2013-09-29T09:57:02Z</time>
      </trkpt>
      <trkpt lat="47.33204" lon="0.74625">
        <ele>93.87</ele>
        <time>2013-09-29T09:57:11Z</time>
      </trkpt>
      <trkpt lat="47.33236" lon="0.74654">
        <ele>94.35</ele>
        <time>2013-09-29T09:57:18Z</time>
      </trkpt>
      <trkpt lat="47.33253" lon="0.7466">
        <ele>93.87</ele>
        <time>2013-09-29T09:57:21Z</time>
      </trkpt>
      <trkpt lat="47.33289" lon="0.74687">
        <ele>92.9</ele>
        <time>2013-09-29T09:57:28Z</time>
      </trkpt>
      <trkpt lat="47.33332" lon="0.74818">
        <ele>92.9</ele>
        <time>2013-09-29T09:57:44Z</time>
      </trkpt>
      <trkpt lat="47.33369" lon="0.74936">
        <ele>93.39</ele>
        <time>2013-09-29T09:57:58Z</time>
      </trkpt>
      <trkpt lat="47.33403" lon="0.75035">
        <ele>93.39</ele>
        <time>2013-09-29T09:58:10Z</time>
      </trkpt>
      <trkpt lat="47.33439" lon="0.75147">
        <ele>93.39</ele>
        <time>2013-09-29T09:58:24Z</time>
      </trkpt>
      <trkpt lat="47.33465" lon="0.75228">
        <ele>93.87</ele>
        <time>2013-09-29T09:58:35Z</time>
      </trkpt>
      <trkpt lat="47.33477" lon="0.75253">
        <ele>93.39</ele>
        <time>2013-09-29T09:58:40Z</time>
      </trkpt>
      <trkpt lat="47.33488" lon="0.75255">
        <ele>93.87</ele>
        <time>2013-09-29T09:58:44Z</time>
      </trkpt>
      <trkpt lat="47.33503" lon="0.75226">
        <ele>93.39</ele>
        <time>2013-09-29T09:58:50Z</time>
      </trkpt>
      <trkpt lat="47.33529" lon="0.75194">
        <ele>94.35</ele>
        <time>2013-09-29T09:58:56Z</time>
      </trkpt>
      <trkpt lat="47.33608" lon="0.75141">
        <ele>93.87</ele>
        <time>2013-09-29T09:59:10Z</time>
      </trkpt>
      <trkpt lat="47.33694" lon="0.75085">
        <ele>93.87</ele>
        <time>2013-09-29T09:59:25Z</time>
      </trkpt>
      <trkpt lat="47.33786" lon="0.75025">
        <ele>93.87</ele>
        <time>2013-09-29T09:59:43Z</time>
      </trkpt>
      <trkpt lat="47.33879" lon="0.74964">
        <ele>92.42</ele>
        <time>2013-09-29T09:59:59Z</time>
      </trkpt>
      <trkpt lat="47.33957" lon="0.74893">
        <ele>91.46</ele>
        <time>2013-09-29T10:00:15Z</time>
      </trkpt>
      <trkpt lat="47.33966" lon="0.74886">
        <ele>90.98</ele>
        <time>2013-09-29T10:00:17Z</time>
      </trkpt>
      <trkpt lat="47.33999" lon="0.74859">
        <ele>90.98</ele>
        <time>2013-09-29T10:00:23Z</time>
      </trkpt>
      <trkpt lat="47.34044" lon="0.74849">
        <ele>90.5</ele>
        <time>2013-09-29T10:00:30Z</time>
      </trkpt>
      <trkpt lat="47.34069" lon="0.74834">
        <ele>90.98</ele>
        <time>2013-09-29T10:00:34Z</time>
      </trkpt>
      <trkpt lat="47.34116" lon="0.74782">
        <ele>91.94</ele>
        <time>2013-09-29T10:00:45Z</time>
      </trkpt>
      <trkpt lat="47.34186" lon="0.747">
        <ele>91.46</ele>
        <time>2013-09-29T10:01:00Z</time>
      </trkpt>
      <trkpt lat="47.34273" lon="0.74623">
        <ele>91.94</ele>
        <time>2013-09-29T10:01:17Z</time>
      </trkpt>
      <trkpt lat="47.34384" lon="0.74561">
        <ele>92.9</ele>
        <time>2013-09-29T10:01:37Z</time>
      </trkpt>
      <trkpt lat="47.34477" lon="0.7451">
        <ele>93.87</ele>
        <time>2013-09-29T10:01:54Z</time>
      </trkpt>
      <trkpt lat="47.34561" lon="0.74468">
        <ele>93.87</ele>
        <time>2013-09-29T10:02:09Z</time>
      </trkpt>
      <trkpt lat="47.34661" lon="0.74439">
        <ele>94.35</ele>
        <time>2013-09-29T10:02:26Z</time>
      </trkpt>
      <trkpt lat="47.34767" lon="0.74394">
        <ele>92.42</ele>
        <time>2013-09-29T10:02:44Z</time>
      </trkpt>
      <trkpt lat="47.34773" lon="0.7439">
        <ele>92.9</ele>
        <time>2013-09-29T10:02:45Z</time>
      </trkpt>
      <trkpt lat="47.34834" lon="0.74304">
        <ele>93.39</ele>
        <time>2013-09-29T10:02:59Z</time>
      </trkpt>
      <trkpt lat="47.3489" lon="0.74218">
        <ele>93.87</ele>
        <time>2013-09-29T10:03:12Z</time>
      </trkpt>
      <trkpt lat="47.34952" lon="0.74152">
        <ele>94.35</ele>
        <time>2013-09-29T10:03:25Z</time>
      </trkpt>
      <trkpt lat="47.34971" lon="0.74124">
        <ele>94.35</ele>
        <time>2013-09-29T10:03:29Z</time>
      </trkpt>
      <trkpt lat="47.34999" lon="0.74075">
        <ele>92.42</ele>
        <time>2013-09-29T10:03:36Z</time>
      </trkpt>
      <trkpt lat="47.35034" lon="0.74041">
        <ele>90.98</ele>
        <time>2013-09-29T10:03:46Z</time>
      </trkpt>
      <trkpt lat="47.35067" lon="0.74012">
        <ele>89.06</ele>
        <time>2013-09-29T10:03:52Z</time>
      </trkpt>
      <trkpt lat="47.35149" lon="0.73959">
        <ele>87.62</ele>
        <time>2013-09-29T10:04:06Z</time>
      </trkpt>
      <trkpt lat="47.35244" lon="0.7394">
        <ele>86.66</ele>
        <time>2013-09-29T10:04:22Z</time>
      </trkpt>
      <trkpt lat="47.35342" lon="0.73924">
        <ele>86.18</ele>
        <time>2013-09-29T10:04:38Z</time>
      </trkpt>
      <trkpt lat="47.35387" lon="0.73915">
        <ele>86.18</ele>
        <time>2013-09-29T10:04:46Z</time>
      </trkpt>
      <trkpt lat="47.35402" lon="0.73906">
        <ele>86.18</ele>
        <time>2013-09-29T10:04:49Z</time>
      </trkpt>
      <trkpt lat="47.35484" lon="0.73838">
        <ele>87.14</ele>
        <time>2013-09-29T10:05:05Z</time>
      </trkpt>
      <trkpt lat="47.35556" lon="0.73781">
        <ele>85.69</ele>
        <time>2013-09-29T10:05:20Z</time>
      </trkpt>
      <trkpt lat="47.35571" lon="0.73738">
        <ele>84.73</ele>
        <time>2013-09-29T10:05:29Z</time>
      </trkpt>
      <trkpt lat="47.35577" lon="0.73706">
        <ele>84.25</ele>
        <time>2013-09-29T10:05:33Z</time>
      </trkpt>
      <trkpt lat="47.35594" lon="0.73633">
        <ele>83.77</ele>
        <time>2013-09-29T10:05:43Z</time>
      </trkpt>
      <trkpt lat="47.35629" lon="0.73577">
        <ele>83.77</ele>
        <time>2013-09-29T10:05:52Z</time>
      </trkpt>
      <trkpt lat="47.35649" lon="0.7355">
        <ele>83.29</ele>
        <time>2013-09-29T10:05:57Z</time>
      </trkpt>
      <trkpt lat="47.35695" lon="0.7343">
        <ele>81.37</ele>
        <time>2013-09-29T10:06:13Z</time>
      </trkpt>
      <trkpt lat="47.35701" lon="0.73414">
        <ele>81.37</ele>
        <time>2013-09-29T10:06:15Z</time>
      </trkpt>
      <trkpt lat="47.35722" lon="0.73377">
        <ele>81.37</ele>
        <time>2013-09-29T10:06:21Z</time>
      </trkpt>
      <trkpt lat="47.35736" lon="0.73362">
        <ele>81.85</ele>
        <time>2013-09-29T10:06:24Z</time>
      </trkpt>
      <trkpt lat="47.35795" lon="0.73309">
        <ele>82.81</ele>
        <time>2013-09-29T10:06:36Z</time>
      </trkpt>
      <trkpt lat="47.35821" lon="0.73318">
        <ele>82.81</ele>
        <time>2013-09-29T10:06:42Z</time>
      </trkpt>
      <trkpt lat="47.35883" lon="0.73428">
        <ele>79.45</ele>
        <time>2013-09-29T10:06:56Z</time>
      </trkpt>
      <trkpt lat="47.35951" lon="0.73532">
        <ele>80.41</ele>
        <time>2013-09-29T10:07:11Z</time>
      </trkpt>
      <trkpt lat="47.35972" lon="0.73566">
        <ele>79.93</ele>
        <time>2013-09-29T10:07:17Z</time>
      </trkpt>
      <trkpt lat="47.36017" lon="0.73621">
        <ele>78</ele>
        <time>2013-09-29T10:07:27Z</time>
      </trkpt>
      <trkpt lat="47.36086" lon="0.73659">
        <ele>78.97</ele>
        <time>2013-09-29T10:07:38Z</time>
      </trkpt>
      <trkpt lat="47.36118" lon="0.73699">
        <ele>82.33</ele>
        <time>2013-09-29T10:07:45Z</time>
      </trkpt>
      <trkpt lat="47.36167" lon="0.73775">
        <ele>84.25</ele>
        <time>2013-09-29T10:07:59Z</time>
      </trkpt>
      <trkpt lat="47.36232" lon="0.73863">
        <ele>84.25</ele>
        <time>2013-09-29T10:08:14Z</time>
      </trkpt>
      <trkpt lat="47.36292" lon="0.73966">
        <ele>86.66</ele>
        <time>2013-09-29T10:08:32Z</time>
      </trkpt>
      <trkpt lat="47.363" lon="0.73981">
        <ele>87.14</ele>
        <time>2013-09-29T10:08:36Z</time>
      </trkpt>
      <trkpt lat="47.36327" lon="0.73968">
        <ele>87.14</ele>
        <time>2013-09-29T10:08:44Z</time>
      </trkpt>
      <trkpt lat="47.36387" lon="0.73915">
        <ele>86.66</ele>
        <time>2013-09-29T10:08:57Z</time>
      </trkpt>
      <trkpt lat="47.36425" lon="0.73885">
        <ele>85.69</ele>
        <time>2013-09-29T10:09:04Z</time>
      </trkpt>
      <trkpt lat="47.36507" lon="0.73852">
        <ele>86.18</ele>
        <time>2013-09-29T10:09:18Z</time>
      </trkpt>
      <trkpt lat="47.36518" lon="0.7385">
        <ele>86.18</ele>
        <time>2013-09-29T10:09:20Z</time>
      </trkpt>
      <trkpt lat="47.36547" lon="0.73841">
        <ele>86.18</ele>
        <time>2013-09-29T10:09:25Z</time>
      </trkpt>
      <trkpt lat="47.36622" lon="0.73843">
        <ele>85.69</ele>
        <time>2013-09-29T10:09:38Z</time>
      </trkpt>
      <trkpt lat="47.36627" lon="0.73843">
        <ele>85.21</ele>
        <time>2013-09-29T10:09:39Z</time>
      </trkpt>
      <trkpt lat="47.36689" lon="0.73828">
        <ele>82.81</ele>
        <time>2013-09-29T10:09:51Z</time>
      </trkpt>
      <trkpt lat="47.36699" lon="0.7383">
        <ele>82.33</ele>
        <time>2013-09-29T10:09:54Z</time>
      </trkpt>
      <trkpt lat="47.36723" lon="0.73829">
        <ele>79.45</ele>
        <time>2013-09-29T10:09:59Z</time>
      </trkpt>
      <trkpt lat="47.36732" lon="0.73829">
        <ele>78.48</ele>
        <time>2013-09-29T10:10:01Z</time>
      </trkpt>
      <trkpt lat="47.36748" lon="0.73826">
        <ele>77.04</ele>
        <time>2013-09-29T10:10:03Z</time>
      </trkpt>
      <trkpt lat="47.36781" lon="0.73806">
        <ele>73.68</ele>
        <time>2013-09-29T10:10:08Z</time>
      </trkpt>
      <trkpt lat="47.36802" lon="0.7379">
        <ele>71.27</ele>
        <time>2013-09-29T10:10:12Z</time>
      </trkpt>
      <trkpt lat="47.36828" lon="0.73804">
        <ele>68.87</ele>
        <time>2013-09-29T10:10:17Z</time>
      </trkpt>
      <trkpt lat="47.36843" lon="0.73835">
        <ele>66.47</ele>
        <time>2013-09-29T10:10:26Z</time>
      </trkpt>
      <trkpt lat="47.36844" lon="0.73834">
        <ele>66.47</ele>
        <time>2013-09-29T10:10:42Z</time>
      </trkpt>
      <trkpt lat="47.36844" lon="0.73834">
        <ele>66.47</ele>
        <time>2013-09-29T10:11:01Z</time>
      </trkpt>
      <trkpt lat="47.36862" lon="0.7382">
        <ele>65.03</ele>
        <time>2013-09-29T10:11:09Z</time>
      </trkpt>
      <trkpt lat="47.36858" lon="0.73684">
        <ele>61.66</ele>
        <time>2013-09-29T10:11:24Z</time>
      </trkpt>
      <trkpt lat="47.36853" lon="0.73533">
        <ele>58.3</ele>
        <time>2013-09-29T10:11:37Z</time>
      </trkpt>
      <trkpt lat="47.36845" lon="0.73378">
        <ele>55.41</ele>
        <time>2013-09-29T10:11:49Z</time>
      </trkpt>
      <trkpt lat="47.36812" lon="0.73208">
        <ele>53.97</ele>
        <time>2013-09-29T10:12:05Z</time>
      </trkpt>
      <trkpt lat="47.36807" lon="0.73172">
        <ele>54.45</ele>
        <time>2013-09-29T10:12:09Z</time>
      </trkpt>
      <trkpt lat="47.36828" lon="0.73121">
        <ele>54.45</ele>
        <time>2013-09-29T10:12:17Z</time>
      </trkpt>
      <trkpt lat="47.36882" lon="0.73109">
        <ele>54.93</ele>
        <time>2013-09-29T10:12:26Z</time>
      </trkpt>
      <trkpt lat="47.36904" lon="0.7307">
        <ele>54.93</ele>
        <time>2013-09-29T10:12:33Z</time>
      </trkpt>
      <trkpt lat="47.36883" lon="0.7295">
        <ele>54.45</ele>
        <time>2013-09-29T10:12:47Z</time>
      </trkpt>
      <trkpt lat="47.36861" lon="0.72863">
        <ele>54.45</ele>
        <time>2013-09-29T10:13:02Z</time>
      </trkpt>
      <trkpt lat="47.36856" lon="0.72832">
        <ele>54.45</ele>
        <time>2013-09-29T10:13:16Z</time>
      </trkpt>
      <trkpt lat="47.36852" lon="0.7281">
        <ele>54.93</ele>
        <time>2013-09-29T10:13:36Z</time>
      </trkpt>
      <trkpt lat="47.3685" lon="0.72799">
        <ele>54.93</ele>
        <time>2013-09-29T10:13:38Z</time>
      </trkpt>
      <trkpt lat="47.36843" lon="0.72702">
        <ele>54.45</ele>
        <time>2013-09-29T10:13:51Z</time>
      </trkpt>
      <trkpt lat="47.36843" lon="0.7263">
        <ele>54.45</ele>
        <time>2013-09-29T10:14:00Z</time>
      </trkpt>
      <trkpt lat="47.36852" lon="0.72603">
        <ele>54.93</ele>
        <time>2013-09-29T10:14:04Z</time>
      </trkpt>
      <trkpt lat="47.36905" lon="0.72536">
        <ele>54.93</ele>
        <time>2013-09-29T10:14:17Z</time>
      </trkpt>
      <trkpt lat="47.36971" lon="0.7244">
        <ele>56.86</ele>
        <time>2013-09-29T10:14:33Z</time>
      </trkpt>
      <trkpt lat="47.37038" lon="0.72337">
        <ele>53.97</ele>
        <time>2013-09-29T10:14:48Z</time>
      </trkpt>
      <trkpt lat="47.37095" lon="0.72249">
        <ele>52.53</ele>
        <time>2013-09-29T10:15:00Z</time>
      </trkpt>
      <trkpt lat="47.37131" lon="0.72229">
        <ele>52.05</ele>
        <time>2013-09-29T10:15:06Z</time>
      </trkpt>
      <trkpt lat="47.37157" lon="0.72228">
        <ele>53.49</ele>
        <time>2013-09-29T10:15:10Z</time>
      </trkpt>
      <trkpt lat="47.37196" lon="0.72182">
        <ele>54.93</ele>
        <time>2013-09-29T10:15:19Z</time>
      </trkpt>
      <trkpt lat="47.37199" lon="0.72164">
        <ele>54.93</ele>
        <time>2013-09-29T10:15:21Z</time>
      </trkpt>
      <trkpt lat="47.37207" lon="0.71996">
        <ele>54.93</ele>
        <time>2013-09-29T10:15:38Z</time>
      </trkpt>
      <trkpt lat="47.37206" lon="0.71856">
        <ele>54.93</ele>
        <time>2013-09-29T10:15:54Z</time>
      </trkpt>
      <trkpt lat="47.37197" lon="0.7181">
        <ele>54.93</ele>
        <time>2013-09-29T10:16:01Z</time>
      </trkpt>
      <trkpt lat="47.37191" lon="0.71744">
        <ele>55.41</ele>
        <time>2013-09-29T10:16:10Z</time>
      </trkpt>
      <trkpt lat="47.37186" lon="0.71728">
        <ele>55.41</ele>
        <time>2013-09-29T10:16:12Z</time>
      </trkpt>
      <trkpt lat="47.3717" lon="0.71644">
        <ele>56.37</ele>
        <time>2013-09-29T10:16:26Z</time>
      </trkpt>
      <trkpt lat="47.37171" lon="0.71629">
        <ele>56.86</ele>
        <time>2013-09-29T10:16:37Z</time>
      </trkpt>
      <trkpt lat="47.37171" lon="0.71629">
        <ele>56.86</ele>
        <time>2013-09-29T10:17:05Z</time>
      </trkpt>
      <trkpt lat="47.37175" lon="0.71617">
        <ele>56.86</ele>
        <time>2013-09-29T10:17:24Z</time>
      </trkpt>
      <trkpt lat="47.37196" lon="0.71606">
        <ele>56.86</ele>
        <time>2013-09-29T10:17:29Z</time>
      </trkpt>
      <trkpt lat="47.37292" lon="0.71601">
        <ele>58.3</ele>
        <time>2013-09-29T10:17:45Z</time>
      </trkpt>
      <trkpt lat="47.37381" lon="0.71589">
        <ele>57.34</ele>
        <time>2013-09-29T10:18:02Z</time>
      </trkpt>
      <trkpt lat="47.37443" lon="0.7158">
        <ele>56.86</ele>
        <time>2013-09-29T10:18:16Z</time>
      </trkpt>
      <trkpt lat="47.37461" lon="0.71598">
        <ele>56.86</ele>
        <time>2013-09-29T10:18:21Z</time>
      </trkpt>
      <trkpt lat="47.37493" lon="0.71613">
        <ele>55.89</ele>
        <time>2013-09-29T10:18:29Z</time>
      </trkpt>
      <trkpt lat="47.37498" lon="0.71601">
        <ele>55.89</ele>
        <time>2013-09-29T10:18:31Z</time>
      </trkpt>
      <trkpt lat="47.375" lon="0.71587">
        <ele>55.89</ele>
        <time>2013-09-29T10:18:33Z</time>
      </trkpt>
      <trkpt lat="47.37524" lon="0.71559">
        <ele>55.41</ele>
        <time>2013-09-29T10:18:39Z</time>
      </trkpt>
      <trkpt lat="47.37547" lon="0.71552">
        <ele>55.41</ele>
        <time>2013-09-29T10:18:43Z</time>
      </trkpt>
      <trkpt lat="47.37671" lon="0.71496">
        <ele>53.49</ele>
        <time>2013-09-29T10:19:03Z</time>
      </trkpt>
      <trkpt lat="47.37734" lon="0.71468">
        <ele>53.01</ele>
        <time>2013-09-29T10:19:13Z</time>
      </trkpt>
      <trkpt lat="47.37751" lon="0.71465">
        <ele>52.53</ele>
        <time>2013-09-29T10:19:16Z</time>
      </trkpt>
      <trkpt lat="47.37777" lon="0.71492">
        <ele>53.01</ele>
        <time>2013-09-29T10:19:22Z</time>
      </trkpt>
      <trkpt lat="47.37808" lon="0.71523">
        <ele>53.01</ele>
        <time>2013-09-29T10:19:30Z</time>
      </trkpt>
      <trkpt lat="47.37819" lon="0.71487">
        <ele>53.01</ele>
        <time>2013-09-29T10:19:36Z</time>
      </trkpt>
      <trkpt lat="47.37818" lon="0.71468">
        <ele>53.01</ele>
        <time>2013-09-29T10:19:39Z</time>
      </trkpt>
      <trkpt lat="47.37833" lon="0.71424">
        <ele>53.01</ele>
        <time>2013-09-29T10:19:46Z</time>
      </trkpt>
      <trkpt lat="47.37843" lon="0.71411">
        <ele>52.53</ele>
        <time>2013-09-29T10:19:49Z</time>
      </trkpt>
      <trkpt lat="47.3792" lon="0.71363">
        <ele>52.53</ele>
        <time>2013-09-29T10:20:04Z</time>
      </trkpt>
      <trkpt lat="47.38024" lon="0.71303">
        <ele>54.45</ele>
        <time>2013-09-29T10:20:23Z</time>
      </trkpt>
      <trkpt lat="47.3807" lon="0.71276">
        <ele>57.34</ele>
        <time>2013-09-29T10:20:34Z</time>
      </trkpt>
      <trkpt lat="47.38114" lon="0.71251">
        <ele>61.18</ele>
        <time>2013-09-29T10:20:45Z</time>
      </trkpt>
      <trkpt lat="47.38196" lon="0.71204">
        <ele>62.62</ele>
        <time>2013-09-29T10:21:04Z</time>
      </trkpt>
      <trkpt lat="47.38276" lon="0.71156">
        <ele>58.78</ele>
        <time>2013-09-29T10:21:18Z</time>
      </trkpt>
      <trkpt lat="47.38284" lon="0.71152">
        <ele>58.78</ele>
        <time>2013-09-29T10:21:19Z</time>
      </trkpt>
      <trkpt lat="47.38318" lon="0.71132">
        <ele>56.86</ele>
        <time>2013-09-29T10:21:23Z</time>
      </trkpt>
      <trkpt lat="47.38363" lon="0.71106">
        <ele>54.45</ele>
        <time>2013-09-29T10:21:28Z</time>
      </trkpt>
      <trkpt lat="47.38462" lon="0.7105">
        <ele>52.05</ele>
        <time>2013-09-29T10:21:41Z</time>
      </trkpt>
      <trkpt lat="47.38491" lon="0.7104">
        <ele>52.05</ele>
        <time>2013-09-29T10:21:50Z</time>
      </trkpt>
      <trkpt lat="47.38516" lon="0.71115">
        <ele>51.09</ele>
        <time>2013-09-29T10:22:02Z</time>
      </trkpt>
      <trkpt lat="47.38547" lon="0.71232">
        <ele>51.09</ele>
        <time>2013-09-29T10:22:17Z</time>
      </trkpt>
      <trkpt lat="47.38586" lon="0.71379">
        <ele>51.09</ele>
        <time>2013-09-29T10:22:35Z</time>
      </trkpt>
      <trkpt lat="47.38628" lon="0.71536">
        <ele>51.09</ele>
        <time>2013-09-29T10:22:54Z</time>
      </trkpt>
      <trkpt lat="47.38669" lon="0.7169">
        <ele>50.61</ele>
        <time>2013-09-29T10:23:12Z</time>
      </trkpt>
      <trkpt lat="47.38697" lon="0.71809">
        <ele>51.09</ele>
        <time>2013-09-29T10:23:27Z</time>
      </trkpt>
      <trkpt lat="47.38696" lon="0.71829">
        <ele>51.09</ele>
        <time>2013-09-29T10:23:30Z</time>
      </trkpt>
      <trkpt lat="47.38707" lon="0.71867">
        <ele>50.61</ele>
        <time>2013-09-29T10:23:36Z</time>
      </trkpt>
      <trkpt lat="47.38719" lon="0.7199">
        <ele>50.61</ele>
        <time>2013-09-29T10:23:53Z</time>
      </trkpt>
      <trkpt lat="47.38728" lon="0.72102">
        <ele>50.61</ele>
        <time>2013-09-29T10:24:08Z</time>
      </trkpt>
      <trkpt lat="47.38731" lon="0.72142">
        <ele>51.09</ele>
        <time>2013-09-29T10:24:14Z</time>
      </trkpt>
      <trkpt lat="47.38738" lon="0.7224">
        <ele>51.09</ele>
        <time>2013-09-29T10:24:31Z</time>
      </trkpt>
      <trkpt lat="47.38744" lon="0.72338">
        <ele>50.61</ele>
        <time>2013-09-29T10:24:46Z</time>
      </trkpt>
      <trkpt lat="47.38754" lon="0.72462">
        <ele>51.09</ele>
        <time>2013-09-29T10:25:03Z</time>
      </trkpt>
      <trkpt lat="47.38762" lon="0.72592">
        <ele>51.09</ele>
        <time>2013-09-29T10:25:20Z</time>
      </trkpt>
      <trkpt lat="47.38763" lon="0.72606">
        <ele>51.09</ele>
        <time>2013-09-29T10:25:22Z</time>
      </trkpt>
      <trkpt lat="47.38763" lon="0.72687">
        <ele>51.09</ele>
        <time>2013-09-29T10:25:37Z</time>
      </trkpt>
      <trkpt lat="47.38762" lon="0.72691">
        <ele>50.61</ele>
        <time>2013-09-29T10:25:38Z</time>
      </trkpt>
      <trkpt lat="47.38778" lon="0.72703">
        <ele>51.09</ele>
        <time>2013-09-29T10:25:47Z</time>
      </trkpt>
      <trkpt lat="47.38798" lon="0.72688">
        <ele>50.61</ele>
        <time>2013-09-29T10:25:53Z</time>
      </trkpt>
      <trkpt lat="47.38816" lon="0.72682">
        <ele>51.09</ele>
        <time>2013-09-29T10:25:57Z</time>
      </trkpt>
      <trkpt lat="47.38837" lon="0.72662">
        <ele>51.57</ele>
        <time>2013-09-29T10:26:03Z</time>
      </trkpt>
      <trkpt lat="47.38856" lon="0.72677">
        <ele>53.01</ele>
        <time>2013-09-29T10:26:11Z</time>
      </trkpt>
      <trkpt lat="47.38864" lon="0.7268">
        <ele>53.49</ele>
        <time>2013-09-29T10:26:14Z</time>
      </trkpt>
      <trkpt lat="47.38903" lon="0.72691">
        <ele>52.05</ele>
        <time>2013-09-29T10:26:29Z</time>
      </trkpt>
      <trkpt lat="47.38908" lon="0.72699">
        <ele>51.57</ele>
        <time>2013-09-29T10:26:35Z</time>
      </trkpt>
      <trkpt lat="47.38915" lon="0.727">
        <ele>50.61</ele>
        <time>2013-09-29T10:26:40Z</time>
      </trkpt>
      <trkpt lat="47.38928" lon="0.72698">
        <ele>50.13</ele>
        <time>2013-09-29T10:26:54Z</time>
      </trkpt>
      <trkpt lat="47.38928" lon="0.72698">
        <ele>50.13</ele>
        <time>2013-09-29T10:27:15Z</time>
      </trkpt>
      <trkpt lat="47.38928" lon="0.72697">
        <ele>50.13</ele>
        <time>2013-09-29T10:27:37Z</time>
      </trkpt>
      <trkpt lat="47.38928" lon="0.72697">
        <ele>50.13</ele>
        <time>2013-09-29T10:28:07Z</time>
      </trkpt>
      <trkpt lat="47.38929" lon="0.72697">
        <ele>50.13</ele>
        <time>2013-09-29T10:28:36Z</time>
      </trkpt>
      <trkpt lat="47.38929" lon="0.72697">
        <ele>50.13</ele>
        <time>2013-09-29T10:28:56Z</time>
      </trkpt>
      <trkpt lat="47.38925" lon="0.72694">
        <ele>50.13</ele>
        <time>2013-09-29T10:29:16Z</time>
      </trkpt>
      <trkpt lat="47.38925" lon="0.72694">
        <ele>50.13</ele>
        <time>2013-09-29T10:29:35Z</time>
      </trkpt>
      <trkpt lat="47.38925" lon="0.72694">
        <ele>50.61</ele>
        <time>2013-09-29T10:29:48Z</time>
      </trkpt>
      <trkpt lat="47.38907" lon="0.72687">
        <ele>52.05</ele>
        <time>2013-09-29T10:30:01Z</time>
      </trkpt>
      <trkpt lat="47.389" lon="0.72663">
        <ele>52.53</ele>
        <time>2013-09-29T10:30:12Z</time>
      </trkpt>
      <trkpt lat="47.38941" lon="0.7264">
        <ele>51.57</ele>
        <time>2013-09-29T10:30:23Z</time>
      </trkpt>
      <trkpt lat="47.38972" lon="0.72617">
        <ele>50.61</ele>
        <time>2013-09-29T10:30:34Z</time>
      </trkpt>
      <trkpt lat="47.38977" lon="0.72613">
        <ele>50.61</ele>
        <time>2013-09-29T10:30:45Z</time>
      </trkpt>
      <trkpt lat="47.38994" lon="0.72563">
        <ele>50.61</ele>
        <time>2013-09-29T10:30:56Z</time>
      </trkpt>
      <trkpt lat="47.38984" lon="0.72426">
        <ele>50.61</ele>
        <time>2013-09-29T10:31:12Z</time>
      </trkpt>
      <trkpt lat="47.38976" lon="0.72271">
        <ele>50.13</ele>
        <time>2013-09-29T10:31:31Z</time>
      </trkpt>
      <trkpt lat="47.38968" lon="0.72142">
        <ele>50.61</ele>
        <time>2013-09-29T10:31:47Z</time>
      </trkpt>
      <trkpt lat="47.38963" lon="0.72064">
        <ele>50.13</ele>
        <time>2013-09-29T10:32:00Z</time>
      </trkpt>
      <trkpt lat="47.38963" lon="0.72061">
        <ele>50.13</ele>
        <time>2013-09-29T10:32:18Z</time>
      </trkpt>
      <trkpt lat="47.38963" lon="0.72053">
        <ele>50.13</ele>
        <time>2013-09-29T10:32:20Z</time>
      </trkpt>
      <trkpt lat="47.38986" lon="0.72028">
        <ele>50.13</ele>
        <time>2013-09-29T10:32:27Z</time>
      </trkpt>
      <trkpt lat="47.38994" lon="0.72019">
        <ele>50.61</ele>
        <time>2013-09-29T10:32:29Z</time>
      </trkpt>
      <trkpt lat="47.39034" lon="0.71972">
        <ele>50.13</ele>
        <time>2013-09-29T10:32:38Z</time>
      </trkpt>
      <trkpt lat="47.39045" lon="0.71963">
        <ele>50.13</ele>
        <time>2013-09-29T10:32:40Z</time>
      </trkpt>
      <trkpt lat="47.39144" lon="0.71859">
        <ele>50.61</ele>
        <time>2013-09-29T10:33:00Z</time>
      </trkpt>
      <trkpt lat="47.39157" lon="0.71848">
        <ele>50.61</ele>
        <time>2013-09-29T10:33:03Z</time>
      </trkpt>
      <trkpt lat="47.39189" lon="0.71822">
        <ele>50.61</ele>
        <time>2013-09-29T10:33:12Z</time>
      </trkpt>
      <trkpt lat="47.39219" lon="0.71708">
        <ele>50.61</ele>
        <time>2013-09-29T10:33:27Z</time>
      </trkpt>
      <trkpt lat="47.39225" lon="0.71694">
        <ele>50.61</ele>
        <time>2013-09-29T10:33:29Z</time>
      </trkpt>
      <trkpt lat="47.39254" lon="0.71633">
        <ele>50.61</ele>
        <time>2013-09-29T10:33:38Z</time>
      </trkpt>
      <trkpt lat="47.39274" lon="0.71608">
        <ele>50.61</ele>
        <time>2013-09-29T10:33:43Z</time>
      </trkpt>
      <trkpt lat="47.39294" lon="0.71598">
        <ele>50.61</ele>
        <time>2013-09-29T10:33:47Z</time>
      </trkpt>
      <trkpt lat="47.39398" lon="0.71611">
        <ele>51.57</ele>
        <time>2013-09-29T10:34:05Z</time>
      </trkpt>
      <trkpt lat="47.39475" lon="0.71618">
        <ele>51.57</ele>
        <time>2013-09-29T10:34:19Z</time>
      </trkpt>
      <trkpt lat="47.39494" lon="0.71626">
        <ele>51.57</ele>
        <time>2013-09-29T10:34:24Z</time>
      </trkpt>
      <trkpt lat="47.39504" lon="0.71613">
        <ele>51.57</ele>
        <time>2013-09-29T10:34:28Z</time>
      </trkpt>
      <trkpt lat="47.39506" lon="0.71599">
        <ele>51.57</ele>
        <time>2013-09-29T10:34:30Z</time>
      </trkpt>
      <trkpt lat="47.39509" lon="0.71568">
        <ele>51.57</ele>
        <time>2013-09-29T10:34:34Z</time>
      </trkpt>
      <trkpt lat="47.39519" lon="0.71425">
        <ele>51.09</ele>
        <time>2013-09-29T10:34:51Z</time>
      </trkpt>
      <trkpt lat="47.39534" lon="0.71248">
        <ele>51.09</ele>
        <time>2013-09-29T10:35:11Z</time>
      </trkpt>
      <trkpt lat="47.39558" lon="0.71113">
        <ele>51.57</ele>
        <time>2013-09-29T10:35:28Z</time>
      </trkpt>
      <trkpt lat="47.39563" lon="0.71093">
        <ele>51.09</ele>
        <time>2013-09-29T10:35:31Z</time>
      </trkpt>
      <trkpt lat="47.39588" lon="0.71079">
        <ele>50.61</ele>
        <time>2013-09-29T10:35:38Z</time>
      </trkpt>
      <trkpt lat="47.3961" lon="0.71093">
        <ele>51.09</ele>
        <time>2013-09-29T10:35:42Z</time>
      </trkpt>
      <trkpt lat="47.39637" lon="0.71109">
        <ele>51.57</ele>
        <time>2013-09-29T10:35:47Z</time>
      </trkpt>
      <trkpt lat="47.39668" lon="0.71089">
        <ele>52.05</ele>
        <time>2013-09-29T10:35:55Z</time>
      </trkpt>
      <trkpt lat="47.39673" lon="0.71041">
        <ele>54.45</ele>
        <time>2013-09-29T10:36:06Z</time>
      </trkpt>
      <trkpt lat="47.39676" lon="0.7099">
        <ele>55.41</ele>
        <time>2013-09-29T10:36:18Z</time>
      </trkpt>
      <trkpt lat="47.39678" lon="0.7093">
        <ele>55.41</ele>
        <time>2013-09-29T10:36:30Z</time>
      </trkpt>
      <trkpt lat="47.39681" lon="0.70892">
        <ele>54.45</ele>
        <time>2013-09-29T10:36:38Z</time>
      </trkpt>
      <trkpt lat="47.39696" lon="0.70872">
        <ele>54.93</ele>
        <time>2013-09-29T10:36:47Z</time>
      </trkpt>
      <trkpt lat="47.397" lon="0.70849">
        <ele>55.41</ele>
        <time>2013-09-29T10:36:54Z</time>
      </trkpt>
      <trkpt lat="47.397" lon="0.70837">
        <ele>55.41</ele>
        <time>2013-09-29T10:37:03Z</time>
      </trkpt>
      <trkpt lat="47.397" lon="0.70864">
        <ele>54.93</ele>
        <time>2013-09-29T10:37:07Z</time>
      </trkpt>
      <trkpt lat="47.397" lon="0.70891">
        <ele>53.97</ele>
        <time>2013-09-29T10:37:10Z</time>
      </trkpt>
      <trkpt lat="47.39696" lon="0.70916">
        <ele>53.97</ele>
        <time>2013-09-29T10:37:21Z</time>
      </trkpt>
      <trkpt lat="47.39696" lon="0.70915">
        <ele>53.49</ele>
        <time>2013-09-29T10:38:00Z</time>
      </trkpt>
      <trkpt lat="47.39698" lon="0.70914">
        <ele>53.49</ele>
        <time>2013-09-29T10:38:13Z</time>
      </trkpt>
      <trkpt lat="47.39698" lon="0.70914">
        <ele>53.49</ele>
        <time>2013-09-29T10:38:32Z</time>
      </trkpt>
      <trkpt lat="47.39701" lon="0.70866">
        <ele>55.41</ele>
        <time>2013-09-29T10:38:43Z</time>
      </trkpt>
      <trkpt lat="47.39703" lon="0.70786">
        <ele>55.89</ele>
        <time>2013-09-29T10:38:55Z</time>
      </trkpt>
      <trkpt lat="47.39706" lon="0.70714">
        <ele>55.89</ele>
        <time>2013-09-29T10:39:04Z</time>
      </trkpt>
      <trkpt lat="47.39712" lon="0.70605">
        <ele>56.37</ele>
        <time>2013-09-29T10:39:21Z</time>
      </trkpt>
      <trkpt lat="47.39711" lon="0.70571">
        <ele>55.89</ele>
        <time>2013-09-29T10:39:26Z</time>
      </trkpt>
      <trkpt lat="47.39721" lon="0.70453">
        <ele>56.86</ele>
        <time>2013-09-29T10:39:43Z</time>
      </trkpt>
      <trkpt lat="47.39723" lon="0.70438">
        <ele>56.86</ele>
        <time>2013-09-29T10:39:45Z</time>
      </trkpt>
      <trkpt lat="47.39742" lon="0.70319">
        <ele>56.37</ele>
        <time>2013-09-29T10:39:59Z</time>
      </trkpt>
      <trkpt lat="47.3976" lon="0.70178">
        <ele>56.86</ele>
        <time>2013-09-29T10:40:15Z</time>
      </trkpt>
      <trkpt lat="47.39761" lon="0.70063">
        <ele>56.37</ele>
        <time>2013-09-29T10:40:30Z</time>
      </trkpt>
      <trkpt lat="47.39761" lon="0.69999">
        <ele>56.37</ele>
        <time>2013-09-29T10:40:38Z</time>
      </trkpt>
      <trkpt lat="47.39764" lon="0.69964">
        <ele>55.89</ele>
        <time>2013-09-29T10:40:48Z</time>
      </trkpt>
      <trkpt lat="47.39764" lon="0.69963">
        <ele>56.86</ele>
        <time>2013-09-29T10:41:05Z</time>
      </trkpt>
      <trkpt lat="47.39764" lon="0.69963">
        <ele>56.37</ele>
        <time>2013-09-29T10:41:35Z</time>
      </trkpt>
      <trkpt lat="47.39764" lon="0.69963">
        <ele>56.37</ele>
        <time>2013-09-29T10:41:36Z</time>
      </trkpt>
      <trkpt lat="47.39763" lon="0.69922">
        <ele>56.37</ele>
        <time>2013-09-29T10:41:45Z</time>
      </trkpt>
      <trkpt lat="47.39761" lon="0.69865">
        <ele>56.86</ele>
        <time>2013-09-29T10:41:54Z</time>
      </trkpt>
      <trkpt lat="47.39763" lon="0.69829">
        <ele>56.37</ele>
        <time>2013-09-29T10:41:59Z</time>
      </trkpt>
      <trkpt lat="47.39759" lon="0.69719">
        <ele>56.86</ele>
        <time>2013-09-29T10:42:14Z</time>
      </trkpt>
      <trkpt lat="47.39756" lon="0.69579">
        <ele>56.37</ele>
        <time>2013-09-29T10:42:30Z</time>
      </trkpt>
      <trkpt lat="47.39755" lon="0.69434">
        <ele>56.37</ele>
        <time>2013-09-29T10:42:45Z</time>
      </trkpt>
      <trkpt lat="47.39754" lon="0.69396">
        <ele>56.37</ele>
        <time>2013-09-29T10:42:49Z</time>
      </trkpt>
      <trkpt lat="47.39753" lon="0.69298">
        <ele>55.89</ele>
        <time>2013-09-29T10:43:03Z</time>
      </trkpt>
      <trkpt lat="47.39753" lon="0.69291">
        <ele>55.41</ele>
        <time>2013-09-29T10:43:05Z</time>
      </trkpt>
      <trkpt lat="47.39785" lon="0.69292">
        <ele>55.89</ele>
        <time>2013-09-29T10:43:15Z</time>
      </trkpt>
      <trkpt lat="47.39874" lon="0.693">
        <ele>57.34</ele>
        <time>2013-09-29T10:43:31Z</time>
      </trkpt>
      <trkpt lat="47.39949" lon="0.69307">
        <ele>56.86</ele>
        <time>2013-09-29T10:43:46Z</time>
      </trkpt>
      <trkpt lat="47.39978" lon="0.69309">
        <ele>56.37</ele>
        <time>2013-09-29T10:43:51Z</time>
      </trkpt>
      <trkpt lat="47.40077" lon="0.69324">
        <ele>55.41</ele>
        <time>2013-09-29T10:44:06Z</time>
      </trkpt>
      <trkpt lat="47.40153" lon="0.69333">
        <ele>56.86</ele>
        <time>2013-09-29T10:44:19Z</time>
      </trkpt>
      <trkpt lat="47.40201" lon="0.69336">
        <ele>55.41</ele>
        <time>2013-09-29T10:44:29Z</time>
      </trkpt>
      <trkpt lat="47.40201" lon="0.6929">
        <ele>55.89</ele>
        <time>2013-09-29T10:44:38Z</time>
      </trkpt>
      <trkpt lat="47.4019" lon="0.69162">
        <ele>55.41</ele>
        <time>2013-09-29T10:44:54Z</time>
      </trkpt>
      <trkpt lat="47.40181" lon="0.69053">
        <ele>54.93</ele>
        <time>2013-09-29T10:45:07Z</time>
      </trkpt>
      <trkpt lat="47.40173" lon="0.6898">
        <ele>54.93</ele>
        <time>2013-09-29T10:45:16Z</time>
      </trkpt>
      <trkpt lat="47.40163" lon="0.68855">
        <ele>54.93</ele>
        <time>2013-09-29T10:45:33Z</time>
      </trkpt>
      <trkpt lat="47.40149" lon="0.68713">
        <ele>55.41</ele>
        <time>2013-09-29T10:45:51Z</time>
      </trkpt>
      <trkpt lat="47.40148" lon="0.68707">
        <ele>54.93</ele>
        <time>2013-09-29T10:45:52Z</time>
      </trkpt>
      <trkpt lat="47.40145" lon="0.68683">
        <ele>54.93</ele>
        <time>2013-09-29T10:45:56Z</time>
      </trkpt>
      <trkpt lat="47.40137" lon="0.68655">
        <ele>54.93</ele>
        <time>2013-09-29T10:46:02Z</time>
      </trkpt>
      <trkpt lat="47.40139" lon="0.6863">
        <ele>55.41</ele>
        <time>2013-09-29T10:46:09Z</time>
      </trkpt>
      <trkpt lat="47.40117" lon="0.68543">
        <ele>53.49</ele>
        <time>2013-09-29T10:46:20Z</time>
      </trkpt>
      <trkpt lat="47.40088" lon="0.68405">
        <ele>51.09</ele>
        <time>2013-09-29T10:46:33Z</time>
      </trkpt>
      <trkpt lat="47.4008" lon="0.68318">
        <ele>54.45</ele>
        <time>2013-09-29T10:46:43Z</time>
      </trkpt>
      <trkpt lat="47.40076" lon="0.68256">
        <ele>55.89</ele>
        <time>2013-09-29T10:46:54Z</time>
      </trkpt>
      <trkpt lat="47.40061" lon="0.68213">
        <ele>55.89</ele>
        <time>2013-09-29T10:47:04Z</time>
      </trkpt>
      <trkpt lat="47.40061" lon="0.68193">
        <ele>55.41</ele>
        <time>2013-09-29T10:47:08Z</time>
      </trkpt>
      <trkpt lat="47.40044" lon="0.68098">
        <ele>54.93</ele>
        <time>2013-09-29T10:47:21Z</time>
      </trkpt>
      <trkpt lat="47.40044" lon="0.68082">
        <ele>54.93</ele>
        <time>2013-09-29T10:47:23Z</time>
      </trkpt>
      <trkpt lat="47.40043" lon="0.67987">
        <ele>54.93</ele>
        <time>2013-09-29T10:47:35Z</time>
      </trkpt>
      <trkpt lat="47.40041" lon="0.67954">
        <ele>54.45</ele>
        <time>2013-09-29T10:47:40Z</time>
      </trkpt>
      <trkpt lat="47.40035" lon="0.67937">
        <ele>54.45</ele>
        <time>2013-09-29T10:47:43Z</time>
      </trkpt>
      <trkpt lat="47.4003" lon="0.67916">
        <ele>53.97</ele>
        <time>2013-09-29T10:47:46Z</time>
      </trkpt>
      <trkpt lat="47.40014" lon="0.67803">
        <ele>54.45</ele>
        <time>2013-09-29T10:48:02Z</time>
      </trkpt>
      <trkpt lat="47.40013" lon="0.67789">
        <ele>54.45</ele>
        <time>2013-09-29T10:48:04Z</time>
      </trkpt>
      <trkpt lat="47.40001" lon="0.67706">
        <ele>55.89</ele>
        <time>2013-09-29T10:48:16Z</time>
      </trkpt>
      <trkpt lat="47.39993" lon="0.67678">
        <ele>55.41</ele>
        <time>2013-09-29T10:48:20Z</time>
      </trkpt>
      <trkpt lat="47.39954" lon="0.67536">
        <ele>53.49</ele>
        <time>2013-09-29T10:48:38Z</time>
      </trkpt>
      <trkpt lat="47.39924" lon="0.67413">
        <ele>54.45</ele>
        <time>2013-09-29T10:48:54Z</time>
      </trkpt>
      <trkpt lat="47.39892" lon="0.67297">
        <ele>53.97</ele>
        <time>2013-09-29T10:49:09Z</time>
      </trkpt>
      <trkpt lat="47.39865" lon="0.67215">
        <ele>53.97</ele>
        <time>2013-09-29T10:49:20Z</time>
      </trkpt>
      <trkpt lat="47.39827" lon="0.67061">
        <ele>53.97</ele>
        <time>2013-09-29T10:49:40Z</time>
      </trkpt>
      <trkpt lat="47.39791" lon="0.66965">
        <ele>54.45</ele>
        <time>2013-09-29T10:49:54Z</time>
      </trkpt>
      <trkpt lat="47.39769" lon="0.66843">
        <ele>54.45</ele>
        <time>2013-09-29T10:50:09Z</time>
      </trkpt>
      <trkpt lat="47.39765" lon="0.66825">
        <ele>53.97</ele>
        <time>2013-09-29T10:50:11Z</time>
      </trkpt>
      <trkpt lat="47.39743" lon="0.66695">
        <ele>53.49</ele>
        <time>2013-09-29T10:50:26Z</time>
      </trkpt>
      <trkpt lat="47.39725" lon="0.66567">
        <ele>53.49</ele>
        <time>2013-09-29T10:50:41Z</time>
      </trkpt>
      <trkpt lat="47.39706" lon="0.66418">
        <ele>53.49</ele>
        <time>2013-09-29T10:50:59Z</time>
      </trkpt>
      <trkpt lat="47.39684" lon="0.66292">
        <ele>53.97</ele>
        <time>2013-09-29T10:51:15Z</time>
      </trkpt>
      <trkpt lat="47.39657" lon="0.66162">
        <ele>54.93</ele>
        <time>2013-09-29T10:51:32Z</time>
      </trkpt>
      <trkpt lat="47.39638" lon="0.66043">
        <ele>56.86</ele>
        <time>2013-09-29T10:51:48Z</time>
      </trkpt>
      <trkpt lat="47.39633" lon="0.66016">
        <ele>56.86</ele>
        <time>2013-09-29T10:51:52Z</time>
      </trkpt>
      <trkpt lat="47.39618" lon="0.65955">
        <ele>53.49</ele>
        <time>2013-09-29T10:51:59Z</time>
      </trkpt>
      <trkpt lat="47.39591" lon="0.65839">
        <ele>51.09</ele>
        <time>2013-09-29T10:52:10Z</time>
      </trkpt>
      <trkpt lat="47.39574" lon="0.65789">
        <ele>51.57</ele>
        <time>2013-09-29T10:52:16Z</time>
      </trkpt>
      <trkpt lat="47.39565" lon="0.65766">
        <ele>51.57</ele>
        <time>2013-09-29T10:52:19Z</time>
      </trkpt>
      <trkpt lat="47.39544" lon="0.65691">
        <ele>51.09</ele>
        <time>2013-09-29T10:52:28Z</time>
      </trkpt>
      <trkpt lat="47.3954" lon="0.65643">
        <ele>53.01</ele>
        <time>2013-09-29T10:52:35Z</time>
      </trkpt>
      <trkpt lat="47.3952" lon="0.65603">
        <ele>49.16</ele>
        <time>2013-09-29T10:52:42Z</time>
      </trkpt>
      <trkpt lat="47.39514" lon="0.65584">
        <ele>49.16</ele>
        <time>2013-09-29T10:52:45Z</time>
      </trkpt>
      <trkpt lat="47.39493" lon="0.65472">
        <ele>48.68</ele>
        <time>2013-09-29T10:53:01Z</time>
      </trkpt>
      <trkpt lat="47.39476" lon="0.65385">
        <ele>48.68</ele>
        <time>2013-09-29T10:53:14Z</time>
      </trkpt>
      <trkpt lat="47.39458" lon="0.65288">
        <ele>48.68</ele>
        <time>2013-09-29T10:53:27Z</time>
      </trkpt>
      <trkpt lat="47.39436" lon="0.65183">
        <ele>48.68</ele>
        <time>2013-09-29T10:53:41Z</time>
      </trkpt>
      <trkpt lat="47.39419" lon="0.65119">
        <ele>48.68</ele>
        <time>2013-09-29T10:53:49Z</time>
      </trkpt>
      <trkpt lat="47.39417" lon="0.65104">
        <ele>48.2</ele>
        <time>2013-09-29T10:53:51Z</time>
      </trkpt>
      <trkpt lat="47.39411" lon="0.65084">
        <ele>48.2</ele>
        <time>2013-09-29T10:53:54Z</time>
      </trkpt>
      <trkpt lat="47.39392" lon="0.65004">
        <ele>48.68</ele>
        <time>2013-09-29T10:54:05Z</time>
      </trkpt>
      <trkpt lat="47.39385" lon="0.64983">
        <ele>49.16</ele>
        <time>2013-09-29T10:54:08Z</time>
      </trkpt>
      <trkpt lat="47.3935" lon="0.64888">
        <ele>47.24</ele>
        <time>2013-09-29T10:54:21Z</time>
      </trkpt>
      <trkpt lat="47.39347" lon="0.64881">
        <ele>47.24</ele>
        <time>2013-09-29T10:54:22Z</time>
      </trkpt>
      <trkpt lat="47.39338" lon="0.64847">
        <ele>46.76</ele>
        <time>2013-09-29T10:54:26Z</time>
      </trkpt>
      <trkpt lat="47.39344" lon="0.64808">
        <ele>48.2</ele>
        <time>2013-09-29T10:54:32Z</time>
      </trkpt>
      <trkpt lat="47.39344" lon="0.64803">
        <ele>48.68</ele>
        <time>2013-09-29T10:54:33Z</time>
      </trkpt>
      <trkpt lat="47.39343" lon="0.64784">
        <ele>48.68</ele>
        <time>2013-09-29T10:54:36Z</time>
      </trkpt>
      <trkpt lat="47.39341" lon="0.64758">
        <ele>50.61</ele>
        <time>2013-09-29T10:54:40Z</time>
      </trkpt>
      <trkpt lat="47.3934" lon="0.64754">
        <ele>51.09</ele>
        <time>2013-09-29T10:54:41Z</time>
      </trkpt>
      <trkpt lat="47.39333" lon="0.64736">
        <ele>51.57</ele>
        <time>2013-09-29T10:54:48Z</time>
      </trkpt>
      <trkpt lat="47.3933" lon="0.64708">
        <ele>52.05</ele>
        <time>2013-09-29T10:54:54Z</time>
      </trkpt>
      <trkpt lat="47.3931" lon="0.64673">
        <ele>52.05</ele>
        <time>2013-09-29T10:55:03Z</time>
      </trkpt>
      <trkpt lat="47.39283" lon="0.64619">
        <ele>53.01</ele>
        <time>2013-09-29T10:55:16Z</time>
      </trkpt>
      <trkpt lat="47.3928" lon="0.64608">
        <ele>53.01</ele>
        <time>2013-09-29T10:55:18Z</time>
      </trkpt>
      <trkpt lat="47.39264" lon="0.64558">
        <ele>52.53</ele>
        <time>2013-09-29T10:55:26Z</time>
      </trkpt>
      <trkpt lat="47.39239" lon="0.64476">
        <ele>53.49</ele>
        <time>2013-09-29T10:55:39Z</time>
      </trkpt>
      <trkpt lat="47.39214" lon="0.64362">
        <ele>52.53</ele>
        <time>2013-09-29T10:55:56Z</time>
      </trkpt>
      <trkpt lat="47.39205" lon="0.64304">
        <ele>52.53</ele>
        <time>2013-09-29T10:56:11Z</time>
      </trkpt>
      <trkpt lat="47.39208" lon="0.64307">
        <ele>52.05</ele>
        <time>2013-09-29T10:56:26Z</time>
      </trkpt>
      <trkpt lat="47.39222" lon="0.64286">
        <ele>52.53</ele>
        <time>2013-09-29T10:56:34Z</time>
      </trkpt>
      <trkpt lat="47.39229" lon="0.64276">
        <ele>53.49</ele>
        <time>2013-09-29T10:56:37Z</time>
      </trkpt>
      <trkpt lat="47.3925" lon="0.64268">
        <ele>54.93</ele>
        <time>2013-09-29T10:56:42Z</time>
      </trkpt>
      <trkpt lat="47.39259" lon="0.64219">
        <ele>55.89</ele>
        <time>2013-09-29T10:56:52Z</time>
      </trkpt>
      <trkpt lat="47.39258" lon="0.64208">
        <ele>55.41</ele>
        <time>2013-09-29T10:56:54Z</time>
      </trkpt>
      <trkpt lat="47.39256" lon="0.64182">
        <ele>55.89</ele>
        <time>2013-09-29T10:56:58Z</time>
      </trkpt>
      <trkpt lat="47.39254" lon="0.64161">
        <ele>55.41</ele>
        <time>2013-09-29T10:57:01Z</time>
      </trkpt>
      <trkpt lat="47.39253" lon="0.64095">
        <ele>53.97</ele>
        <time>2013-09-29T10:57:11Z</time>
      </trkpt>
      <trkpt lat="47.39245" lon="0.64012">
        <ele>53.49</ele>
        <time>2013-09-29T10:57:25Z</time>
      </trkpt>
      <trkpt lat="47.39251" lon="0.64005">
        <ele>54.45</ele>
        <time>2013-09-29T10:57:29Z</time>
      </trkpt>
      <trkpt lat="47.39289" lon="0.63997">
        <ele>57.82</ele>
        <time>2013-09-29T10:57:43Z</time>
      </trkpt>
      <trkpt lat="47.39319" lon="0.63987">
        <ele>60.7</ele>
        <time>2013-09-29T10:57:55Z</time>
      </trkpt>
      <trkpt lat="47.39352" lon="0.63971">
        <ele>64.55</ele>
        <time>2013-09-29T10:58:10Z</time>
      </trkpt>
      <trkpt lat="47.39381" lon="0.63951">
        <ele>67.43</ele>
        <time>2013-09-29T10:58:26Z</time>
      </trkpt>
      <trkpt lat="47.39406" lon="0.63932">
        <ele>70.79</ele>
        <time>2013-09-29T10:58:39Z</time>
      </trkpt>
      <trkpt lat="47.39429" lon="0.63911">
        <ele>73.68</ele>
        <time>2013-09-29T10:58:54Z</time>
      </trkpt>
      <trkpt lat="47.39459" lon="0.63893">
        <ele>77.04</ele>
        <time>2013-09-29T10:59:11Z</time>
      </trkpt>
      <trkpt lat="47.39489" lon="0.63873">
        <ele>79.93</ele>
        <time>2013-09-29T10:59:27Z</time>
      </trkpt>
      <trkpt lat="47.39522" lon="0.6385">
        <ele>82.33</ele>
        <time>2013-09-29T10:59:44Z</time>
      </trkpt>
      <trkpt lat="47.39555" lon="0.63824">
        <ele>85.69</ele>
        <time>2013-09-29T11:00:00Z</time>
      </trkpt>
      <trkpt lat="47.39596" lon="0.63792">
        <ele>88.58</ele>
        <time>2013-09-29T11:00:18Z</time>
      </trkpt>
      <trkpt lat="47.39644" lon="0.63751">
        <ele>90.5</ele>
        <time>2013-09-29T11:00:35Z</time>
      </trkpt>
      <trkpt lat="47.39692" lon="0.63711">
        <ele>89.54</ele>
        <time>2013-09-29T11:00:50Z</time>
      </trkpt>
      <trkpt lat="47.39729" lon="0.63668">
        <ele>90.02</ele>
        <time>2013-09-29T11:01:00Z</time>
      </trkpt>
      <trkpt lat="47.39803" lon="0.63582">
        <ele>90.98</ele>
        <time>2013-09-29T11:01:19Z</time>
      </trkpt>
      <trkpt lat="47.39822" lon="0.63559">
        <ele>91.46</ele>
        <time>2013-09-29T11:01:24Z</time>
      </trkpt>
      <trkpt lat="47.39827" lon="0.63526">
        <ele>90.5</ele>
        <time>2013-09-29T11:01:29Z</time>
      </trkpt>
      <trkpt lat="47.39794" lon="0.6341">
        <ele>87.14</ele>
        <time>2013-09-29T11:01:43Z</time>
      </trkpt>
      <trkpt lat="47.39809" lon="0.63367">
        <ele>86.18</ele>
        <time>2013-09-29T11:01:49Z</time>
      </trkpt>
      <trkpt lat="47.39814" lon="0.63364">
        <ele>86.18</ele>
        <time>2013-09-29T11:01:50Z</time>
      </trkpt>
      <trkpt lat="47.39829" lon="0.63354">
        <ele>86.18</ele>
        <time>2013-09-29T11:01:53Z</time>
      </trkpt>
      <trkpt lat="47.39845" lon="0.63325">
        <ele>86.66</ele>
        <time>2013-09-29T11:01:58Z</time>
      </trkpt>
      <trkpt lat="47.39861" lon="0.63287">
        <ele>87.62</ele>
        <time>2013-09-29T11:02:04Z</time>
      </trkpt>
      <trkpt lat="47.39875" lon="0.63263">
        <ele>87.62</ele>
        <time>2013-09-29T11:02:10Z</time>
      </trkpt>
      <trkpt lat="47.39846" lon="0.63203">
        <ele>89.06</ele>
        <time>2013-09-29T11:02:21Z</time>
      </trkpt>
      <trkpt lat="47.39775" lon="0.63093">
        <ele>90.5</ele>
        <time>2013-09-29T11:02:40Z</time>
      </trkpt>
      <trkpt lat="47.39759" lon="0.6307">
        <ele>90.5</ele>
        <time>2013-09-29T11:02:44Z</time>
      </trkpt>
      <trkpt lat="47.39732" lon="0.62992">
        <ele>90.98</ele>
        <time>2013-09-29T11:02:55Z</time>
      </trkpt>
      <trkpt lat="47.39729" lon="0.6294">
        <ele>90.5</ele>
        <time>2013-09-29T11:03:01Z</time>
      </trkpt>
      <trkpt lat="47.39739" lon="0.62866">
        <ele>90.02</ele>
        <time>2013-09-29T11:03:09Z</time>
      </trkpt>
      <trkpt lat="47.39738" lon="0.62828">
        <ele>89.06</ele>
        <time>2013-09-29T11:03:13Z</time>
      </trkpt>
      <trkpt lat="47.3972" lon="0.62718">
        <ele>86.66</ele>
        <time>2013-09-29T11:03:24Z</time>
      </trkpt>
      <trkpt lat="47.39698" lon="0.62592">
        <ele>85.21</ele>
        <time>2013-09-29T11:03:37Z</time>
      </trkpt>
      <trkpt lat="47.39679" lon="0.62568">
        <ele>85.69</ele>
        <time>2013-09-29T11:03:42Z</time>
      </trkpt>
      <trkpt lat="47.3963" lon="0.62548">
        <ele>83.29</ele>
        <time>2013-09-29T11:03:50Z</time>
      </trkpt>
      <trkpt lat="47.39616" lon="0.62497">
        <ele>82.81</ele>
        <time>2013-09-29T11:03:56Z</time>
      </trkpt>
      <trkpt lat="47.39651" lon="0.62325">
        <ele>84.73</ele>
        <time>2013-09-29T11:04:15Z</time>
      </trkpt>
      <trkpt lat="47.39673" lon="0.62213">
        <ele>86.18</ele>
        <time>2013-09-29T11:04:29Z</time>
      </trkpt>
      <trkpt lat="47.39681" lon="0.62163">
        <ele>87.14</ele>
        <time>2013-09-29T11:04:36Z</time>
      </trkpt>
      <trkpt lat="47.39681" lon="0.62136">
        <ele>87.62</ele>
        <time>2013-09-29T11:04:40Z</time>
      </trkpt>
      <trkpt lat="47.39673" lon="0.62026">
        <ele>90.5</ele>
        <time>2013-09-29T11:04:56Z</time>
      </trkpt>
      <trkpt lat="47.39671" lon="0.61984">
        <ele>90.98</ele>
        <time>2013-09-29T11:05:03Z</time>
      </trkpt>
      <trkpt lat="47.39656" lon="0.61973">
        <ele>90.5</ele>
        <time>2013-09-29T11:05:08Z</time>
      </trkpt>
      <trkpt lat="47.39649" lon="0.61974">
        <ele>90.5</ele>
        <time>2013-09-29T11:05:20Z</time>
      </trkpt>
      <trkpt lat="47.39648" lon="0.61974">
        <ele>90.5</ele>
        <time>2013-09-29T11:05:32Z</time>
      </trkpt>
      <trkpt lat="47.39637" lon="0.61969">
        <ele>90.5</ele>
        <time>2013-09-29T11:05:37Z</time>
      </trkpt>
      <trkpt lat="47.39607" lon="0.6195">
        <ele>89.54</ele>
        <time>2013-09-29T11:05:44Z</time>
      </trkpt>
      <trkpt lat="47.39595" lon="0.61928">
        <ele>89.06</ele>
        <time>2013-09-29T11:05:48Z</time>
      </trkpt>
      <trkpt lat="47.39592" lon="0.61853">
        <ele>91.46</ele>
        <time>2013-09-29T11:06:00Z</time>
      </trkpt>
      <trkpt lat="47.39584" lon="0.61835">
        <ele>90.98</ele>
        <time>2013-09-29T11:06:06Z</time>
      </trkpt>
      <trkpt lat="47.39574" lon="0.61829">
        <ele>90.98</ele>
        <time>2013-09-29T11:06:11Z</time>
      </trkpt>
      <trkpt lat="47.39581" lon="0.61814">
        <ele>90.98</ele>
        <time>2013-09-29T11:06:20Z</time>
      </trkpt>
      <trkpt lat="47.39581" lon="0.6181">
        <ele>90.5</ele>
        <time>2013-09-29T11:06:37Z</time>
      </trkpt>
      <trkpt lat="47.39581" lon="0.6181">
        <ele>90.98</ele>
        <time>2013-09-29T11:07:20Z</time>
      </trkpt>
      <trkpt lat="47.39581" lon="0.6181">
        <ele>90.98</ele>
        <time>2013-09-29T11:07:58Z</time>
      </trkpt>
      <trkpt lat="47.39581" lon="0.61809">
        <ele>90.98</ele>
        <time>2013-09-29T11:08:36Z</time>
      </trkpt>
      <trkpt lat="47.39581" lon="0.61809">
        <ele>90.5</ele>
        <time>2013-09-29T11:09:06Z</time>
      </trkpt>
      <trkpt lat="47.39581" lon="0.61809">
        <ele>90.98</ele>
        <time>2013-09-29T11:09:08Z</time>
      </trkpt>
      <trkpt lat="47.39586" lon="0.61809">
        <ele>93.39</ele>
        <time>2013-09-29T12:53:37Z</time>
      </trkpt>
    </trkseg>
  </trk>
</gpx>